[[{"header":{"parameterUnit":"m.s-1","parameterCategory":1,"la1":30.6,"la2":29.2853,"lo1":-89.7004,"lo2":-87.6739,"dy":0.0162,"dx":0.0183,"nx":112,"ny":82,"refTime":"2023-06-08T06:00:00:Z","depth":0,"parameterNumber":2,"parameterNumberName":"U-component_of_WINDS"},"data":[0.0,0.0,0.0,0.0,0.0,0.0,0.0,0.0,0.0,0.0,0.0,0.0,0.0,0.0,0.0,0.0,0.0,0.0,0.0,0.0,0.0,0.0,0.0,0.0,0.0,0.0,0.0,0.0,0.0,0.0,0.0,0.0,0.0,0.0,0.0,0.0,0.0,0.0,0.0,0.0,0.0,0.0,0.0,0.0,0.0,0.0,0.0,0.0,0.0,0.0,0.0,0.0,0.0,0.0,0.0,0.0,0.0,0.0,0.0,0.0,0.0,0.0,0.0,0.0,0.0,0.0,0.0,0.0,0.0,0.0,0.0,0.0,0.0,0.0,0.0,0.0,0.0,0.0,0.0,0.0,0.0,0.0,0.0,0.0,0.0,0.0,0.0,0.0,0.0,0.0,-3.5881,-3.6433,-3.691,-3.7211,-3.7312,-3.8191,-3.8743,-3.8743,0.0,0.0,0.0,0.0,0.0,0.0,0.0,0.0,0.0,0.0,0.0,0.0,0.0,0.0,0.0,0.0,0.0,0.0,0.0,0.0,0.0,0.0,0.0,0.0,0.0,0.0,0.0,0.0,0.0,0.0,0.0,0.0,0.0,0.0,0.0,0.0,0.0,0.0,0.0,0.0,0.0,0.0,0.0,0.0,0.0,0.0,0.0,0.0,0.0,0.0,0.0,0.0,0.0,0.0,0.0,0.0,0.0,0.0,0.0,0.0,0.0,0.0,0.0,0.0,0.0,0.0,0.0,0.0,0.0,0.0,0.0,0.0,0.0,0.0,0.0,0.0,0.0,0.0,0.0,0.0,0.0,0.0,0.0,0.0,0.0,0.0,0.0,0.0,0.0,0.0,0.0,0.0,0.0,0.0,0.0,0.0,0.0,0.0,0.0,0.0,0.0,0.0,0.0,0.0,-3.6445,-3.6998,-3.7136,-3.7374,-3.7839,-3.804,-3.814,-3.814,0.0,0.0,0.0,0.0,0.0,0.0,0.0,0.0,0.0,0.0,0.0,0.0,0.0,0.0,0.0,0.0,0.0,0.0,0.0,0.0,0.0,0.0,0.0,0.0,0.0,0.0,0.0,0.0,0.0,0.0,0.0,0.0,0.0,0.0,0.0,0.0,0.0,0.0,0.0,0.0,0.0,0.0,0.0,0.0,0.0,0.0,0.0,0.0,0.0,0.0,0.0,0.0,0.0,0.0,0.0,0.0,0.0,0.0,0.0,0.0,0.0,0.0,0.0,0.0,0.0,0.0,0.0,0.0,0.0,0.0,0.0,0.0,0.0,0.0,0.0,0.0,0.0,0.0,0.0,0.0,0.0,0.0,0.0,0.0,0.0,0.0,0.0,0.0,0.0,0.0,0.0,0.0,0.0,0.0,0.0,0.0,0.0,0.0,0.0,0.0,0.0,0.0,0.0,-3.6358,-3.6458,-3.6709,-3.701,-3.7287,-3.7538,-3.7839,-3.8002,-3.8002,-3.8492,0.0,0.0,0.0,0.0,0.0,0.0,0.0,0.0,0.0,0.0,0.0,0.0,0.0,0.0,0.0,0.0,0.0,0.0,0.0,0.0,0.0,0.0,0.0,0.0,0.0,0.0,0.0,0.0,0.0,0.0,0.0,0.0,0.0,0.0,0.0,0.0,0.0,0.0,0.0,0.0,0.0,0.0,0.0,0.0,0.0,0.0,0.0,0.0,0.0,0.0,0.0,0.0,0.0,0.0,0.0,0.0,0.0,0.0,0.0,0.0,0.0,0.0,0.0,0.0,0.0,0.0,0.0,0.0,0.0,0.0,0.0,0.0,0.0,0.0,0.0,0.0,0.0,0.0,0.0,0.0,0.0,0.0,0.0,0.0,0.0,0.0,0.0,0.0,0.0,0.0,0.0,0.0,0.0,0.0,0.0,0.0,0.0,0.0,0.0,0.0,0.0,0.0,-3.6358,-3.6408,-3.6546,-3.6935,-3.7186,-3.7186,-3.7575,-3.7764,-3.7626,-3.7739,0.0,0.0,0.0,0.0,0.0,0.0,0.0,0.0,0.0,0.0,0.0,0.0,0.0,0.0,0.0,0.0,0.0,0.0,0.0,0.0,0.0,0.0,0.0,0.0,0.0,0.0,0.0,0.0,0.0,0.0,0.0,0.0,0.0,0.0,0.0,0.0,0.0,0.0,0.0,0.0,0.0,0.0,0.0,0.0,0.0,0.0,0.0,0.0,0.0,0.0,0.0,0.0,0.0,0.0,0.0,0.0,0.0,0.0,0.0,0.0,0.0,0.0,0.0,0.0,0.0,0.0,0.0,0.0,0.0,0.0,0.0,0.0,0.0,0.0,0.0,0.0,0.0,0.0,0.0,0.0,0.0,0.0,0.0,0.0,0.0,0.0,0.0,0.0,0.0,0.0,0.0,0.0,0.0,0.0,0.0,0.0,0.0,0.0,0.0,0.0,0.0,0.0,-3.6358,-3.6558,-3.7073,-3.7161,-3.7186,-3.7186,-3.7211,-3.7023,-3.6508,-3.696,0.0,0.0,0.0,0.0,0.0,0.0,0.0,0.0,0.0,0.0,0.0,0.0,0.0,0.0,0.0,0.0,0.0,0.0,0.0,0.0,0.0,0.0,0.0,0.0,0.0,0.0,0.0,0.0,0.0,0.0,0.0,0.0,0.0,0.0,0.0,0.0,0.0,0.0,0.0,0.0,0.0,0.0,0.0,0.0,0.0,0.0,0.0,0.0,0.0,0.0,0.0,0.0,0.0,0.0,0.0,0.0,0.0,0.0,0.0,0.0,0.0,0.0,0.0,0.0,0.0,0.0,0.0,0.0,0.0,0.0,0.0,0.0,0.0,0.0,0.0,0.0,0.0,0.0,0.0,0.0,0.0,0.0,0.0,0.0,0.0,0.0,0.0,0.0,0.0,0.0,0.0,0.0,0.0,0.0,0.0,0.0,0.0,0.0,0.0,0.0,0.0,0.0,-3.6358,-3.6445,0.0,-3.6671,-3.6671,-3.6671,-3.6671,-3.6584,-3.637,0.0,0.0,0.0,0.0,0.0,0.0,0.0,0.0,0.0,0.0,0.0,0.0,0.0,0.0,0.0,0.0,0.0,0.0,0.0,0.0,0.0,0.0,0.0,0.0,0.0,0.0,0.0,0.0,0.0,0.0,0.0,0.0,0.0,0.0,0.0,0.0,0.0,0.0,0.0,0.0,0.0,0.0,0.0,0.0,0.0,0.0,0.0,0.0,0.0,0.0,0.0,0.0,0.0,0.0,0.0,0.0,0.0,0.0,0.0,0.0,0.0,0.0,0.0,0.0,0.0,0.0,0.0,0.0,0.0,0.0,0.0,0.0,0.0,0.0,0.0,0.0,0.0,0.0,0.0,0.0,0.0,0.0,0.0,0.0,0.0,0.0,0.0,0.0,0.0,0.0,0.0,0.0,0.0,0.0,0.0,0.0,0.0,0.0,0.0,0.0,0.0,0.0,-3.6358,-3.6358,-3.6358,0.0,-3.6358,-3.6358,-3.6358,-3.6358,-3.6358,-3.6358,0.0,0.0,0.0,0.0,0.0,0.0,0.0,0.0,0.0,0.0,0.0,0.0,0.0,0.0,0.0,0.0,0.0,0.0,0.0,0.0,0.0,0.0,0.0,0.0,0.0,0.0,0.0,0.0,0.0,0.0,0.0,0.0,0.0,0.0,0.0,0.0,0.0,0.0,0.0,0.0,0.0,0.0,0.0,0.0,0.0,0.0,0.0,0.0,0.0,0.0,0.0,0.0,0.0,0.0,0.0,0.0,0.0,0.0,0.0,0.0,0.0,0.0,0.0,0.0,0.0,0.0,0.0,0.0,0.0,0.0,0.0,0.0,0.0,0.0,0.0,0.0,0.0,0.0,0.0,0.0,0.0,0.0,0.0,0.0,0.0,0.0,0.0,0.0,0.0,0.0,0.0,0.0,0.0,0.0,0.0,0.0,0.0,0.0,0.0,0.0,0.0,0.0,-3.6358,-3.6358,-3.6358,-3.6358,-3.6358,-3.6358,-3.6358,-3.6358,-3.6358,0.0,0.0,0.0,0.0,0.0,0.0,0.0,0.0,0.0,0.0,0.0,0.0,0.0,0.0,0.0,0.0,0.0,0.0,0.0,0.0,0.0,0.0,0.0,0.0,0.0,0.0,0.0,0.0,0.0,0.0,0.0,0.0,0.0,0.0,0.0,0.0,0.0,0.0,0.0,0.0,0.0,0.0,0.0,0.0,0.0,0.0,0.0,0.0,0.0,0.0,0.0,0.0,0.0,0.0,0.0,0.0,0.0,0.0,0.0,0.0,0.0,0.0,0.0,0.0,0.0,0.0,0.0,0.0,0.0,0.0,0.0,0.0,0.0,0.0,0.0,0.0,0.0,0.0,0.0,0.0,0.0,0.0,0.0,0.0,0.0,0.0,0.0,0.0,0.0,0.0,0.0,0.0,0.0,0.0,0.0,0.0,0.0,0.0,0.0,0.0,0.0,0.0,0.0,-3.6358,-3.6358,-3.6358,-3.6358,-3.6358,-3.6358,-3.6358,-3.6358,-3.6358,-3.6358,0.0,0.0,0.0,0.0,0.0,0.0,0.0,0.0,0.0,0.0,0.0,0.0,0.0,0.0,0.0,0.0,0.0,0.0,0.0,0.0,0.0,0.0,0.0,0.0,0.0,0.0,0.0,0.0,0.0,0.0,0.0,0.0,0.0,0.0,0.0,0.0,0.0,0.0,0.0,0.0,0.0,0.0,0.0,0.0,0.0,0.0,0.0,0.0,0.0,0.0,0.0,0.0,0.0,0.0,0.0,0.0,0.0,0.0,0.0,0.0,0.0,0.0,0.0,0.0,0.0,0.0,0.0,0.0,0.0,0.0,0.0,0.0,0.0,0.0,0.0,0.0,0.0,0.0,0.0,0.0,0.0,0.0,0.0,0.0,0.0,0.0,0.0,0.0,0.0,0.0,0.0,0.0,0.0,0.0,0.0,0.0,0.0,0.0,0.0,0.0,0.0,0.0,-3.6358,-3.6358,-3.6358,-3.6358,-3.6358,-3.6358,-3.6358,-3.6358,-3.6358,-3.6358,0.0,0.0,0.0,0.0,0.0,0.0,0.0,0.0,0.0,0.0,0.0,0.0,0.0,0.0,0.0,0.0,0.0,0.0,0.0,0.0,0.0,0.0,0.0,0.0,0.0,0.0,0.0,0.0,0.0,0.0,0.0,0.0,0.0,0.0,0.0,0.0,0.0,0.0,0.0,0.0,0.0,0.0,0.0,0.0,0.0,0.0,0.0,0.0,0.0,0.0,0.0,0.0,0.0,0.0,0.0,0.0,0.0,0.0,0.0,0.0,0.0,0.0,0.0,0.0,0.0,0.0,0.0,0.0,0.0,0.0,0.0,0.0,0.0,0.0,0.0,0.0,0.0,0.0,0.0,0.0,0.0,0.0,0.0,0.0,0.0,0.0,0.0,0.0,0.0,0.0,0.0,0.0,0.0,0.0,0.0,0.0,0.0,0.0,0.0,0.0,0.0,0.0,-3.6358,-3.6358,-3.6358,-3.6358,-3.6358,-3.6358,-3.6358,-3.6358,-3.6358,-3.6358,0.0,0.0,0.0,0.0,0.0,0.0,0.0,0.0,0.0,0.0,0.0,0.0,0.0,0.0,0.0,0.0,0.0,0.0,0.0,0.0,0.0,0.0,0.0,0.0,0.0,0.0,0.0,0.0,0.0,0.0,0.0,0.0,0.0,0.0,0.0,0.0,0.0,0.0,0.0,0.0,0.0,0.0,0.0,0.0,0.0,0.0,0.0,0.0,0.0,0.0,0.0,0.0,0.0,0.0,0.0,0.0,0.0,0.0,0.0,0.0,-3.9265,0.0,0.0,0.0,0.0,0.0,0.0,0.0,0.0,0.0,0.0,0.0,0.0,0.0,0.0,0.0,0.0,0.0,0.0,0.0,0.0,0.0,0.0,0.0,0.0,0.0,0.0,0.0,0.0,0.0,0.0,0.0,0.0,0.0,0.0,0.0,0.0,0.0,0.0,0.0,0.0,0.0,-3.6358,-3.6358,-3.6358,-3.6358,-3.6358,-3.6358,-3.6358,-3.6358,-3.6358,-3.6358,-3.6358,0.0,0.0,0.0,0.0,0.0,0.0,0.0,0.0,0.0,0.0,0.0,0.0,0.0,0.0,0.0,0.0,0.0,0.0,0.0,0.0,0.0,0.0,0.0,0.0,0.0,0.0,0.0,0.0,0.0,0.0,0.0,0.0,0.0,0.0,0.0,0.0,0.0,0.0,0.0,0.0,0.0,0.0,0.0,0.0,0.0,0.0,0.0,0.0,0.0,0.0,0.0,0.0,0.0,0.0,0.0,0.0,0.0,0.0,0.0,0.0,-3.9337,0.0,0.0,0.0,0.0,0.0,0.0,0.0,0.0,0.0,0.0,0.0,0.0,0.0,0.0,0.0,0.0,0.0,0.0,0.0,0.0,0.0,0.0,0.0,0.0,0.0,0.0,0.0,0.0,0.0,0.0,0.0,0.0,0.0,0.0,0.0,0.0,0.0,0.0,0.0,0.0,-3.6358,-3.6358,-3.6358,-3.6358,-3.6358,-3.6358,-3.6358,-3.6358,-3.637,-3.6181,-3.6181,0.0,0.0,0.0,0.0,0.0,0.0,0.0,0.0,0.0,0.0,0.0,0.0,0.0,0.0,0.0,0.0,0.0,0.0,0.0,0.0,0.0,0.0,0.0,0.0,0.0,0.0,0.0,0.0,0.0,0.0,0.0,0.0,0.0,0.0,0.0,0.0,0.0,0.0,0.0,0.0,0.0,0.0,0.0,0.0,0.0,0.0,0.0,0.0,0.0,0.0,0.0,0.0,0.0,-3.9424,-3.9424,-3.9424,-3.9424,-3.9424,-3.9424,-3.9424,-3.9424,-3.9424,-3.9424,0.0,0.0,0.0,0.0,0.0,0.0,0.0,0.0,0.0,0.0,0.0,0.0,0.0,0.0,0.0,0.0,0.0,0.0,0.0,0.0,0.0,0.0,0.0,0.0,-3.6358,-3.6358,0.0,0.0,0.0,0.0,0.0,0.0,0.0,0.0,0.0,0.0,0.0,0.0,-3.6358,-3.6358,-3.6358,-3.6358,-3.6358,-3.6358,-3.6358,-3.6358,-3.6275,-3.6015,-3.592,-3.5824,0.0,0.0,0.0,0.0,0.0,0.0,0.0,0.0,0.0,0.0,0.0,0.0,0.0,0.0,0.0,0.0,0.0,0.0,0.0,0.0,0.0,0.0,0.0,0.0,0.0,0.0,0.0,0.0,0.0,0.0,0.0,0.0,-3.3058,-3.4645,0.0,0.0,0.0,0.0,0.0,0.0,0.0,0.0,0.0,0.0,0.0,0.0,0.0,-3.9928,-3.9241,-3.9373,-3.9443,-3.9424,-3.9424,-3.9424,-3.9424,-3.9424,-3.9424,-3.9424,-3.9424,0.0,-3.9424,-3.9424,0.0,0.0,0.0,0.0,0.0,0.0,0.0,0.0,0.0,0.0,0.0,0.0,0.0,0.0,0.0,0.0,0.0,0.0,0.0,0.0,0.0,0.0,-3.6358,-3.6358,-3.6358,-3.6358,0.0,-3.6358,-3.6358,-3.6358,-3.6358,0.0,0.0,0.0,0.0,0.0,0.0,0.0,-3.6358,-3.6358,-3.6358,-3.6358,-3.6358,-3.6358,-3.6358,-3.6193,-3.6015,-3.6015,-3.5812,-3.562,-3.562,-3.5428,0.0,0.0,0.0,0.0,0.0,0.0,0.0,0.0,0.0,0.0,0.0,0.0,0.0,0.0,0.0,0.0,0.0,0.0,0.0,0.0,0.0,0.0,0.0,0.0,0.0,0.0,0.0,0.0,0.0,-3.2662,-3.3865,-3.5045,-3.5309,-3.5554,0.0,0.0,0.0,0.0,0.0,0.0,0.0,0.0,0.0,-3.9978,-4.0675,-4.0561,-3.9462,-3.9847,-4.0063,-4.0005,-3.9625,-3.961,-4.0021,-3.9625,-3.9424,-3.9439,-3.9813,-3.9963,-3.9948,-3.9574,-3.9634,-3.9963,0.0,0.0,0.0,0.0,-4.0421,-4.0187,-3.8658,-3.8106,0.0,-3.644,0.0,0.0,0.0,0.0,0.0,0.0,0.0,0.0,0.0,0.0,-3.6358,-3.6358,-3.6358,-3.6358,-3.6358,-3.6358,-3.6358,0.0,-3.6358,-3.6358,-3.6358,0.0,0.0,0.0,0.0,-3.6358,-3.6358,-3.6358,-3.6358,-3.6358,-3.6358,-3.637,-3.6193,-3.6098,-3.592,-3.562,-3.5416,-3.532,-3.5126,-3.503,-3.503,0.0,0.0,0.0,0.0,0.0,0.0,0.0,0.0,0.0,0.0,0.0,0.0,0.0,0.0,0.0,0.0,0.0,0.0,0.0,0.0,0.0,0.0,0.0,0.0,0.0,0.0,0.0,0.0,-3.3492,-3.438,-3.5264,-3.5424,-3.5718,0.0,0.0,0.0,0.0,0.0,0.0,-4.0702,-4.1382,-4.1387,-4.0587,-4.1525,-4.1324,-3.9791,-4.0421,-4.0668,-4.0478,-3.9753,-3.9681,-4.0216,-3.9862,-3.9664,-3.9709,-4.0367,-4.0651,-4.0606,-4.0127,-4.0217,-4.0651,-4.0651,-4.095,-4.1399,-4.135,-4.1332,-4.1018,-3.9354,-3.8792,-3.8526,-3.6942,0.0,-3.6358,-3.6358,0.0,0.0,0.0,0.0,-3.6358,-3.6358,-3.6358,-3.6358,-3.6358,-3.6358,-3.6358,-3.6358,-3.6358,-3.6358,0.0,-3.6358,-3.6358,-3.6358,0.0,0.0,0.0,0.0,-3.6358,-3.6358,-3.6358,-3.6358,-3.6275,-3.6275,-3.6181,-3.592,-3.5812,-3.562,-3.5223,-3.5126,-3.503,-3.4823,-3.4823,-3.4823,-3.4823,0.0,0.0,0.0,0.0,0.0,0.0,0.0,0.0,0.0,0.0,0.0,0.0,0.0,0.0,0.0,0.0,0.0,0.0,0.0,0.0,0.0,0.0,0.0,0.0,0.0,0.0,0.0,0.0,0.0,-3.5544,-3.5539,0.0,0.0,0.0,0.0,-3.8571,-3.9388,-4.0334,-4.1583,-4.2332,-4.2085,-4.0737,-4.2533,-4.2583,-4.069,-4.1178,-4.1127,-4.0478,-3.9753,-3.9409,-3.9511,-4.0068,-4.0352,-4.0382,-4.1055,-4.1324,-4.1324,-4.1294,-4.1309,-4.1324,-4.1324,-4.1354,-4.1459,-4.1826,-4.1814,-4.1427,-3.9953,-3.9305,-3.889,-3.6977,-3.6358,-3.6358,-3.6358,-3.6358,0.0,0.0,-3.6358,-3.6358,-3.6358,-3.6358,-3.6358,-3.6358,-3.6358,-3.6358,-3.6358,-3.6358,-3.6358,0.0,-3.6358,-3.6358,-3.6358,0.0,-3.6358,-3.6358,-3.6358,-3.6358,-3.6358,-3.6358,-3.6275,-3.6015,-3.6015,-3.5908,-3.562,-3.5416,-3.5223,-3.5223,-3.4932,-3.4823,-3.4823,-3.4823,-3.4823,-3.4823,-3.3808,0.0,0.0,0.0,0.0,0.0,0.0,0.0,0.0,0.0,0.0,0.0,0.0,0.0,0.0,0.0,0.0,0.0,0.0,0.0,0.0,0.0,0.0,0.0,0.0,0.0,0.0,0.0,0.0,-3.5539,-3.5554,0.0,-3.6415,-3.6626,-3.7515,-3.9446,-4.0248,-4.1194,-4.2462,-4.3253,-4.3406,-4.2867,-4.358,-4.3125,-4.1559,-4.2002,-4.1972,-4.1264,-4.0882,-4.0874,-4.1298,-4.1129,-4.1025,-4.107,-4.1728,-4.2013,-4.2043,-4.2462,-4.2387,-4.2013,-4.2013,-4.2267,-4.2671,-4.2817,-4.2812,-4.2524,-4.1112,-4.0232,-3.9285,-3.707,-3.6358,-3.6358,-3.6358,-3.6358,-3.6358,-3.6358,-3.6358,-3.6358,-3.6358,-3.6358,-3.6358,-3.6358,-3.6358,-3.6358,-3.6358,-3.6358,-3.6358,-3.6358,-3.6358,-3.6358,-3.6358,-3.6358,-3.6358,-3.6358,-3.6358,-3.6358,-3.6358,-3.6275,-3.6098,-3.6015,-3.5824,-3.562,-3.5332,-3.5223,-3.5126,-3.492,-3.4823,-3.4823,-3.4823,-3.4823,-3.4823,-3.4823,-3.4421,-3.3709,0.0,0.0,0.0,0.0,0.0,0.0,0.0,0.0,0.0,0.0,0.0,0.0,0.0,0.0,0.0,0.0,0.0,0.0,0.0,0.0,0.0,0.0,0.0,0.0,0.0,0.0,-3.5504,-3.5554,-3.5734,-3.6179,-3.6894,-3.7143,-3.8054,-4.0,-4.0813,-4.1748,-4.3024,-4.3755,-4.4065,-4.3822,-4.4036,-4.3678,-4.2848,-4.2865,-4.2764,-4.252,-4.1873,-4.173,-4.2145,-4.1897,-4.1713,-4.1743,-4.2402,-4.2686,-4.2716,-4.3165,-4.3075,-4.2686,-4.2686,-4.2955,-4.3329,-4.3329,-4.325,-4.2996,-4.1645,-4.0346,-3.8944,-3.7348,-3.6628,-3.6358,-3.6358,-3.6358,-3.6358,-3.6358,-3.6358,-3.6358,-3.6358,-3.6358,-3.6358,-3.6358,-3.6358,-3.6358,-3.6358,-3.6358,-3.6358,-3.6358,-3.6358,-3.6358,-3.6358,-3.6358,-3.6358,-3.6275,-3.6275,-3.6275,-3.6181,-3.6003,-3.5824,-3.5716,-3.562,-3.532,-3.5126,-3.503,-3.503,-3.4823,-3.4823,-3.4823,-3.4823,-3.4823,-3.4823,-3.4823,-3.4115,-3.3201,-3.2072,0.0,0.0,0.0,0.0,0.0,0.0,0.0,0.0,0.0,0.0,0.0,0.0,0.0,0.0,0.0,0.0,0.0,0.0,0.0,0.0,0.0,0.0,0.0,-3.3213,-3.4572,-3.5539,-3.5688,-3.626,-3.6814,-3.696,-3.7811,-3.8866,-4.0258,-4.1068,-4.2085,-4.3306,-4.3981,-4.4079,-4.3444,-4.3878,-4.4268,-4.4393,-4.3573,-4.3481,-4.4138,-4.2556,-4.1806,-4.1746,-4.2241,-4.2479,-4.2432,-4.306,-4.3329,-4.3329,-4.3329,-4.3329,-4.3329,-4.3329,-4.3329,-4.3329,-4.3329,-4.3155,-4.282,-4.1492,-3.9577,-3.7808,-3.7808,-3.7176,-3.6358,-3.6358,-3.6358,-3.6358,-3.6358,-3.6358,-3.6358,-3.6358,-3.6358,-3.6358,-3.6358,-3.6358,-3.6358,-3.6358,-3.6358,-3.6358,-3.6358,-3.6358,-3.6358,-3.6358,-3.6358,-3.6275,-3.6015,-3.6015,0.0,-3.562,-3.562,-3.5512,-3.5223,-3.5223,-3.5126,-3.4823,-3.4823,-3.4823,-3.4823,-3.4823,-3.4823,-3.4823,-3.4823,-3.4823,-3.4726,-3.27,-3.1062,-2.9922,0.0,0.0,0.0,0.0,0.0,0.0,0.0,0.0,0.0,0.0,0.0,0.0,0.0,0.0,0.0,0.0,0.0,0.0,0.0,0.0,0.0,0.0,-3.3353,-3.3891,-3.4942,-3.5653,-3.5554,-3.6371,-3.696,-3.6975,-3.8238,-3.9625,-4.1082,-4.2377,-4.3682,-4.5001,-4.5698,-4.601,-4.5818,-4.5433,-4.5077,-4.4608,-4.4171,-4.3816,-4.3572,-4.3411,-4.3272,-4.3133,-4.3235,-4.3247,-4.3075,-4.3254,-4.3329,-4.3329,-4.3329,-4.3329,-4.3329,-4.3329,-4.3329,-4.3329,-4.3329,-4.309,-4.2592,-4.1423,-4.0014,-3.8675,-3.7978,-3.7176,-3.6358,-3.6358,-3.6358,-3.6358,-3.6358,-3.6358,-3.6358,-3.6358,-3.6358,-3.6358,-3.6358,-3.6358,-3.6358,-3.6358,-3.6358,-3.6358,-3.6358,-3.6358,-3.6358,-3.6358,-3.6358,-3.6275,-3.6015,-3.6015,0.0,-3.562,-3.5428,-3.532,-3.5223,-3.503,-3.4932,-3.4835,-3.4823,-3.4823,-3.4823,-3.4823,-3.4823,-3.4823,-3.4823,-3.4421,-3.361,-3.2286,-3.1062,0.0,0.0,0.0,0.0,0.0,0.0,0.0,0.0,0.0,0.0,0.0,0.0,0.0,0.0,0.0,0.0,0.0,0.0,0.0,0.0,0.0,0.0,-3.2173,-3.3452,-3.4264,-3.5407,-3.611,-3.6009,-3.7167,-3.7943,-3.7943,-3.9054,-4.0437,-4.1901,-4.2767,-4.396,-4.5621,-4.6099,-4.633,-4.6304,-4.6242,-4.5993,-4.5565,-4.5087,-4.4881,-4.4752,-4.4235,-4.391,-4.3832,-4.3596,-4.3423,0.0,-4.3329,-4.3329,-4.3329,-4.3329,-4.3329,0.0,0.0,0.0,0.0,0.0,-4.301,-4.2607,-4.1922,-4.0617,-3.9121,-3.8599,-3.7533,-3.6358,-3.6358,-3.6358,-3.6358,-3.6358,-3.6358,-3.6358,-3.6358,-3.6358,-3.6358,-3.6358,-3.6358,-3.6358,-3.6358,-3.6358,-3.6358,-3.6358,-3.6546,0.0,-3.6626,-3.6331,-3.6193,-3.5908,-3.5716,-3.562,-3.532,-3.5126,-3.503,-3.503,-3.492,-3.4823,-3.4823,-3.4823,0.0,0.0,0.0,-3.4823,-3.4823,-3.4323,0.0,0.0,0.0,-3.0546,-2.9922,0.0,0.0,0.0,-2.8291,-2.8291,0.0,0.0,0.0,0.0,0.0,0.0,0.0,0.0,0.0,0.0,0.0,0.0,0.0,0.0,0.0,0.0,-3.2245,-3.3508,-3.4413,-3.5825,-3.6854,-3.6854,-3.8324,-3.9367,-3.9375,-4.0125,-4.1255,-4.2663,-4.2789,-4.3696,-4.5689,0.0,0.0,0.0,0.0,-4.665,-4.6673,-4.5969,-4.5897,-4.6534,-4.4843,-4.3988,-4.3988,-4.3581,-4.3329,-4.3329,-4.3329,-4.3329,-4.3329,-4.3329,-4.3329,-4.3329,-4.3329,-4.3329,-4.3329,-4.325,-4.301,-4.2688,-4.2688,0.0,0.0,-3.921,-3.7965,-3.6358,-3.6358,-3.6358,-3.6358,-3.6358,-3.6358,-3.637,-3.6433,-3.6458,-3.6471,-3.6533,-3.6546,-3.6546,-3.6546,-3.6546,-3.6546,-3.6546,-3.6948,-3.719,-3.6922,-3.6525,-3.6093,-3.5805,-3.5454,-3.5211,-3.4919,-3.4871,-3.4847,-3.4907,0.0,0.0,-3.5004,-3.5004,-3.498,-3.4919,-3.4859,-3.4823,-3.4823,-3.3918,-3.33,-3.3201,-3.1154,-3.0026,-2.9922,-2.8804,-2.831,-2.8359,-2.831,-2.8291,0.0,0.0,0.0,0.0,0.0,0.0,0.0,0.0,0.0,0.0,0.0,0.0,0.0,0.0,0.0,-3.0898,-3.2245,-3.3508,-3.4413,-3.636,-3.7764,-3.7764,-3.8748,-3.9603,-4.0086,-4.0916,-4.193,-4.3337,-4.3959,-4.4724,-4.5666,-4.6285,-4.6608,-4.6601,-4.6115,-4.5913,-4.5913,-4.5216,-4.4858,-4.4993,0.0,0.0,-4.3988,-4.3754,-4.3518,-4.3329,-4.3329,-4.3329,-4.3329,-4.3329,-4.3329,-4.3329,-4.3329,-4.3329,-4.325,-4.3155,-4.293,-4.2688,-4.2541,-4.1057,-3.921,-3.921,-3.7965,-3.6358,-3.6358,-3.6358,0.0,-3.6358,-3.6358,-3.6458,-3.691,-3.7023,-3.7136,-3.7575,-3.7688,-3.7688,-3.7688,-3.7688,-3.7688,-3.7688,-3.7776,-3.7753,-3.7481,-3.7394,-3.7122,-3.6612,-3.6147,-3.5769,-3.5461,-3.5088,-3.4992,-3.5425,-3.5473,-3.5641,-3.6062,-3.6098,-3.5918,-3.5485,-3.5064,-3.4823,-3.4823,-3.4628,-3.4115,-3.3201,-3.1982,-3.0856,-2.9922,-2.8804,-2.8467,-2.8789,-2.8447,-2.8291,0.0,0.0,0.0,0.0,0.0,0.0,0.0,0.0,0.0,0.0,0.0,-2.9431,0.0,0.0,-3.052,-3.0898,-3.2563,-3.4172,-3.5011,-3.7159,-3.8681,-3.8681,-3.9787,-4.0624,-4.0892,-4.1623,-4.2643,-4.4047,-4.4125,-4.4741,-4.6193,-4.6271,-4.6253,-4.6253,-4.6253,-4.604,-4.5697,-4.5348,-4.5142,-4.5142,-4.4496,-4.4143,-4.3988,-4.3675,-4.3423,-4.3329,-4.3329,-4.3329,-4.3359,-4.3688,-4.3823,-4.3853,-4.4182,-4.3913,-4.325,-4.317,-4.293,-4.2688,-4.2622,-4.1043,-3.921,-3.921,-3.7965,-3.6358,-3.6358,-3.6558,-3.6772,-3.6772,-3.6973,-3.7249,-3.7525,-3.76,-3.7663,-3.7939,-3.8002,-3.8002,-3.8002,-3.8002,-3.8002,-3.8002,-3.8241,-3.8342,-3.7839,-3.8061,-3.7857,-3.6901,-3.6484,-3.6114,-3.6014,-3.5785,-3.5713,-3.5978,-3.6014,-3.6122,-3.6386,-3.6411,-3.629,-3.6026,-3.5761,-3.5497,-3.5232,-3.4703,-3.4193,-3.3579,-3.2552,-3.1535,-3.0605,-3.0089,-2.9679,-2.9238,-2.9023,-2.8935,0.0,0.0,0.0,0.0,0.0,0.0,0.0,0.0,-2.6166,-2.7321,-2.8746,-2.9934,-3.0292,-3.0368,-3.0559,-3.1055,-3.2891,-3.461,-3.5754,-3.7827,-3.936,-3.9719,-4.0854,-4.1694,-4.1955,-4.2479,-4.334,-4.4614,-4.4111,-4.4564,-4.6292,-4.5841,-4.5494,-4.5494,-4.604,-4.6127,-4.5494,-4.5494,-4.5494,-4.5494,-4.4496,-4.3988,-4.3988,-4.3503,-4.3404,-4.3524,-4.3658,-4.3718,-4.3748,-4.4287,-4.4511,-4.4556,-4.5095,-4.4646,-4.3718,-4.3718,-4.3397,-4.3057,-4.2878,-4.1398,-3.9563,-3.928,-3.8109,-3.6684,-3.6684,-3.6998,-3.7349,-3.7349,-3.7663,-3.804,-3.814,-3.8165,-3.8203,-3.8316,-3.8329,-3.8329,-3.8329,-3.8329,-3.8329,-3.8329,-3.8705,-3.8816,-3.8292,-3.8546,-3.8442,-3.7254,-3.6729,-3.6555,-3.6555,-3.6471,-3.6447,-3.6543,-3.6555,-3.6603,-3.6699,-3.6615,-3.6555,-3.6555,-3.6459,-3.6218,-3.5785,-3.4933,-3.4516,-3.4516,-3.3157,-3.2295,-3.1713,-3.1288,-3.058,-2.9687,-2.9687,-2.9648,-1.862,-1.9434,-2.0267,-2.05,-2.0967,-2.1928,0.0,0.0,-2.6268,-2.8021,-2.916,-2.9934,-3.0292,-3.0368,-3.0688,-3.1589,-3.2533,-3.3974,-3.6194,-3.7828,-3.9454,-4.1137,-4.1509,-4.2063,-4.3233,-4.3417,-4.3815,-4.4553,-4.454,-4.4571,-4.4858,-4.4799,-4.4723,-4.4723,-4.4783,-4.4783,-4.4723,-4.4723,-4.4723,-4.4723,-4.4205,-4.3988,-4.3988,-4.3503,-4.3643,-4.4242,-4.4825,-4.508,-4.508,-4.5155,-4.5185,-4.52,-4.5274,-4.5214,-4.508,-4.508,-4.4816,-4.4229,-4.3401,-4.2055,-4.0626,-3.9664,-3.864,-3.7826,-3.7826,-3.7864,-3.7914,-3.7914,-3.7952,-3.8128,-3.8642,-3.8781,-3.8894,-3.9383,-3.9509,-3.9509,-3.9509,-3.9509,-3.9509,-3.9509,-3.9559,-3.939,-3.8859,-3.8804,-3.8594,-3.7935,-3.7409,-3.7108,-3.7108,-3.6699,-3.6579,-3.7048,-3.7108,-3.7288,-3.7769,-3.7372,-3.7108,-3.7108,-3.6663,-3.6374,-3.6314,-3.6213,-3.6099,-3.6099,-3.408,-3.294,-3.2781,-3.075,-2.9868,-3.0127,-3.0127,-2.9932,-1.9129,-1.9724,-2.0235,0.0,-2.1729,-2.2822,-2.4156,-2.5795,-2.7289,-2.8255,-2.9209,-2.9934,-3.0292,-3.0368,-3.0701,0.0,-3.2841,-3.4375,-3.6336,-3.8237,-4.0142,-4.195,-4.2525,-4.2956,-4.3525,-4.3925,-4.4279,-4.4556,-4.4572,-4.4572,-4.4572,-4.4572,-4.4572,-4.4572,-4.4572,-4.4572,-4.4572,-4.4572,-4.4511,-4.4435,-4.4523,-4.447,-4.4312,-4.4464,-4.4631,-4.49,-4.517,-4.5289,-4.5334,-4.5723,-4.5888,-4.5933,-4.6322,-4.6456,-4.6367,-4.5589,-4.504,-4.4435,-4.3429,-4.2175,-4.0829,-3.9754,-3.8736,-3.8002,-3.8002,-3.8241,-3.8504,-3.8504,-3.8743,-3.9044,-3.9283,-3.9346,-3.9408,-3.9634,-3.9697,-3.9697,-3.9697,-3.9697,-3.9697,-3.9697,-3.9581,-3.9374,-3.8841,-3.8631,-3.8409,-3.8092,-3.7793,-3.7649,-3.7649,-3.7457,-3.7409,-3.7625,-3.7649,-3.7745,-3.7962,-3.7781,-3.7649,-3.7649,-3.7445,-3.718,-3.6879,-3.6867,-3.6867,-3.6867,-3.5887,-3.496,-3.3835,-3.2855,-3.1748,-3.0605,-3.0605,-3.0508,-1.9679,0.0,0.0,-2.1527,-2.2755,-2.3918,-2.4481,-2.6051,-2.7637,-2.8291,-2.8961,-2.9611,-3.0292,-3.0496,-3.0933,-3.1902,-3.3218,-3.4816,-3.6864,-3.8745,-4.0651,-4.2625,-4.3448,-4.3848,-4.3848,-4.4295,-4.4572,-4.4572,-4.4572,-4.4572,-4.4572,-4.4572,-4.4572,-4.4572,-4.4572,-4.4572,-4.4572,-4.4756,-4.4788,-4.4572,-4.5008,-4.5167,-4.4911,-4.5342,-4.5589,-4.5589,-4.5768,-4.5843,-4.5888,-4.6396,-4.6591,-4.6636,-4.7115,-4.7309,-4.7189,-4.6117,-4.5505,-4.4978,-4.3667,-4.2495,-4.1315,-3.9881,-3.9025,-3.8467,-3.8467,-3.8768,-3.9094,-3.9094,-3.9383,-3.9697,-3.9697,-3.9697,-3.9697,-3.9697,-3.9697,-3.9697,-3.9697,-3.9697,-3.9697,-3.9697,-3.9581,-3.927,-3.8841,-3.8631,-3.8409,-3.8092,-3.7986,-3.7986,-3.7986,-3.7986,-3.7986,-3.7986,-3.7986,-3.7986,-3.7986,-3.7986,-3.7986,-3.7986,-3.7986,-3.7805,-3.7433,-3.7409,-3.7409,-3.7409,-3.6755,-3.5733,-3.4447,-3.3786,-3.2561,-3.0889,-3.0889,-3.0889,0.0,0.0,-2.2516,-2.28,-2.3978,-2.5084,-2.4808,-2.5724,-2.6812,-2.7891,-2.8303,-2.8937,-3.0203,-3.0817,-3.1525,-3.2489,-3.3396,-3.4941,-3.8012,-3.9225,-4.0753,-4.3284,-4.4141,-4.4556,0.0,-4.4572,-4.4572,-4.4572,-4.4572,-4.4572,-4.4572,-4.4572,-4.4572,-4.4572,-4.4572,-4.4572,-4.4572,-4.5234,-4.5479,-4.526,-4.5788,-4.5849,-4.5604,-4.6062,-4.6292,-4.6337,-4.6965,-4.7249,-4.7249,-4.7264,-4.7279,-4.7279,-4.7294,-4.7309,-4.7294,-4.6974,-4.6697,-4.624,-4.4214,-4.3177,-4.2447,-4.0313,-3.9647,-3.9647,-3.9647,-3.9647,-3.9672,-3.9672,-3.9685,-3.9697,-3.9697,-3.9697,-3.9697,-3.9697,-3.9697,-3.9697,-3.9697,-3.9697,-3.9697,-3.9697,-3.9685,-3.9478,-3.8945,-3.8736,-3.8631,-3.8092,-3.7986,-3.7986,-3.7986,-3.7986,-3.7986,-3.7986,-3.7986,-3.7986,-3.7986,-3.7986,-3.7986,-3.7986,-3.7986,-3.7974,-3.7962,-3.7962,-3.7962,-3.7962,-3.564,-3.4436,-3.4447,-3.2123,-3.1005,-3.0889,-3.0889,-3.0889,-2.0135,0.0,-2.3281,-2.2755,-2.4033,-2.5411,-2.5641,-2.6472,-2.7545,-2.8688,-2.9015,-2.9328,-3.0203,-3.083,-3.1551,-3.2515,-3.3275,-3.4593,-3.7254,-3.8794,-4.0377,-4.2453,-4.3838,0.0,0.0,0.0,0.0,-4.4572,-4.4572,-4.4572,-4.4572,-4.4572,-4.4572,-4.4572,-4.5018,-4.5249,-4.5249,-4.5769,-4.5948,-4.5803,-4.6079,-4.6371,-4.6706,-4.686,-4.698,-4.6995,-4.7204,-4.7309,-4.7309,-4.7309,-4.7309,-4.7309,-4.7309,-4.7309,-4.7309,-4.7019,-4.6756,-4.6403,-4.4869,-4.364,-4.2598,-4.1132,-4.0275,-3.9697,-3.9697,-3.9697,-3.9697,-3.9697,-3.9697,-3.9697,-3.9697,-3.9697,-3.9697,-3.9697,-3.9697,-3.9697,-3.9697,-3.9697,-3.9697,-3.9697,-3.9581,-3.927,-3.8841,-3.8631,-3.8409,-3.8092,-3.7986,-3.7986,-3.7986,-3.7986,-3.7986,-3.7986,-3.7986,-3.7986,-3.7986,-3.7986,-3.7986,-3.7986,-3.7986,-3.7986,-3.7986,-3.7986,-3.7986,-3.7986,-3.6449,-3.5234,-3.4447,-3.2903,-3.1682,-3.0889,-3.0889,-3.0889,-2.1295,-2.2899,-2.4126,-2.373,-2.4893,-2.6163,-2.6472,-2.673,-2.7476,-2.8949,-2.8846,-2.8846,-3.0062,-3.0996,-3.1782,-3.2475,-3.3616,-3.5152,-3.7222,-3.8746,-4.0343,-4.241,-4.3514,-4.4251,0.0,0.0,0.0,-4.4572,-4.4572,-4.4572,-4.4572,-4.4572,-4.4695,-4.4926,-4.5357,-4.5711,-4.5942,-4.6379,-4.661,-4.6607,-4.6641,-4.689,-4.7309,-4.7309,-4.7309,-4.7309,-4.7309,-4.7309,-4.7309,-4.7309,-4.7309,-4.7309,-4.7309,-4.7207,-4.7121,-4.6844,-4.6388,-4.5732,-4.4577,-4.3545,-4.2585,-4.1132,-4.0275,-3.9697,-3.9697,-3.9697,-3.9697,-3.9697,-3.9697,-3.9697,-3.9697,-3.9697,-3.9697,-3.9697,-3.9697,-3.9697,-3.9697,-3.9697,-3.9697,-3.9697,-3.9478,-3.9154,-3.8841,-3.8526,-3.8198,-3.7986,-3.7986,-3.7986,-3.7986,-3.7986,-3.7986,-3.7986,-3.7986,-3.7986,-3.7986,-3.7986,-3.7986,-3.7986,-3.7986,-3.7986,-3.7986,-3.7986,-3.7986,-3.7986,-3.6437,-3.5234,-3.4447,-3.2789,-3.1672,-3.0889,-3.0889,-3.0889,-2.3062,-2.4251,-2.5115,-2.5684,-2.6517,-2.7103,-2.7185,-2.6599,-2.6682,-2.8724,-2.7891,-2.7557,0.0,0.0,-3.2127,-3.2419,-3.441,-3.6475,-3.7938,-3.9047,-4.0567,0.0,0.0,0.0,0.0,0.0,0.0,-4.4572,0.0,-4.4572,-4.4572,-4.4618,-4.4926,-4.5572,-4.5649,-4.6003,-4.6634,-4.7084,-4.741,-4.7538,-4.7381,-4.7309,-4.7309,-4.7309,-4.7309,-4.7309,-4.7309,-4.7309,-4.7309,-4.7309,-4.7309,-4.7309,-4.7309,-4.7121,-4.6844,-4.6668,-4.5837,-4.4591,-4.3422,-4.2944,-4.2404,-4.0465,-3.9685,-3.9697,-3.9697,-3.9697,-3.9697,-3.9697,-3.9697,-3.9697,-3.9697,-3.9697,-3.9697,-3.9697,-3.9697,-3.9697,-3.9697,-3.9697,-3.9697,-3.9697,-3.9478,-3.9154,-3.8841,-3.8409,-3.7986,-3.7986,-3.7986,-3.7986,-3.7986,-3.7986,-3.7986,-3.7986,-3.7986,-3.7986,-3.7986,-3.7986,-3.7986,-3.7986,-3.7986,-3.7986,-3.7986,-3.7986,-3.7986,-3.788,-3.5553,-3.4336,-3.4336,-3.2008,-3.0889,-3.0889,-3.0889,-3.0889,-2.3186,-2.4639,-2.5935,-2.5253,-2.5432,-2.5946,-2.6928,-2.6008,-2.5746,-2.8554,-2.8303,-2.8158,0.0,0.0,0.0,-3.2868,-3.4353,0.0,-3.7093,-3.8402,0.0,-4.2068,0.0,-4.36,-4.4496,-4.4572,0.0,0.0,-4.4572,-4.4572,-4.4572,-4.5049,-4.5403,-4.5588,-4.6573,-4.7173,-4.7342,-4.7705,-4.7628,-4.7396,-4.7309,-4.7309,-4.7309,-4.7309,-4.7309,-4.7309,-4.7309,-4.7309,-4.7309,-4.7309,-4.7309,-4.7309,-4.7309,-4.7121,-4.6844,-4.6668,-4.5837,-4.4499,-4.3259,-4.2293,-4.1518,-4.1032,-4.0262,-3.9697,-3.9697,-3.9697,-3.9697,-3.9697,-3.9697,-3.9697,-3.9697,-3.9697,-3.9697,-3.9697,-3.9697,-3.9697,-3.9697,-3.9697,-3.9697,-3.9697,-3.927,-3.8945,-3.8841,-3.8409,-3.7986,-3.7986,-3.7986,-3.7986,-3.7986,-3.7986,-3.7986,-3.7986,-3.7986,-3.7986,-3.7986,-3.7986,-3.7986,-3.7986,-3.7986,-3.7986,-3.7986,-3.7986,-3.7548,-3.6677,-3.5113,-3.4011,-3.313,-3.1682,-3.0889,-3.0889,-3.0889,-3.0889,-2.448,-2.5495,-2.6445,-2.6196,-2.6279,-2.6622,-2.7603,-2.667,-2.6396,-2.8947,-2.8742,0.0,-3.0741,0.0,0.0,0.0,0.0,0.0,-3.6817,-3.806,-3.954,0.0,-4.2208,0.0,-4.3927,-4.4419,-4.4572,0.0,-4.4572,-4.471,-4.5003,-4.5387,-4.5865,-4.6449,-4.7219,-4.7676,-4.7803,-4.7782,-4.7639,-4.7309,-4.7309,-4.7309,-4.7309,-4.7309,-4.7459,-4.7743,0.0,-4.7893,-4.8162,-4.8162,-4.8162,-4.8162,-4.8162,-4.797,-4.7599,-4.7435,-4.6281,-4.4539,-4.386,-4.2584,-4.1209,-4.0708,-4.0173,-3.9697,-3.9697,-3.9697,-3.9697,-3.9697,-3.9697,-3.9697,-3.9697,-3.9697,-3.9697,-3.9697,-3.9697,-3.9697,-3.9697,-3.9697,-3.9697,-3.9581,-3.9258,-3.8945,-3.8631,-3.8409,-3.8092,-3.7986,-3.7986,-3.7986,-3.7986,-3.7986,-3.7986,-3.7986,-3.7986,-3.7986,-3.7986,-3.7986,-3.7986,-3.7986,-3.7986,-3.7986,-3.7986,-3.7986,-3.7655,-3.7,-3.5333,-3.4112,-3.3459,-3.1672,-3.0889,-3.0889,-3.0889,-3.0889,-2.6174,-2.6599,-2.6775,-2.7719,-2.78,-2.7869,-2.8351,-2.7812,-2.7649,-2.9626,0.0,-2.9249,-3.1141,-3.2301,-3.2905,-3.2969,0.0,-3.6571,-3.6857,-3.802,-3.9326,-4.0432,-4.1463,-4.2304,-4.3205,-4.4173,-4.471,-4.471,-4.4803,-4.5064,-4.5557,-4.5757,-4.6434,-4.7696,-4.7742,-4.7773,-4.7964,-4.7709,-4.7467,-4.7309,-4.7309,-4.7309,-4.7309,-4.7399,-4.7743,-4.8282,-4.8371,0.0,-4.9269,-4.9269,-4.9269,-4.9269,-4.9269,-4.8983,-4.8525,-4.8311,-4.669,-4.4561,-4.4441,-4.3075,-4.1109,-4.0224,-3.991,-3.991,-3.991,-3.986,-3.9798,-3.9798,-3.9747,-3.9697,-3.9697,-3.9697,-3.9697,-3.9697,-3.9697,-3.9697,-3.9697,-3.9697,-3.9581,-3.9374,-3.9362,-3.9154,-3.8514,-3.8409,-3.8303,-3.8092,-3.7986,-3.7986,-3.7986,-3.7986,-3.7986,-3.7986,-3.7986,-3.7986,-3.7986,-3.7986,-3.7986,-3.7986,-3.7986,-3.7986,-3.7986,-3.7986,-3.7868,-3.7536,-3.5443,-3.4224,-3.3888,-3.1893,-3.0889,-3.0889,-3.0889,-3.0889,-2.701,-2.7103,-2.7185,-2.78,-2.729,-2.7033,-2.8259,-2.7577,0.0,0.0,-2.9617,-2.9797,-3.1714,-3.2555,-3.3034,-3.3495,0.0,0.0,0.0,0.0,-3.91,0.0,0.0,0.0,0.0,0.0,0.0,0.0,0.0,-4.6049,-4.5603,-4.665,-4.7619,-4.8419,-4.8285,-4.8095,-4.7964,-4.7709,-4.7467,-4.7309,-4.7309,-4.7309,-4.7324,-4.7863,-4.8177,-4.8312,-4.8865,0.0,-4.9269,-4.9269,-4.9269,-4.9269,-4.9269,-4.8983,-4.8418,-4.7398,-4.6008,-4.4425,-4.3508,-4.2352,-4.1314,-4.1059,-4.1053,-4.1053,-4.1053,-4.0739,-4.0375,-4.0375,-4.0049,-3.9697,-3.9697,-3.9697,-3.9697,-3.9697,-3.9697,-3.9697,-3.9697,-3.9697,-3.9697,-3.9594,-3.9478,-3.9154,-3.8841,-3.8526,-3.8303,-3.8092,-3.7986,-3.7986,-3.7986,-3.7986,-3.7986,-3.7986,-3.7986,-3.7986,-3.7986,-3.7986,-3.7986,-3.7986,-3.7986,-3.7986,-3.7986,-3.7986,-3.7096,-3.5113,-3.467,-3.3448,-3.1556,-3.1112,-3.0889,-3.0889,-3.0889,-3.0889,-2.7534,-2.7534,-2.7766,-2.8454,-2.8257,-2.8234,-2.9092,0.0,0.0,0.0,-3.0735,-3.1137,-3.2384,0.0,0.0,0.0,0.0,0.0,0.0,0.0,0.0,0.0,0.0,0.0,0.0,0.0,0.0,0.0,0.0,-4.6973,-4.6665,-4.7588,-4.8199,-4.8453,-4.8218,-4.8049,-4.7794,-4.7553,-4.7381,-4.7309,-4.7309,-4.7489,-4.7833,-4.8132,-4.8656,-4.9329,-4.9643,0.0,-5.0287,-5.0287,-5.0287,-5.0272,-5.0179,-4.9498,-4.86,-4.7881,-4.6345,-4.4595,-4.4046,-4.3079,-4.2198,-4.2221,-4.1806,-4.1342,-4.1342,-4.1153,-4.089,-4.0601,-4.0325,-4.0061,-3.9772,-3.9697,-3.9697,-3.9697,-3.9697,-3.9697,-3.9697,-3.9697,-3.9697,-3.9697,-3.9478,-3.9154,-3.8841,-3.8631,-3.8303,-3.8092,-3.7986,-3.7986,-3.7986,-3.7986,-3.7986,-3.7986,-3.7986,-3.7986,-3.7986,-3.7986,-3.7986,-3.7986,-3.7986,-3.7986,-3.7986,-3.7986,-3.7429,-3.6317,-3.5002,-3.3899,-3.2664,-3.145,-3.0889,-3.0889,-3.0889,-3.0889,-2.795,-2.8125,-2.8383,-2.9114,-2.9388,-2.9569,-3.0073,-3.041,0.0,0.0,-3.1918,-3.2287,-3.2993,0.0,0.0,0.0,0.0,0.0,0.0,0.0,0.0,0.0,0.0,0.0,0.0,0.0,0.0,0.0,0.0,0.0,-4.7819,-4.8327,-4.8537,-4.8286,-4.8133,-4.788,-4.7624,-4.7381,-4.7309,-4.7309,-4.7309,-4.7653,-4.8282,-4.8431,-4.9134,-5.0242,-5.0391,0.0,0.0,-5.1214,-5.1214,-5.1214,-5.0902,-4.9999,-4.8696,-4.8181,-4.664,-4.4676,-4.4414,-4.3725,-4.2974,-4.2974,-4.2396,-4.1693,-4.1693,-4.1605,-4.1404,-4.0852,-4.0614,-4.0388,-3.9835,-3.9697,-3.9697,-3.9697,-3.9697,-3.9697,-3.9697,-3.9697,-3.9697,-3.9697,-3.9478,-3.9154,-3.8841,-3.8631,-3.8303,-3.8092,-3.7986,-3.7986,-3.7986,-3.7986,-3.7986,-3.7986,-3.7986,-3.7986,-3.7986,-3.7986,-3.7986,-3.7986,-3.7986,-3.7986,-3.7986,-3.7986,-3.7761,-3.7203,-3.5333,-3.4112,-3.3674,-3.1777,-3.0889,-3.0889,-3.0889,-3.0889,-2.8431,-2.8778,-2.915,-2.9292,-2.9665,-3.0109,-3.0301,0.0,0.0,-3.1806,-3.2301,-3.2747,-3.3068,0.0,0.0,0.0,0.0,-3.6393,0.0,0.0,0.0,0.0,0.0,0.0,0.0,0.0,0.0,0.0,0.0,0.0,-4.8527,-4.8573,-4.8537,-4.8286,-4.8133,-4.788,-4.7624,-4.7381,-4.7309,-4.7309,-4.7309,-4.7653,-4.8312,-4.8895,-4.9568,-5.0272,-5.087,0.0,0.0,-5.1214,-5.1214,-5.1214,-5.0902,-4.9999,-4.8596,-4.7355,-4.591,-4.4568,-4.3564,-4.3085,-4.2974,-4.2974,-4.2911,-4.2823,-4.2823,-4.2472,-4.1969,-4.1417,-4.0902,-4.0388,-3.9835,-3.9697,-3.9697,-3.9697,-3.9697,-3.9697,-3.9697,-3.9697,-3.9697,-3.9697,-3.9478,-3.9154,-3.8841,-3.8631,-3.8303,-3.8092,-3.7986,-3.7986,-3.7986,-3.7986,-3.7986,-3.7986,-3.7986,-3.7986,-3.7986,-3.7986,-3.7986,-3.7986,-3.7986,-3.7986,-3.7986,-3.7986,-3.6989,-3.4781,-3.4558,-3.3335,-3.1228,-3.1005,-3.0889,-3.0889,-3.0889,-3.0889,-2.8817,-2.9446,-2.9999,-3.0242,-3.0664,-3.1089,-3.1308,0.0,0.0,-3.2302,-3.266,-3.2982,-3.3068,0.0,0.0,0.0,0.0,0.0,0.0,0.0,0.0,0.0,0.0,0.0,0.0,0.0,0.0,0.0,0.0,0.0,-4.7734,-4.8256,-4.8453,-4.8133,-4.8049,-4.7794,-4.7381,-4.7309,-4.7309,-4.7309,-4.7713,-4.8237,-4.8895,-4.9553,-5.0212,-5.084,-5.1109,0.0,0.0,-5.1214,-5.1214,-5.112,-5.0013,-4.8865,-4.7633,-4.6018,-4.4725,-4.3636,-4.3172,-4.2974,-4.2974,-4.2974,-4.2974,-4.2974,-4.2974,-4.2823,-4.2472,-4.158,-4.1178,-4.0802,-3.9923,-3.9697,-3.9697,-3.9697,-3.9697,-3.9697,-3.9697,-3.9697,-3.9697,-3.9697,-3.9531,-3.9183,-3.8828,-3.8631,-3.8303,-3.8092,-3.7986,-3.7986,-3.7986,-3.7986,-3.7986,-3.7986,-3.7986,-3.7986,-3.7986,-3.7986,-3.7986,-3.7986,-3.7986,-3.7986,-3.7986,-3.7986,-3.7215,-3.5564,-3.4781,-3.3561,-3.2018,-3.1228,-3.0889,-3.0889,-3.0889,-3.0889,-2.9508,-3.0238,-3.0821,-3.104,-3.1443,-3.1921,0.0,0.0,0.0,-3.2797,-3.2982,-3.3131,-3.3294,0.0,0.0,0.0,0.0,-3.7153,0.0,0.0,0.0,0.0,0.0,0.0,0.0,0.0,0.0,0.0,0.0,0.0,0.0,-4.7276,-4.7734,-4.7964,-4.788,-4.7709,-4.7309,-4.7309,-4.7309,-4.7309,-4.7967,-4.8626,-4.9284,-4.9942,-5.0601,-5.1214,-5.1214,0.0,0.0,-5.1214,-5.1011,-5.0618,-4.9303,-4.7951,-4.6501,-4.5195,-4.3932,-4.2974,-4.2974,-4.2974,-4.2974,-4.2974,-4.2974,-4.2949,-4.2785,-4.2735,-4.2534,-4.1605,-4.1103,-4.0676,-3.9898,-3.9697,-3.9697,-3.9697,-3.9697,-3.9697,-3.9697,-3.9697,-3.9697,-3.9697,-3.9519,-3.9183,-3.9037,-3.8619,-3.8303,-3.8198,-3.8092,-3.7986,-3.7986,-3.7986,-3.7986,-3.7986,-3.7986,-3.7986,-3.7986,-3.7986,-3.7986,-3.7986,-3.7986,-3.7986,-3.7986,-3.7986,-3.7215,-3.5674,-3.4781,-3.3674,-3.2123,-3.1334,-3.0889,-3.0889,-3.0889,-3.0889,-3.0467,-3.1146,-3.1577,-3.1589,-3.1994,-3.2463,0.0,0.0,-3.281,-3.3068,-3.3081,-3.3244,-3.3796,-3.4248,0.0,0.0,0.0,0.0,0.0,0.0,0.0,0.0,0.0,0.0,0.0,0.0,0.0,0.0,0.0,0.0,0.0,-4.5403,-4.6226,-4.7964,-4.7709,-4.7467,-4.7309,-4.7309,-4.7309,-4.7309,-4.7967,-4.8626,-4.9284,-4.9942,-5.0601,0.0,0.0,0.0,0.0,-5.1214,-5.0618,-4.9513,-4.9007,-4.7457,-4.5395,-4.4886,-4.3932,-4.2974,-4.2974,-4.2974,-4.2974,-4.2974,-4.2974,-4.2873,-4.2333,-4.2158,-4.2045,-4.1492,-4.0551,-3.971,-3.9697,-3.9697,-3.9697,-3.9697,-3.9697,-3.9697,-3.9697,-3.9697,-3.9697,-3.9697,-3.9478,-3.9258,-3.9258,-3.8841,-3.8409,-3.8409,-3.8198,-3.7986,-3.7986,-3.7986,-3.7986,-3.7986,-3.7986,-3.7986,-3.7986,-3.7986,-3.7986,-3.7986,-3.7986,-3.7986,-3.7986,-3.7986,-3.6869,-3.4447,-3.4447,-3.3222,-3.0889,-3.0898,-3.0889,-3.0889,-3.0889,-3.0889,-3.087,-3.1797,-3.2302,-3.2228,-3.2525,-3.2822,-3.2723,0.0,-3.3095,-3.3558,-3.3633,-3.3897,-3.4552,-3.5315,0.0,0.0,0.0,0.0,0.0,0.0,0.0,0.0,0.0,0.0,0.0,0.0,0.0,0.0,0.0,0.0,0.0,-4.4549,-4.5101,-4.566,-4.557,-4.5494,-4.525,-4.525,-4.525,-4.525,-4.6311,-4.7319,-4.8341,-4.9333,-5.033,0.0,0.0,0.0,0.0,-5.1214,-5.0618,-4.9513,-4.8153,-4.6723,-4.5289,-4.4042,-4.3295,-4.2974,-4.2974,-4.2974,-4.2974,-4.2974,-4.2723,-4.2384,-4.2208,-4.2158,-4.1969,-4.104,-4.0249,-3.9697,-3.9697,-3.9697,-3.9697,-3.9697,-3.9697,-3.9697,-3.9697,-3.9697,-3.9697,-3.9697,-3.9581,-3.9556,-3.9378,-3.8896,-3.8631,-3.8409,-3.8198,-3.7986,-3.7986,-3.7986,-3.7986,-3.7986,-3.7986,-3.7986,-3.7986,-3.7986,-3.7986,-3.7986,-3.7986,-3.7986,-3.7986,-3.7986,-3.7215,-3.5674,-3.4781,-3.3674,-3.2123,-3.1344,-3.0889,-3.0889,-3.0889,-3.0889,0.0,-3.2462,-3.281,-3.2736,-3.2909,0.0,0.0,0.0,-3.3545,-3.4098,-3.4211,-3.4387,-3.512,-3.5863,0.0,0.0,0.0,0.0,0.0,0.0,0.0,0.0,0.0,0.0,0.0,0.0,0.0,0.0,0.0,0.0,0.0,-4.3259,-4.345,-4.3355,-4.4097,-4.4392,-4.4312,-4.4312,-4.4312,-4.4326,-4.5549,-4.6732,-4.7861,-4.9045,-4.9917,0.0,0.0,0.0,0.0,-4.9999,-4.9401,-4.8296,-4.7033,-4.5807,-4.4683,-4.3517,-4.2974,-4.2974,-4.2974,-4.2974,-4.2974,-4.2974,-4.2459,-4.1806,-4.1605,-4.153,-4.1354,-4.045,-3.9961,-3.9697,-3.9697,-3.9697,-3.9697,-3.9697,-3.9697,-3.9697,-3.9697,-3.9697,-3.9697,-3.9697,-3.9697,-3.9672,-3.9506,-3.9117,-3.8736,-3.8631,-3.8198,-3.7986,-3.7986,-3.7986,-3.7986,-3.7986,-3.7986,-3.7986,-3.7986,-3.7986,-3.7986,-3.7986,-3.7986,-3.7986,-3.7986,-3.7986,-3.7429,-3.6231,-3.5002,-3.3786,-3.2685,-3.145,-3.0889,-3.0889,-3.0889,-3.0889,0.0,-3.3081,0.0,0.0,0.0,0.0,0.0,0.0,0.0,-3.4663,-3.4776,-3.4951,-3.5504,-3.6065,0.0,0.0,0.0,0.0,0.0,0.0,0.0,0.0,0.0,0.0,0.0,0.0,0.0,0.0,0.0,0.0,0.0,-4.1696,-4.1597,-4.1311,-4.3095,-4.4125,-4.4125,-4.4125,-4.4125,-4.4139,-4.5218,-4.6373,-4.7507,-4.8721,-4.93,0.0,0.0,0.0,0.0,-4.7979,-4.7383,-4.6374,-4.5728,-4.4804,-4.3789,-4.3209,-4.2974,-4.2974,-4.2974,-4.2974,-4.2974,-4.2886,-4.2145,-4.1178,-4.0626,-4.0463,-4.035,-3.9835,-3.9697,-3.9697,-3.9697,-3.9697,-3.9697,-3.9697,-3.9697,-3.9697,-3.9697,-3.9697,-3.9697,-3.9697,-3.9697,-3.9697,-3.9697,-3.9166,-3.8841,-3.8736,-3.8303,-3.7986,-3.7986,-3.7986,-3.7986,-3.7986,-3.7986,-3.7986,-3.7986,-3.7986,-3.7986,-3.7986,-3.7986,-3.7986,-3.7986,-3.7986,-3.7429,-3.6231,-3.4902,-3.3674,-3.2571,-3.146,-3.0889,-3.0889,-3.0889,-3.0889,-3.1625,0.0,-3.3181,-3.3608,-3.3709,-3.3847,0.0,0.0,-3.4688,-3.524,0.0,-3.5609,-3.6536,0.0,0.0,0.0,0.0,0.0,0.0,0.0,0.0,0.0,0.0,0.0,0.0,0.0,0.0,0.0,0.0,0.0,0.0,-4.1411,-4.1411,-4.1311,-4.1782,-4.1967,-4.1967,-4.1967,-4.1967,-4.198,-4.2798,-4.3719,-4.4719,-4.5451,-4.6431,0.0,0.0,0.0,-4.7979,-4.7979,-4.7383,-4.6374,-4.5728,-4.4804,-4.3789,-4.3209,-4.2974,-4.2974,-4.2974,-4.2974,-4.2836,-4.1995,-4.1266,-4.0614,-4.0061,-3.9885,-3.986,-3.9735,-3.9697,-3.9697,-3.9697,-3.9697,-3.9697,-3.9697,-3.9697,-3.9697,-3.9697,-3.9697,-3.9697,-3.9697,-3.9697,-3.9594,-3.9399,-3.9074,-3.8736,-3.8514,-3.8198,-3.7986,-3.7986,-3.7986,-3.7986,-3.7986,-3.7986,-3.7986,-3.7986,-3.7986,-3.7986,-3.7986,-3.7986,-3.7986,-3.7986,-3.7986,-3.7429,-3.6231,-3.4123,-3.2457,-3.1344,-3.1005,-3.0889,-3.0889,-3.0889,-3.0889,-3.1603,-3.2707,-3.3533,-3.3822,-3.4085,-3.4424,-3.4977,0.0,0.0,0.0,0.0,0.0,0.0,0.0,0.0,0.0,0.0,0.0,0.0,0.0,0.0,0.0,0.0,0.0,0.0,0.0,0.0,0.0,0.0,0.0,0.0,-4.1311,-4.1311,-4.1311,-4.1311,-4.1311,-4.1311,-4.1311,-4.1311,-4.1324,-4.1886,-4.2756,-4.384,-4.4398,-4.5135,0.0,0.0,0.0,-4.6147,-4.5926,-4.5697,-4.5342,-4.4778,-4.4152,-4.3653,-4.3197,-4.2974,-4.2974,-4.2974,-4.2811,-4.2421,-4.1317,-4.0764,-4.0413,-3.986,-3.9697,-3.9697,-3.9697,-3.9697,-3.9697,-3.9697,-3.9697,-3.9697,-3.9697,-3.9697,-3.9697,-3.9697,-3.9697,-3.9697,-3.9697,-3.9697,-3.9594,-3.9308,-3.897,-3.8736,-3.8409,-3.8198,-3.7986,-3.7986,-3.7986,-3.7986,-3.7986,-3.7986,-3.7986,-3.7986,-3.7986,-3.7986,-3.7986,-3.7986,-3.7986,-3.7986,-3.7986,-3.7203,-3.5454,-3.4123,-3.2675,-3.0889,-3.0889,-3.0889,-3.0889,-3.0889,-3.0889,-3.1852,-3.322,-3.4148,-3.4148,-3.45,-3.5002,-3.5542,0.0,0.0,0.0,0.0,0.0,0.0,0.0,0.0,0.0,0.0,0.0,0.0,0.0,0.0,0.0,0.0,0.0,0.0,0.0,0.0,0.0,0.0,0.0,0.0,-4.1311,-4.1311,-4.1311,-4.1311,-4.1311,-4.1311,-4.1311,-4.1311,-4.1324,-4.1808,-4.2523,-4.3409,-4.3881,-4.4151,-4.4232,0.0,0.0,-4.3742,-4.341,-4.364,-4.4061,-4.35,-4.3318,-4.3394,-4.3085,-4.2924,-4.2836,-4.276,-4.2371,-4.1743,-4.0814,-4.0463,-4.03,-3.9835,-3.9697,-3.9697,-3.9697,-3.9697,-3.9697,-3.9697,-3.9697,-3.9697,-3.9697,-3.9697,-3.9697,-3.9697,-3.9697,-3.9697,-3.9697,-3.9697,-3.9594,-3.9308,-3.9062,-3.8724,-3.8433,-3.821,-3.7986,-3.7986,-3.7986,-3.7986,-3.7986,-3.7986,-3.7986,-3.7986,-3.7986,-3.7986,-3.7986,-3.7986,-3.7986,-3.7986,-3.7655,-3.6545,-3.4447,-3.4,-3.2892,-3.0889,-3.0889,-3.0889,-3.0889,-3.0889,-3.0889,-3.1748,-3.3498,-3.529,-3.529,-3.5353,-3.5567,0.0,0.0,0.0,0.0,0.0,0.0,0.0,0.0,0.0,0.0,0.0,0.0,0.0,0.0,0.0,0.0,0.0,0.0,0.0,0.0,0.0,0.0,0.0,0.0,0.0,-4.1311,-4.1311,-4.1311,-4.1311,-4.1311,-4.1311,-4.1311,-4.1311,-4.1311,-4.1402,-4.1542,-4.1642,-4.1721,-4.2124,-4.2584,0.0,-4.2824,-4.3154,-4.2826,-4.3044,-4.3454,-4.2939,-4.3,-4.3394,-4.3085,-4.2685,-4.2221,-4.1756,-4.1229,-4.0739,-4.0576,-4.0199,-3.9798,-3.9722,-3.9697,-3.9697,-3.9697,-3.9697,-3.9697,-3.9697,-3.9697,-3.9697,-3.9697,-3.9697,-3.9697,-3.9697,-3.9697,-3.9697,-3.9697,-3.9697,-3.9594,-3.9308,-3.9,-3.8662,-3.84,-3.814,-3.7986,-3.7986,-3.7986,-3.7986,-3.7986,-3.7986,-3.7986,-3.7986,-3.7986,-3.7986,-3.7986,-3.7986,-3.7986,-3.7986,-3.5991,-3.4781,-3.4447,-3.2446,-3.1218,-3.0889,-3.0889,-3.0889,-3.0889,-3.0889,-3.0889,-3.1991,-3.3624,-3.5297,-3.5887,-3.5994,-3.6056,0.0,0.0,0.0,0.0,0.0,0.0,0.0,0.0,0.0,0.0,0.0,0.0,0.0,0.0,0.0,0.0,0.0,0.0,0.0,0.0,0.0,0.0,0.0,0.0,0.0,0.0,-4.1311,-4.1311,-4.1311,-4.1311,-4.1311,-4.1311,-4.1311,-4.1311,-4.1311,-4.1311,-4.1311,-4.1311,-4.1455,-4.1703,0.0,-4.203,-4.2552,-4.2034,-4.2252,-4.2661,-4.2151,-4.2086,-4.2204,-4.2098,-4.1985,-4.1672,-4.1071,-4.0708,-4.0433,-4.0187,-3.9898,-3.9697,-3.9697,-3.9697,-3.9697,-3.9697,-3.9697,-3.9697,-3.9697,-3.9697,-3.9697,-3.9697,-3.9697,-3.9697,-3.9697,-3.9697,-3.9697,-3.9697,-3.9697,-3.9594,-3.9387,-3.9025,-3.8699,-3.8469,-3.8116,-3.7986,-3.7986,-3.7986,-3.7986,-3.7986,-3.7986,-3.7986,-3.7986,-3.7986,-3.7986,-3.7986,-3.7986,-3.7761,-3.7,-3.6002,-3.4792,-3.3459,-3.2457,-3.1566,-3.0889,-3.0889,-3.0889,-3.0889,-3.0889,-3.0889,-3.2419,-3.3882,-3.5367,-3.6156,0.0,0.0,0.0,0.0,0.0,0.0,0.0,0.0,0.0,0.0,0.0,0.0,0.0,0.0,0.0,0.0,0.0,0.0,0.0,0.0,0.0,0.0,0.0,0.0,0.0,0.0,0.0,0.0,-4.1311,-4.1311,-4.1311,-4.1311,-4.1311,-4.1311,-4.1311,-4.1311,-4.1311,-4.1311,-4.1311,-4.1311,-4.1311,-4.1311,-4.1311,-4.1559,-4.1964,-4.1351,-4.1478,-4.1977,-4.1354,-4.1229,-4.1247,-4.113,-4.113,-4.0993,-4.0452,-4.0333,-4.0245,-3.986,-3.9697,-3.9697,-3.9697,-3.9697,-3.9697,-3.9697,-3.9697,-3.9697,-3.9697,-3.9697,-3.9697,-3.9697,-3.9697,-3.9697,-3.9697,-3.9697,-3.9697,-3.9697,-3.9697,-3.9581,-3.9478,-3.9037,-3.8712,-3.8538,-3.821,-3.7986,-3.7986,-3.7986,-3.7986,-3.7986,-3.7986,-3.7986,-3.7986,-3.7986,-3.7986,-3.7986,-3.7986,-3.7441,-3.6231,-3.5904,-3.4792,-3.2685,-3.2467,-3.1787,-3.0889,-3.0889,-3.0889,-3.0889,-3.0889,-3.0889,-3.3155,-3.4654,-3.6263,-3.6358,-3.6358,0.0,-3.6358,-3.6358,0.0,-3.6358,0.0,0.0,0.0,0.0,0.0,0.0,0.0,0.0,0.0,0.0,0.0,0.0,0.0,0.0,0.0,0.0,0.0,0.0,0.0,0.0,0.0,0.0,0.0,-4.1311,-4.1311,-4.1311,-4.1311,-4.1311,-4.1311,-4.1311,-4.1311,-4.1311,-4.1311,-4.1311,-4.1311,-4.1311,-4.1311,-4.1337,-4.1276,-4.0771,-4.0901,-4.1297,-4.0786,-4.089,-4.1209,-4.0699,-4.0607,-4.0427,-3.9986,-3.976,-3.976,-3.971,-3.9697,-3.9697,-3.9697,-3.9697,-3.9697,-3.9697,-3.9697,-3.9697,-3.9697,-3.9697,-3.9697,-3.9697,-3.9697,-3.9697,-3.9697,-3.9697,-3.9697,-3.9697,-3.9697,-3.9685,-3.9697,-3.9183,-3.8755,-3.881,-3.834,-3.7986,-3.7986,-3.7986,-3.7986,-3.7986,-3.7986,-3.7986,-3.7986,-3.7986,-3.7986,-3.7986,-3.7986,-3.7441,-3.6231,-3.5113,-3.3899,-3.2685,-3.1566,-3.1005,-3.0889,-3.0889,-3.0889,-3.0889,-3.0889,-3.0889,-3.3001,-3.4288,-3.5571,-3.625,-3.6358,0.0,0.0,-3.6358,-3.6358,-3.6358,-3.6358,0.0,0.0,0.0,0.0,0.0,0.0,0.0,0.0,0.0,0.0,0.0,0.0,0.0,0.0,0.0,0.0,0.0,0.0,0.0,0.0,0.0,0.0,-4.1311,-4.1311,-4.1311,-4.1311,-4.1311,-4.1311,-4.1311,-4.1311,-4.1311,-4.1311,-4.1311,-4.1311,-4.1311,-4.1311,-4.1211,-4.0997,-4.0605,-4.0517,-4.0503,-4.0102,-4.0136,-4.0312,-4.012,-4.0032,-4.0023,-3.9772,-3.9697,-3.9697,-3.9697,-3.9697,-3.9697,-3.9697,-3.9697,-3.9697,-3.9697,-3.9697,-3.9697,-3.9697,-3.9697,-3.9697,-3.9697,-3.9697,-3.9697,-3.9697,-3.9697,-3.9697,-3.9697,-3.9697,-3.9697,-3.9478,-3.9129,-3.8699,-3.855,-3.821,-3.7986,-3.7986,-3.7986,-3.7986,-3.7986,-3.7986,-3.7986,-3.7986,-3.7986,-3.7986,-3.7986,-3.7322,-3.634,-3.5113,-3.4011,-3.2789,-3.1566,-3.1122,-3.0889,-3.0889,-3.0889,-3.0889,-3.0889,-3.0889,-3.0889,-3.2488,-3.3685,-3.4981,0.0,0.0,0.0,-3.6358,-3.6358,-3.6358,-3.6358,-3.6358,0.0,0.0,0.0,0.0,0.0,0.0,0.0,0.0,0.0,0.0,0.0,0.0,0.0,0.0,0.0,0.0,0.0,0.0,0.0,0.0,0.0,0.0,0.0,-4.1311,-4.1311,-4.1311,-4.1311,-4.1311,-4.1311,-4.1311,-4.1311,-4.1311,-4.1311,-4.1311,-4.1311,-4.1211,-4.1097,-4.0883,-4.0491,-4.0198,-3.9981,-3.9788,-3.9697,-3.9697,-3.9697,-3.9697,-3.9697,-3.9697,-3.9697,-3.9697,-3.9697,-3.9697,-3.9697,-3.9697,-3.9697,-3.9697,-3.9697,-3.9697,-3.9697,-3.9697,-3.9697,-3.9697,-3.9697,-3.9697,-3.9697,-3.9697,-3.9697,-3.9697,-3.9697,-3.9581,-3.9478,-3.9374,-3.8945,-3.8631,-3.8409,-3.8198,-3.7986,-3.7986,-3.7986,-3.7986,-3.7986,-3.7986,-3.7986,-3.7986,-3.7986,-3.7986,-3.7986,-3.6893,-3.5674,-3.4447,-3.3346,-3.2123,-3.0889,-3.0889,-3.0889,-3.0889,-3.0889,-3.0889,-3.0889,-3.0889,-3.0889,-3.1575,-3.3178,-3.4775,0.0,0.0,0.0,0.0,0.0,0.0,0.0,0.0,0.0,0.0,0.0,0.0,0.0,0.0,0.0,0.0,0.0,0.0,0.0,0.0,0.0,0.0,0.0,0.0,0.0,0.0,0.0,0.0,0.0,0.0,0.0,-4.1311,-4.1311,-4.1311,-4.1311,-4.1311,-4.1311,-4.1311,-4.1311,-4.1311,-4.1311,-4.1311,-4.1311,-4.0997,-4.0883,-4.0883,-4.0275,-3.9981,-3.9697,-3.9697,-3.9697,-3.9697,-3.9697,-3.9697,-3.9697,-3.9697,-3.9697,-3.9697,-3.9697,-3.9697,-3.9697,-3.9697,-3.9697,-3.9697,-3.9697,-3.9697,-3.9697,-3.9697,-3.9697,-3.9697,-3.9697,-3.9697,-3.9697,-3.9697,-3.9697,-3.9697,-3.9697,-3.9478,-3.9258,-3.927,-3.8841,-3.8409,-3.8409,-3.8198,-3.7986,-3.7986,-3.7986,-3.7986,-3.7986,-3.7986,-3.7986,-3.7986,-3.7986,-3.7986,-3.7986,-3.6893,-3.5674,-3.4447,-3.3346,-3.2123,-3.0889,-3.0889,-3.0889,-3.0889,-3.0889,-3.0889,-3.0889,-3.0889,-3.0889,-3.2488,-3.3784,0.0,0.0,0.0,0.0,0.0,0.0,0.0,0.0,0.0,0.0,0.0,0.0,0.0,0.0,0.0,0.0,0.0,0.0,0.0,0.0,0.0,0.0,0.0,0.0,0.0,0.0,0.0,0.0,0.0,0.0,0.0,0.0,-4.0707,-4.0707,-4.0707,-4.0707,-4.0808,-4.0997,-4.0997,-4.111,-4.1311,-4.1311,-4.1311,-4.1311,-4.0997,-4.0795,-4.0605,-3.9993,-3.9788,-3.9697,-3.9697,-3.9697,-3.9697,-3.9697,-3.9697,-3.9697,-3.9697,-3.9697,-3.9697,-3.9697,-3.9697,-3.9697,-3.9697,-3.9697,-3.9697,-3.9697,-3.9697,-3.9697,-3.9697,-3.9697,-3.9697,-3.9697,-3.9697,-3.9697,-3.9697,-3.9697,-3.9685,-3.9478,-3.9362,-3.9154,-3.8736,-3.8514,-3.8303,-3.8198,-3.8092,-3.7986,-3.7986,-3.7986,-3.7986,-3.7986,-3.7986,-3.7986,-3.7986,-3.7986,-3.7986,-3.7986,-3.6893,-3.5674,-3.4447,-3.3346,-3.2123,-3.0889,-3.0889,-3.0889,-3.0889,-3.0889,-3.0889,-3.0889,-3.0889,-3.0889,-3.2286,0.0,0.0,0.0,0.0,0.0,0.0,0.0,0.0,0.0,0.0,0.0,0.0,0.0,0.0,0.0,0.0,0.0,0.0,0.0,0.0,0.0,0.0,0.0,0.0,0.0,0.0,0.0,0.0,0.0,0.0,0.0,0.0,0.0,-4.0504,-4.0504,-4.0504,-4.0504,-4.0605,-4.0694,-4.0694,-4.0808,-4.101,-4.1211,-4.1211,-4.111,-4.0782,-4.0389,-4.0198,-3.9788,-3.9697,-3.9697,-3.9697,-3.9697,-3.9697,-3.9697,-3.9697,-3.9697,-3.9697,-3.9697,-3.9697,-3.9697,-3.9697,-3.9697,-3.9697,-3.9697,-3.9697,-3.9697,-3.9697,-3.9697,-3.9697,-3.9697,-3.9697,-3.9697,-3.9697,-3.9697,-3.9697,-3.9581,-3.9478,-3.9374,-3.9154,-3.8841,-3.8409,-3.8303,-3.8198,-3.7974,-3.7986,-3.7986,-3.7986,-3.7986,-3.7986,-3.7986,-3.7986,-3.7986,-3.7986,-3.7986,-3.7986,-3.7986,-3.6893,-3.5674,-3.4447,-3.3346,-3.2123,-3.0889,-3.0889,-3.0889,-3.0889,-3.0889,-3.0889,-3.0889,-3.0889,-3.0889,-3.1483,0.0,0.0,0.0,0.0,0.0,0.0,0.0,0.0,0.0,0.0,0.0,0.0,0.0,0.0,0.0,0.0,0.0,0.0,0.0,0.0,0.0,0.0,0.0,0.0,0.0,0.0,0.0,0.0,0.0,0.0,0.0,0.0,-4.0402,-4.0402,-4.0402,-4.0402,-4.0402,-4.0402,-4.0504,-4.0504,-4.0504,-4.0504,-4.101,-4.1097,-4.0782,-4.0275,-3.9981,-3.9697,-3.9697,-3.9697,-3.9697,-3.9697,-3.9697,-3.9697,-3.9697,-3.9697,-3.9697,-3.9697,-3.9697,-3.9697,-3.9697,-3.9697,-3.9697,-3.9697,-3.9697,-3.9697,-3.9697,-3.9697,-3.9697,-3.9697,-3.9697,-3.9697,-3.9697,-3.9697,-3.9697,-3.9697,-3.9478,-3.927,-3.9258,-3.8841,-3.8409,-3.8409,-3.8198,-3.7986,-3.7986,-3.7986,-3.7986,-3.7986,-3.7986,-3.7986,-3.7986,-3.7986,-3.7986,-3.7986,-3.7986,-3.7974,-3.7868,-3.6785,-3.5564,-3.4336,-3.3233,-3.2123,-3.0889,-3.0889,-3.0889,-3.0889,-3.0889,-3.0889,-3.0889,-3.0889,-3.0635,0.0,-3.3586,0.0,0.0,0.0,0.0,0.0,0.0,0.0,0.0,0.0,0.0,0.0,0.0,0.0,0.0,0.0,0.0,0.0,0.0,0.0,0.0,0.0,0.0,0.0,0.0,0.0,0.0,0.0,0.0,0.0,0.0,0.0,-3.989,-3.989,-3.989,-3.989,-3.989,-3.9993,0.0,-4.0185,-4.0287,-4.0504,-4.0605,-4.0504,-4.0287,-4.0173,-3.9981,-3.9697,-3.9697,-3.9697,-3.9697,-3.9697,-3.9697,-3.9697,-3.9697,-3.9697,-3.9697,-3.9697,-3.9697,-3.9697,-3.9697,-3.9697,-3.9697,-3.9697,-3.9697,-3.9697,-3.9697,-3.9697,-3.9697,-3.9697,-3.9697,-3.9697,-3.9697,-3.9697,-3.9697,-3.9697,-3.9478,-3.9258,-3.8945,-3.8619,-3.8303,-3.8092,-3.8092,-3.7986,-3.7986,-3.7986,-3.7986,-3.7986,-3.7986,-3.7986,-3.7986,-3.7986,-3.7986,-3.7986,-3.7986,-3.7655,-3.6677,-3.634,-3.5234,-3.313,-3.2799,-3.2123,-3.0889,-3.0889,-3.0889,-3.0889,-3.0889,-3.0889,-3.0889,-3.0635,-3.0509,0.0,0.0,0.0,0.0,0.0,0.0,0.0,0.0,0.0,0.0,0.0,0.0,0.0,0.0,0.0,0.0,0.0,0.0,0.0,0.0,0.0,0.0,0.0,0.0,0.0,0.0,0.0,0.0,0.0,0.0,0.0,-3.9697,-3.9697,-3.9697,-3.9697,-3.9697,-3.9697,-3.9697,-3.9788,-3.9878,-3.9878,-3.9993,-4.0096,-4.0287,-4.0185,-4.007,-3.9981,-3.9788,-3.9697,-3.9697,-3.9697,-3.9697,-3.9697,-3.9697,-3.9697,-3.9697,-3.9697,-3.9697,-3.9697,-3.9697,-3.9697,-3.9697,-3.9697,-3.9697,-3.9697,-3.9697,-3.9697,-3.9697,-3.9697,-3.9697,-3.9697,-3.9697,-3.9697,-3.9697,-3.9697,-3.9697,-3.9697,-3.9374,-3.905,-3.8841,-3.8514,-3.8198,-3.7974,-3.7986,-3.7986,-3.7986,-3.7986,-3.7986,-3.7986,-3.7986,-3.7986,-3.7986,-3.7986,-3.7986,-3.7986,-3.7429,-3.6893,-3.6231,-3.5124,-3.4022,-3.2799,-3.2123,-3.1566,-3.0889,-3.0889,-3.0889,-3.0889,-3.0889,-3.0889,-3.0889,-3.0762,-3.0518,0.0,0.0,0.0,0.0,0.0,0.0,0.0,0.0,0.0,0.0,0.0,0.0,0.0,0.0,0.0,0.0,0.0,0.0,0.0,0.0,0.0,0.0,0.0,0.0,0.0,0.0,0.0,0.0,0.0,0.0,-3.9383,-3.9396,-3.9396,-3.9396,-3.9396,-3.9396,-3.9396,-3.9396,-3.9396,-3.9408,-3.9496,-3.9546,-3.9546,-3.984,-4.0083,-3.9981,-3.9788,-3.9697,-3.9697,-3.9697,-3.9697,-3.9697,-3.9697,-3.9697,-3.9697,-3.9697,-3.9697,-3.9697,-3.9697,-3.9697,-3.9697,-3.9697,-3.9697,-3.9697,-3.9697,-3.9697,-3.9697,-3.9697,-3.9697,-3.9697,-3.9697,-3.9697,-3.9697,-3.9697,-3.9697,-3.9697,-3.9697,-3.927,-3.8841,-3.8816,-3.8396,-3.7986,-3.7986,-3.7986,-3.7986,-3.7986,-3.7986,-3.7986,-3.7986,-3.7986,-3.7986,-3.7986,-3.7986,-3.7986,-3.7986,-3.6893,-3.6122,-3.5904,-3.3909,-3.2571,-3.2352,-3.145,-3.0889,-3.0889,-3.0889,-3.0889,-3.0889,-3.0889,-3.0889,-3.0889,-3.0889,-3.0635,0.0,0.0,0.0,0.0,0.0,0.0,0.0,0.0,0.0,0.0,0.0,0.0,0.0,0.0,0.0,0.0,0.0,0.0,0.0,0.0,0.0,0.0,0.0,0.0,0.0,0.0,0.0,0.0,0.0,0.0,-3.8228,-3.8228,-3.8228,-3.8228,-3.8228,-3.8228,-3.8228,-3.8228,-3.8228,-3.8228,-3.8743,-3.8981,-3.8994,-3.9574,-3.9788,-3.9788,-3.9697,-3.9697,-3.9697,-3.9697,-3.9697,-3.9697,-3.9697,-3.9697,-3.9697,-3.9697,-3.9697,-3.9697,-3.9697,-3.9697,-3.9697,-3.9697,-3.9697,-3.9697,-3.9697,-3.9697,-3.9697,-3.9697,-3.9697,-3.9697,-3.9697,-3.9697,-3.9697,-3.9697,-3.9697,-3.9697,-3.9697,-3.927,-3.8816,-3.8834,-3.836,-3.7986,-3.7986,-3.7986,-3.7986,-3.7986,-3.7986,-3.7986,-3.7986,-3.7986,-3.7986,-3.7986,-3.7986,-3.7986,-3.7986,-3.6893,-3.5783,-3.467,-3.3459,-3.2238,-3.1228,-3.1005,-3.0889,-3.0889,-3.0889,-3.0889,-3.0889,-3.0889,-3.0889,-3.0889,-3.0635,-3.0392,0.0,0.0,0.0,0.0,0.0,0.0,0.0,0.0,0.0,0.0,0.0,0.0,0.0,0.0,0.0,0.0,0.0,0.0,0.0,0.0,0.0,0.0,0.0,0.0,0.0,0.0,0.0,0.0,0.0,-3.7676,-3.799,-3.8002,-3.8002,-3.8002,-3.8002,-3.8002,-3.8002,-3.8002,-3.8002,-3.8002,-3.8266,-3.8391,-3.8391,-3.863,-3.9094,-3.9697,-3.9697,-3.9697,-3.9697,-3.9697,-3.9697,-3.9697,-3.9697,-3.9697,-3.9697,-3.9697,-3.9697,-3.9697,-3.9697,-3.9697,-3.9697,-3.9697,-3.9697,-3.9697,-3.9697,-3.9697,-3.9697,-3.9697,-3.9697,-3.9697,-3.9697,-3.9697,-3.9697,-3.9697,-3.9697,-3.9697,-3.9697,-3.927,-3.8724,-3.836,-3.8161,-3.7986,-3.7986,-3.7986,-3.7986,-3.7986,-3.7986,-3.7986,-3.7986,-3.7986,-3.7761,-3.7108,-3.7,-3.6773,-3.5991,-3.4902,-3.4022,-3.3459,-3.2342,-3.145,-3.0889,-3.0889,-3.0889,-3.0889,-3.0889,-3.0889,-3.0889,-3.0889,-3.0889,-3.0889,-3.0762,-3.0635,0.0,0.0,0.0,0.0,0.0,0.0,0.0,0.0,0.0,0.0,0.0,0.0,0.0,0.0,0.0,0.0,0.0,0.0,0.0,0.0,0.0,0.0,0.0,0.0,0.0,0.0,0.0,0.0,0.0,-3.7149,-3.7563,-3.7281,-3.7183,-3.7183,-3.7183,-3.7183,-3.7183,-3.7478,-3.7588,-3.7588,-3.7726,-3.7801,-3.7801,-3.7939,-3.8467,-3.927,-3.9421,-3.9559,-3.9697,-3.9697,-3.9697,-3.9697,-3.9697,-3.9697,-3.9697,-3.9697,-3.9697,-3.9697,-3.9697,-3.9597,-3.9484,-3.9484,-3.9383,-3.927,-3.927,-3.927,-3.927,-3.927,-3.927,-3.927,-3.927,-3.927,-3.927,-3.927,-3.927,-3.9346,-3.9519,-3.9179,-3.8643,-3.8198,-3.8092,-3.7986,-3.7986,-3.7986,-3.7986,-3.7986,-3.7986,-3.7986,-3.7986,-3.7761,-3.7215,-3.634,-3.5904,-3.5344,-3.4447,-3.3346,-3.2685,-3.2685,-3.1566,-3.0889,-3.0889,-3.0889,-3.0889,-3.0889,-3.0889,-3.0889,-3.0889,-3.0889,-3.0889,-3.0889,-3.0762,-3.0635,0.0,0.0,0.0,0.0,0.0,0.0,0.0,0.0,0.0,0.0,0.0,0.0,0.0,0.0,0.0,0.0,0.0,0.0,0.0,0.0,0.0,0.0,0.0,0.0,0.0,0.0,0.0,0.0,0.0,-3.642,-3.6445,-3.5549,-3.4957,-3.4957,-3.4957,-3.4957,-3.4957,-3.5957,-3.6445,-3.6458,-3.6973,-3.7224,-3.7249,-3.7764,-3.804,-3.8128,-3.868,-3.9207,-3.9697,-3.9697,-3.9697,-3.9697,-3.9697,-3.9697,-3.9697,-3.9697,-3.9697,-3.9697,-3.9697,-3.9346,-3.8906,-3.8906,-3.8542,-3.809,-3.809,-3.809,-3.809,-3.809,-3.809,-3.809,-3.809,-3.809,-3.809,-3.809,-3.809,-3.8279,-3.9137,-3.9099,-3.8704,-3.8421,-3.8198,-3.7986,-3.7986,-3.7986,-3.7986,-3.7986,-3.7986,-3.7986,-3.7986,-3.7,-3.6231,-3.6243,-3.5234,-3.4447,-3.4447,-3.3346,-3.2685,-3.2685,-3.1566,-3.0889,-3.0889,-3.0889,-3.0889,-3.0889,-3.0889,-3.0889,-3.0889,-3.0889,-3.0889,-3.0889,-3.0518,-3.0382,0.0,0.0,0.0,0.0,0.0,0.0,0.0,0.0,0.0,0.0,0.0,0.0,0.0,0.0,0.0,0.0,0.0,0.0,0.0,0.0,0.0,0.0,0.0,0.0,0.0,0.0,0.0,0.0,0.0,0.0,-3.4385,-3.3773,-3.3575,-3.3796,-3.3796,-3.3796,-3.3796,-3.4872,-3.5367,-3.5379,-3.626,-3.6659,-3.6659,-3.686,-3.7149,-3.7487,-3.7701,-3.8103,-3.8617,-3.8617,-3.8617,-3.8617,-3.8617,-3.8617,-3.8617,-3.8617,-3.8617,-3.8617,-3.8617,-3.8479,-3.8316,-3.8316,-3.8178,-3.8002,-3.8002,-3.8002,-3.8002,-3.8002,-3.8002,-3.8002,-3.8002,-3.8002,-3.8002,-3.8002,-3.8002,-3.8016,-3.8203,-3.8296,-3.824,-3.8137,-3.8092,-3.7986,-3.7986,-3.7986,-3.7986,-3.7986,-3.7986,-3.7761,-3.6893,-3.646,-3.5576,-3.4123,-3.3572,-3.3016,-3.2227,-3.1787,-3.1566,-3.1566,-3.1112,-3.0889,-3.0889,-3.0889,-3.0889,-3.0889,-3.0889,-3.0889,-3.0889,-3.0645,-3.0635,-3.0518,-3.0274,-3.0039,0.0,0.0,0.0,0.0,0.0,0.0,0.0,0.0,0.0,0.0,0.0,0.0,0.0,0.0,0.0,0.0,0.0,0.0,0.0,0.0,0.0,0.0,0.0,0.0,0.0,0.0,0.0,0.0,0.0,0.0,-3.2978,-3.2353,-3.2264,-3.2488,-3.2499,-3.27,-3.3201,-3.3895,-3.4483,-3.4775,-3.5571,-3.6061,-3.6358,-3.6358,-3.6558,-3.691,-3.691,-3.7324,-3.8002,-3.8002,-3.8002,-3.8002,-3.8002,-3.8002,-3.8002,-3.8002,-3.8002,-3.8002,-3.8002,-3.7889,-3.7726,-3.7726,-3.76,-3.745,-3.745,-3.745,-3.745,-3.745,-3.745,-3.745,-3.745,-3.745,-3.745,-3.745,-3.7365,-3.7317,-3.7196,-3.7614,-3.7934,-3.7859,-3.7971,-3.7986,-3.7986,-3.7986,-3.7986,-3.7986,-3.7655,-3.7108,-3.634,-3.5454,-3.4469,-3.2913,-3.2352,-3.1787,-3.1005,-3.0889,-3.0889,-3.0889,-3.0889,-3.0889,-3.0889,-3.0889,-3.0889,-3.0889,-3.0889,-3.0889,-3.0762,-3.0509,-3.0382,-3.0392,-2.9922,-2.9568,0.0,0.0,0.0,0.0,0.0,0.0,0.0,0.0,0.0,0.0,0.0,0.0,0.0,0.0,0.0,0.0,0.0,0.0,0.0,0.0,0.0,0.0,0.0,0.0,0.0,0.0,0.0,0.0,0.0,-3.2555,-3.223,-3.1224,-3.0835,-3.1084,-3.1187,-3.179,-3.3101,-3.3101,-3.3697,-3.4775,-3.4775,-3.5367,-3.6358,-3.6358,-3.6358,-3.6358,-3.6358,-3.6973,-3.7952,-3.7952,-3.7952,-3.7952,-3.7952,-3.7952,-3.7952,-3.7952,-3.7952,-3.7952,-3.7952,-3.76,-3.7161,-3.7161,-3.6797,-3.6358,-3.6358,-3.6358,-3.6358,-3.6358,-3.6358,-3.6358,-3.6358,-3.6358,-3.6358,-3.6358,-3.6193,-3.6056,-3.6296,-3.7231,-3.789,-3.7594,-3.7811,-3.7962,-3.7962,-3.7974,-3.7986,-3.7986,-3.6893,-3.6122,-3.6122,-3.4123,-3.2685,-3.2685,-3.1566,-3.0889,-3.0889,-3.0889,-3.0889,-3.0889,-3.0889,-3.0889,-3.0889,-3.0889,-3.0889,-3.0889,-3.0889,-3.0762,-3.0382,-3.0382,-3.0382,-3.0382,-2.9795,-2.9331,-2.9994,0.0,0.0,0.0,0.0,0.0,0.0,0.0,0.0,0.0,0.0,0.0,0.0,0.0,0.0,0.0,0.0,0.0,0.0,0.0,0.0,0.0,0.0,0.0,0.0,0.0,0.0,0.0,-3.1451,-3.0927,-3.0037,-2.9733,-2.9638,-2.9638,-2.9963,-3.0266,-3.0567,-3.1575,-3.2588,-3.3697,-3.4385,-3.5367,-3.6358,-3.6358,-3.6358,-3.6358,-3.6358,-3.6533,-3.681,-3.681,-3.681,-3.681,-3.681,-3.681,-3.681,-3.681,-3.681,-3.681,-3.681,-3.6722,-3.6584,-3.6584,-3.6483,-3.6358,-3.6358,-3.6358,-3.6358,-3.6358,-3.6358,-3.6358,-3.6358,-3.6275,-3.6098,-3.6098,-3.5908,-3.5657,-3.5515,-3.6088,-3.6573,-3.6759,-3.7151,-3.7409,-3.7409,-3.6968,-3.6677,-3.6677,-3.5674,-3.4569,-3.3797,-3.313,-3.2352,-3.145,-3.1122,-3.0889,-3.0889,-3.0889,-3.0889,-3.0889,-3.0889,-3.0889,-3.0889,-3.0889,-3.0889,-3.0889,-3.0889,-3.0889,-3.0762,-3.0284,-2.9922,-2.9686,-2.9331,-2.9103,0.0,0.0,0.0,0.0,0.0,0.0,-3.0888,-3.0888,0.0,0.0,0.0,0.0,0.0,0.0,0.0,0.0,0.0,0.0,0.0,0.0,0.0,0.0,0.0,0.0,0.0,0.0,0.0,-3.0266,-2.9932,-2.9513,-2.8814,-2.8814,-2.8814,-2.893,-2.9237,-2.9448,-2.9554,-3.0474,-3.1688,-3.3201,-3.3784,-3.4969,-3.6358,-3.6358,-3.6358,-3.6358,-3.6358,-3.6358,-3.6358,-3.6358,-3.6358,-3.6358,-3.6358,-3.6358,-3.6358,-3.6358,-3.6358,-3.6358,-3.6358,-3.6358,-3.6358,-3.6358,-3.6358,-3.6358,-3.6358,-3.6358,-3.6358,-3.6358,-3.6358,-3.6358,-3.6358,-3.6193,-3.6015,-3.6015,-3.5716,-3.5416,-3.5223,-3.5369,-3.5646,-3.5978,-3.6176,-3.6211,-3.6211,-3.55,-3.4944,-3.4944,-3.401,-3.3141,-3.2488,-3.2115,-3.1682,-3.1005,-3.0889,-3.0889,-3.0889,-3.0889,-3.0889,-3.0889,-3.0889,-3.0889,-3.0889,-3.0889,-3.0889,-3.0889,-3.0889,-3.0889,-3.0635,-3.0167,-2.9686,-2.9331,-2.9103,-2.8984,0.0,0.0,0.0,0.0,0.0,0.0,-2.9994,-2.9994,-2.9994,0.0,0.0,0.0,0.0,0.0,0.0,0.0,0.0,0.0,0.0,0.0,0.0,0.0,0.0,0.0,0.0,-3.0172,-2.9353,-2.8737,-2.8621,-2.8514,-2.8291,-2.8291,-2.8408,-2.8631,-2.893,-2.9237,-2.9554,-2.9889,-3.1105,-3.3201,-3.3201,-3.4288,-3.6358,-3.6358,-3.6358,-3.6358,-3.6358,-3.6358,-3.6358,-3.6358,-3.6358,-3.6358,-3.6358,-3.6358,-3.6358,-3.6358,-3.6358,-3.6358,-3.6358,-3.6358,-3.6358,-3.6358,-3.6358,-3.6358,-3.6358,-3.6358,-3.6358,-3.6358,-3.6358,-3.6358,-3.6358,-3.6193,-3.592,-3.592,-3.5524,-3.5126,-3.5126,-3.4823,-3.476,-3.5238,-3.5008,-3.4613,-3.452,-3.3715,-3.3005,-3.3005,-3.2279,-3.1767,-3.1767,-3.1157,-3.0742,-3.0742,-3.0742,-3.0762,-3.081,-3.081,-3.083,-3.0889,-3.0889,-3.0889,-3.0889,-3.0889,-3.0889,-3.0889,-3.084,-3.0684,-3.0315,-3.002,-2.9577,-2.9103,-2.8938,-2.892,0.0,0.0,0.0,0.0,0.0,0.0,-2.9994,-2.9994,-2.9994,0.0,0.0,0.0,0.0,0.0,0.0,0.0,0.0,0.0,0.0,0.0,0.0,0.0,0.0,0.0,0.0,-2.9764,-2.9353,-2.8737,-2.8514,-2.8398,-2.8291,-2.8291,-2.8291,-2.8398,-2.8814,-2.9132,-2.9237,-2.9774,-3.1105,-3.3201,-3.3201,-3.4288,-3.6358,-3.6358,-3.6358,-3.6358,-3.6358,-3.6358,-3.6358,-3.6358,-3.6358,-3.6358,-3.6358,-3.6358,-3.6358,-3.6358,-3.6358,-3.6358,-3.6358,-3.6358,-3.6358,-3.6358,-3.6358,-3.6358,-3.6358,-3.6358,-3.6358,-3.6358,-3.6358,-3.6358,-3.6358,-3.6086,-3.5716,-3.5716,-3.5223,-3.4932,-3.4932,-3.4115,-3.3534,-3.3638,-3.3966,-3.3891,-3.3053,-3.2212,-3.1724,-3.1724,-3.0821,-3.0013,-3.0013,-2.999,-2.9824,-2.9824,-2.9824,-2.9961,-3.0303,-3.0332,-3.0488,-3.0869,-3.0889,-3.0889,-3.0889,-3.0889,-3.0889,-3.0889,-3.0518,-3.0227,-2.9892,-2.9644,-2.9558,-2.944,-2.8772,-2.8507,0.0,0.0,0.0,-2.9994,0.0,0.0,0.0,-2.9994,-2.9994,0.0,0.0,0.0,0.0,0.0,0.0,0.0,0.0,0.0,0.0,0.0,0.0,0.0,0.0,0.0,0.0,-2.9248,-2.893,-2.8514,-2.8398,-2.8291,-2.8291,-2.8291,-2.8291,-2.8291,-2.8717,-2.893,-2.9132,-2.9564,-3.0981,-3.3201,-3.3201,-3.4288,-3.6358,-3.6358,-3.6358,-3.6358,-3.6358,-3.6358,-3.6358,-3.6358,-3.6358,-3.6358,-3.6358,-3.6358,-3.6358,-3.6358,-3.6358,-3.6358,-3.6358,-3.6358,-3.6358,-3.6358,-3.6358,-3.6358,-3.6358,-3.6358,-3.6358,-3.6358,-3.6358,-3.6358,-3.6275,-3.5908,-3.5524,-3.5428,-3.5126,-3.4823,-3.4823,-3.3918,-3.3001,-3.2499,-3.217,-3.1821,-3.1208,-3.046,-2.9884,-2.9884,-2.954,-2.9248,-2.9248,-2.9434,-2.957,-2.957,-2.957,-2.9658,-2.9863,-2.9883,-2.998,-3.0215,-3.0234,-3.0234,-3.0234,-3.0234,-3.0234,-3.0234,-3.0,-2.9779,-2.9449,-2.9193,-2.9066,-2.8834,-2.8293,-2.8077,0.0,0.0,0.0,0.0,0.0,-2.9994,0.0,0.0,0.0,0.0,0.0,0.0,0.0,0.0,0.0,0.0,0.0,0.0,0.0,0.0,0.0,0.0,0.0,0.0,0.0,-2.8834,-2.8514,-2.8291,-2.8291,-2.8291,-2.8291,-2.8291,-2.8291,-2.8291,-2.8514,-2.8834,-2.9132,-2.9448,-3.0774,-3.3201,-3.3201,-3.4288,-3.6358,-3.6358,-3.6358,-3.6358,-3.6358,-3.6358,-3.6358,-3.6358,-3.6358,-3.6358,-3.6358,-3.6358,-3.6358,-3.6358,-3.6358,-3.6358,-3.6358,-3.6358,-3.6358,-3.6358,-3.6358,-3.6358,-3.6358,-3.6358,-3.6358,-3.6358,-3.6358,-3.637,-3.6098,-3.5812,-3.5524,-3.5223,-3.4823,-3.4519,-3.4519,-3.3499,-3.2286,-3.1472,-3.0338,-2.9618,-2.9618,-2.891,-2.8291,-2.8291,-2.8584,-2.8799,-2.8799,-2.9111,-2.9326,-2.9326,-2.9326,-2.9355,-2.9443,-2.9443,-2.9482,-2.956,-2.957,-2.957,-2.957,-2.957,-2.957,-2.9458,-2.9381,-2.923,-2.8895,-2.8585,-2.8286,-2.8219,-2.7805,-2.7655,0.0,0.0,0.0,0.0,-2.9994,0.0,0.0,0.0,0.0,0.0,0.0,0.0,0.0,0.0,0.0,0.0,0.0,0.0,0.0,0.0,0.0,0.0,0.0,0.0,0.0,0.0,-2.8291,-2.8291,-2.8291,-2.8291,-2.8291,-2.8291,-2.8291,-2.8291,-2.8514,-2.8834,-2.9132,-2.9448,-3.0774,-3.3201,-3.3201,-3.4288,-3.6358,-3.6358,-3.6358,-3.6358,-3.6358,-3.6358,-3.6358,-3.6358,-3.6358,-3.6358,-3.6358,-3.6358,-3.6358,-3.6358,-3.6358,-3.6358,-3.6358,-3.6358,-3.6358,-3.6358,-3.6358,-3.6358,-3.6358,-3.6358,-3.6358,-3.6358,-3.6358,-3.637,-3.6098,-3.5812,-3.5524,-3.5223,-3.4311,-3.3411,-3.3411,-3.1768,-3.0224,-3.013,-2.9207,-2.8495,-2.8495,-2.8398,-2.8291,-2.8291,-2.833,-2.8359,-2.8359,-2.8408,-2.8437,-2.8437,-2.8437,-2.8584,-2.8965,-2.8994,-2.916,-2.9541,-2.957,-2.957,-2.957,-2.957,-2.9458,-2.9122,-2.8766,-2.8464,-2.8243,-2.7525,-2.7502,-2.8219,-2.752,-2.7242,0.0,0.0,0.0,0.0,0.0,0.0,-2.9994,0.0,-2.9994,0.0,0.0,0.0,0.0,0.0,0.0,0.0,0.0,0.0,0.0,0.0,0.0,0.0,0.0,0.0,0.0,0.0,0.0,0.0,-2.8291,-2.8291,-2.8291,-2.8291,-2.8291,-2.8291,-2.8408,-2.8717,-2.9132,-2.9237,-3.0359,-3.2286,-3.2889,-3.3993,-3.5463,-3.6156,-3.6358,-3.6358,-3.6358,-3.6358,-3.6358,-3.6358,-3.6358,-3.6358,-3.6358,-3.6358,-3.6358,-3.6358,-3.6358,-3.6358,-3.6358,-3.6358,-3.6358,-3.6358,-3.6358,-3.6358,-3.6358,-3.6358,-3.6358,-3.6358,-3.6275,-3.5991,-3.509,-3.4605,-3.4201,-3.33,-3.2689,-3.2286,-3.2286,-3.1051,-2.9922,-2.9922,-2.9006,-2.8291,-2.8291,-2.8291,-2.8291,-2.8291,-2.8291,-2.8291,-2.8291,-2.8291,-2.8291,-2.8291,-2.8291,-2.8369,-2.8545,-2.8555,-2.8633,-2.8818,-2.8828,-2.8828,-2.8828,-2.8719,-2.8491,-2.8391,-2.8,-2.7697,-2.7469,-2.7182,-2.7066,-2.7299,-2.7022,-2.6839,-2.9994,0.0,0.0,0.0,0.0,0.0,0.0,0.0,0.0,0.0,0.0,0.0,0.0,0.0,0.0,0.0,0.0,0.0,0.0,0.0,0.0,0.0,0.0,0.0,0.0,0.0,0.0,-2.8291,-2.8291,-2.8291,-2.8291,-2.8291,-2.8291,-2.8291,-2.8291,-2.8611,-2.9132,-2.9132,-2.9942,-3.1575,-3.2689,-3.3796,-3.4872,-3.587,-3.6358,-3.6358,-3.6358,-3.6358,-3.6358,-3.6358,-3.6358,-3.6358,-3.6358,-3.6358,-3.6358,-3.6358,-3.6358,-3.6358,-3.6358,-3.6358,-3.6358,-3.6358,-3.6358,-3.6358,-3.6358,-3.6358,-3.6358,-3.6275,-3.6193,-3.5704,-3.4288,-3.3796,-3.3289,-3.188,-3.137,-3.1165,-3.1165,-3.0235,-2.9408,-2.9408,-2.8804,-2.8291,-2.8291,-2.8291,-2.8291,-2.8291,-2.8291,-2.8291,-2.8291,-2.8291,-2.8291,-2.8291,-2.8291,-2.8291,-2.8291,-2.8291,-2.8291,-2.8291,-2.8291,-2.8291,-2.8291,-2.8067,-2.7853,-2.7745,-2.7422,-2.7215,-2.689,-2.689,-2.6791,-2.6591,-2.6591,-2.6591,0.0,0.0,0.0,-2.9994,0.0,0.0,0.0,0.0,-2.9132,0.0,0.0,0.0,0.0,0.0,0.0,0.0,0.0,0.0,0.0,0.0,0.0,0.0,0.0,0.0,0.0,0.0,0.0,-2.8291,-2.8291,-2.8291,-2.8291,-2.8291,-2.8291,-2.8291,-2.8291,-2.8611,-2.9132,-2.9132,-2.9942,-3.1575,-3.2689,-3.3796,-3.4872,-3.587,-3.6358,-3.6358,-3.6358,-3.6358,-3.6358,-3.6358,-3.6358,-3.6358,-3.6358,-3.6358,-3.6358,-3.6358,-3.6358,-3.6358,-3.6358,-3.6358,-3.6358,-3.6358,-3.6358,-3.6358,-3.6358,-3.6358,-3.637,-3.6098,-3.6015,-3.5608,-3.4005,-3.3598,-3.3289,-3.188,-3.0753,-2.9922,-2.9922,-2.9112,-2.8398,-2.8398,-2.8291,-2.8291,-2.8291,-2.8291,-2.8291,-2.8291,-2.8291,-2.8291,-2.8291,-2.8291,-2.8291,-2.8291,-2.8291,-2.8291,-2.8291,-2.8291,-2.8291,-2.8291,-2.8291,-2.8291,-2.8291,-2.8067,-2.7745,-2.7431,-2.7098,-2.689,-2.6591,-2.6591,-2.6591,-2.6591,-2.6591,-2.6591,0.0,0.0,-2.9659,-2.9459,0.0,0.0,0.0,0.0,0.0,0.0,0.0,0.0,0.0,0.0,0.0,0.0,0.0,0.0,0.0,0.0,0.0,0.0,0.0,0.0,0.0,0.0,0.0,-2.8291,-2.8291,-2.8291,-2.8291,-2.8291,-2.8291,-2.8291,-2.8291,-2.8611,-2.9132,-2.9132,-2.9554,-3.0588,-3.1586,-3.2689,-3.3796,-3.4872,-3.5763,-3.6358,-3.6358,-3.6358,-3.6358,-3.6358,-3.6358,-3.6358,-3.6358,-3.6358,-3.6358,-3.6358,-3.6358,-3.6358,-3.6358,-3.6358,-3.6358,-3.6358,-3.6358,-3.6358,-3.6193,-3.5692,-3.4981,-3.4787,-3.4091,-3.3078,-3.1746,-3.1235,-3.0845,-2.9723,-2.9112,-2.8804,-2.8804,-2.8601,-2.8291,-2.8291,-2.8291,-2.8291,-2.8291,-2.8291,-2.8291,-2.8291,-2.8291,-2.8291,-2.8291,-2.8291,-2.8291,-2.8291,-2.8291,-2.8291,-2.8291,-2.8291,-2.8291,-2.8291,-2.8174,-2.8067,-2.8067,-2.753,-2.7206,-2.7098,-2.6899,-2.6691,-2.6591,-2.6591,-2.6591,-2.6591,-2.6591,-2.6591,-2.9448,-2.9448,0.0,-2.9132,-2.9026,0.0,-2.893,0.0,0.0,0.0,0.0,0.0,0.0,0.0,0.0,0.0,0.0,0.0,0.0,-2.8291,0.0,0.0,0.0,0.0,0.0,0.0,-2.8291,-2.8291,-2.8291,-2.8291,0.0,0.0,-2.8291,-2.8291,-2.8291,-2.8504,-2.893,-2.9026,-2.9353,-2.9879,-3.1084,-3.1982,-3.27,-3.419,-3.5174,-3.5858,-3.625,-3.6358,-3.6358,-3.6358,-3.6358,-3.6358,-3.6358,-3.6358,-3.6358,-3.6358,-3.6358,-3.6358,-3.6358,-3.6358,-3.6358,-3.6275,-3.5978,-3.5667,-3.5391,-3.4483,-3.3563,-3.3377,-3.2678,-3.1768,-3.0535,-3.0016,-2.9618,-2.8601,-2.8291,-2.8291,-2.8291,-2.8291,-2.8291,-2.8291,-2.8291,-2.8291,-2.8291,-2.8291,-2.8291,-2.8291,-2.8291,-2.8291,-2.8291,-2.8291,-2.8291,-2.8291,-2.8291,-2.8291,-2.8291,-2.8291,-2.8291,-2.8184,-2.796,-2.7853,-2.7745,-2.7314,-2.6989,-2.6989,-2.6691,-2.6591,-2.6591,-2.6591,-2.6591,-2.6591,-2.6591,-2.6591]},{"header":{"parameterUnit":"m.s-1","parameterCategory":1,"la1":30.6,"la2":29.2853,"lo1":-89.7004,"lo2":-87.6739,"dy":0.0162,"dx":0.0183,"nx":112,"ny":82,"refTime":"2023-06-08T06:00:00:Z","depth":0,"parameterNumber":3,"parameterNumberName":"V-component_of_WINDS"},"data":[0.0,0.0,0.0,0.0,0.0,0.0,0.0,0.0,0.0,0.0,0.0,0.0,0.0,0.0,0.0,0.0,0.0,0.0,0.0,0.0,0.0,0.0,0.0,0.0,0.0,0.0,0.0,0.0,0.0,0.0,0.0,0.0,0.0,0.0,0.0,0.0,0.0,0.0,0.0,0.0,0.0,0.0,0.0,0.0,0.0,0.0,0.0,0.0,0.0,0.0,0.0,0.0,0.0,0.0,0.0,0.0,0.0,0.0,0.0,0.0,0.0,0.0,0.0,0.0,0.0,0.0,0.0,0.0,0.0,0.0,0.0,0.0,0.0,0.0,0.0,0.0,0.0,0.0,0.0,0.0,0.0,0.0,0.0,0.0,0.0,0.0,0.0,0.0,0.0,0.0,-4.2761,-4.3419,-4.3988,-4.4347,-4.4466,-4.5514,-4.6172,-4.6172,0.0,0.0,0.0,0.0,0.0,0.0,0.0,0.0,0.0,0.0,0.0,0.0,0.0,0.0,0.0,0.0,0.0,0.0,0.0,0.0,0.0,0.0,0.0,0.0,0.0,0.0,0.0,0.0,0.0,0.0,0.0,0.0,0.0,0.0,0.0,0.0,0.0,0.0,0.0,0.0,0.0,0.0,0.0,0.0,0.0,0.0,0.0,0.0,0.0,0.0,0.0,0.0,0.0,0.0,0.0,0.0,0.0,0.0,0.0,0.0,0.0,0.0,0.0,0.0,0.0,0.0,0.0,0.0,0.0,0.0,0.0,0.0,0.0,0.0,0.0,0.0,0.0,0.0,0.0,0.0,0.0,0.0,0.0,0.0,0.0,0.0,0.0,0.0,0.0,0.0,0.0,0.0,0.0,0.0,0.0,0.0,0.0,0.0,0.0,0.0,0.0,0.0,0.0,0.0,-4.3434,-4.4092,-4.4257,-4.4541,-4.5095,-4.5334,-4.5454,-4.5454,0.0,0.0,0.0,0.0,0.0,0.0,0.0,0.0,0.0,0.0,0.0,0.0,0.0,0.0,0.0,0.0,0.0,0.0,0.0,0.0,0.0,0.0,0.0,0.0,0.0,0.0,0.0,0.0,0.0,0.0,0.0,0.0,0.0,0.0,0.0,0.0,0.0,0.0,0.0,0.0,0.0,0.0,0.0,0.0,0.0,0.0,0.0,0.0,0.0,0.0,0.0,0.0,0.0,0.0,0.0,0.0,0.0,0.0,0.0,0.0,0.0,0.0,0.0,0.0,0.0,0.0,0.0,0.0,0.0,0.0,0.0,0.0,0.0,0.0,0.0,0.0,0.0,0.0,0.0,0.0,0.0,0.0,0.0,0.0,0.0,0.0,0.0,0.0,0.0,0.0,0.0,0.0,0.0,0.0,0.0,0.0,0.0,0.0,0.0,0.0,0.0,0.0,0.0,-4.3329,-4.3449,-4.3748,-4.4107,-4.4436,-4.4736,-4.5095,-4.5289,-4.5289,-4.5873,0.0,0.0,0.0,0.0,0.0,0.0,0.0,0.0,0.0,0.0,0.0,0.0,0.0,0.0,0.0,0.0,0.0,0.0,0.0,0.0,0.0,0.0,0.0,0.0,0.0,0.0,0.0,0.0,0.0,0.0,0.0,0.0,0.0,0.0,0.0,0.0,0.0,0.0,0.0,0.0,0.0,0.0,0.0,0.0,0.0,0.0,0.0,0.0,0.0,0.0,0.0,0.0,0.0,0.0,0.0,0.0,0.0,0.0,0.0,0.0,0.0,0.0,0.0,0.0,0.0,0.0,0.0,0.0,0.0,0.0,0.0,0.0,0.0,0.0,0.0,0.0,0.0,0.0,0.0,0.0,0.0,0.0,0.0,0.0,0.0,0.0,0.0,0.0,0.0,0.0,0.0,0.0,0.0,0.0,0.0,0.0,0.0,0.0,0.0,0.0,0.0,0.0,-4.3329,-4.3389,-4.3554,-4.4018,-4.4317,-4.4317,-4.4781,-4.5005,-4.484,-4.4975,0.0,0.0,0.0,0.0,0.0,0.0,0.0,0.0,0.0,0.0,0.0,0.0,0.0,0.0,0.0,0.0,0.0,0.0,0.0,0.0,0.0,0.0,0.0,0.0,0.0,0.0,0.0,0.0,0.0,0.0,0.0,0.0,0.0,0.0,0.0,0.0,0.0,0.0,0.0,0.0,0.0,0.0,0.0,0.0,0.0,0.0,0.0,0.0,0.0,0.0,0.0,0.0,0.0,0.0,0.0,0.0,0.0,0.0,0.0,0.0,0.0,0.0,0.0,0.0,0.0,0.0,0.0,0.0,0.0,0.0,0.0,0.0,0.0,0.0,0.0,0.0,0.0,0.0,0.0,0.0,0.0,0.0,0.0,0.0,0.0,0.0,0.0,0.0,0.0,0.0,0.0,0.0,0.0,0.0,0.0,0.0,0.0,0.0,0.0,0.0,0.0,0.0,-4.3329,-4.3569,-4.4182,-4.4287,-4.4317,-4.4317,-4.4347,-4.4122,-4.3509,-4.4047,0.0,0.0,0.0,0.0,0.0,0.0,0.0,0.0,0.0,0.0,0.0,0.0,0.0,0.0,0.0,0.0,0.0,0.0,0.0,0.0,0.0,0.0,0.0,0.0,0.0,0.0,0.0,0.0,0.0,0.0,0.0,0.0,0.0,0.0,0.0,0.0,0.0,0.0,0.0,0.0,0.0,0.0,0.0,0.0,0.0,0.0,0.0,0.0,0.0,0.0,0.0,0.0,0.0,0.0,0.0,0.0,0.0,0.0,0.0,0.0,0.0,0.0,0.0,0.0,0.0,0.0,0.0,0.0,0.0,0.0,0.0,0.0,0.0,0.0,0.0,0.0,0.0,0.0,0.0,0.0,0.0,0.0,0.0,0.0,0.0,0.0,0.0,0.0,0.0,0.0,0.0,0.0,0.0,0.0,0.0,0.0,0.0,0.0,0.0,0.0,0.0,0.0,-4.3329,-4.3434,0.0,-4.3703,-4.3703,-4.3703,-4.3703,-4.3599,-4.3344,0.0,0.0,0.0,0.0,0.0,0.0,0.0,0.0,0.0,0.0,0.0,0.0,0.0,0.0,0.0,0.0,0.0,0.0,0.0,0.0,0.0,0.0,0.0,0.0,0.0,0.0,0.0,0.0,0.0,0.0,0.0,0.0,0.0,0.0,0.0,0.0,0.0,0.0,0.0,0.0,0.0,0.0,0.0,0.0,0.0,0.0,0.0,0.0,0.0,0.0,0.0,0.0,0.0,0.0,0.0,0.0,0.0,0.0,0.0,0.0,0.0,0.0,0.0,0.0,0.0,0.0,0.0,0.0,0.0,0.0,0.0,0.0,0.0,0.0,0.0,0.0,0.0,0.0,0.0,0.0,0.0,0.0,0.0,0.0,0.0,0.0,0.0,0.0,0.0,0.0,0.0,0.0,0.0,0.0,0.0,0.0,0.0,0.0,0.0,0.0,0.0,0.0,-4.3329,-4.3329,-4.3329,0.0,-4.3329,-4.3329,-4.3329,-4.3329,-4.3329,-4.3329,0.0,0.0,0.0,0.0,0.0,0.0,0.0,0.0,0.0,0.0,0.0,0.0,0.0,0.0,0.0,0.0,0.0,0.0,0.0,0.0,0.0,0.0,0.0,0.0,0.0,0.0,0.0,0.0,0.0,0.0,0.0,0.0,0.0,0.0,0.0,0.0,0.0,0.0,0.0,0.0,0.0,0.0,0.0,0.0,0.0,0.0,0.0,0.0,0.0,0.0,0.0,0.0,0.0,0.0,0.0,0.0,0.0,0.0,0.0,0.0,0.0,0.0,0.0,0.0,0.0,0.0,0.0,0.0,0.0,0.0,0.0,0.0,0.0,0.0,0.0,0.0,0.0,0.0,0.0,0.0,0.0,0.0,0.0,0.0,0.0,0.0,0.0,0.0,0.0,0.0,0.0,0.0,0.0,0.0,0.0,0.0,0.0,0.0,0.0,0.0,0.0,0.0,-4.3329,-4.3329,-4.3329,-4.3329,-4.3329,-4.3329,-4.3329,-4.3329,-4.3329,0.0,0.0,0.0,0.0,0.0,0.0,0.0,0.0,0.0,0.0,0.0,0.0,0.0,0.0,0.0,0.0,0.0,0.0,0.0,0.0,0.0,0.0,0.0,0.0,0.0,0.0,0.0,0.0,0.0,0.0,0.0,0.0,0.0,0.0,0.0,0.0,0.0,0.0,0.0,0.0,0.0,0.0,0.0,0.0,0.0,0.0,0.0,0.0,0.0,0.0,0.0,0.0,0.0,0.0,0.0,0.0,0.0,0.0,0.0,0.0,0.0,0.0,0.0,0.0,0.0,0.0,0.0,0.0,0.0,0.0,0.0,0.0,0.0,0.0,0.0,0.0,0.0,0.0,0.0,0.0,0.0,0.0,0.0,0.0,0.0,0.0,0.0,0.0,0.0,0.0,0.0,0.0,0.0,0.0,0.0,0.0,0.0,0.0,0.0,0.0,0.0,0.0,0.0,-4.3329,-4.3329,-4.3329,-4.3329,-4.3329,-4.3329,-4.3329,-4.3329,-4.3329,-4.3329,0.0,0.0,0.0,0.0,0.0,0.0,0.0,0.0,0.0,0.0,0.0,0.0,0.0,0.0,0.0,0.0,0.0,0.0,0.0,0.0,0.0,0.0,0.0,0.0,0.0,0.0,0.0,0.0,0.0,0.0,0.0,0.0,0.0,0.0,0.0,0.0,0.0,0.0,0.0,0.0,0.0,0.0,0.0,0.0,0.0,0.0,0.0,0.0,0.0,0.0,0.0,0.0,0.0,0.0,0.0,0.0,0.0,0.0,0.0,0.0,0.0,0.0,0.0,0.0,0.0,0.0,0.0,0.0,0.0,0.0,0.0,0.0,0.0,0.0,0.0,0.0,0.0,0.0,0.0,0.0,0.0,0.0,0.0,0.0,0.0,0.0,0.0,0.0,0.0,0.0,0.0,0.0,0.0,0.0,0.0,0.0,0.0,0.0,0.0,0.0,0.0,0.0,-4.3329,-4.3329,-4.3329,-4.3329,-4.3329,-4.3329,-4.3329,-4.3329,-4.3329,-4.3329,0.0,0.0,0.0,0.0,0.0,0.0,0.0,0.0,0.0,0.0,0.0,0.0,0.0,0.0,0.0,0.0,0.0,0.0,0.0,0.0,0.0,0.0,0.0,0.0,0.0,0.0,0.0,0.0,0.0,0.0,0.0,0.0,0.0,0.0,0.0,0.0,0.0,0.0,0.0,0.0,0.0,0.0,0.0,0.0,0.0,0.0,0.0,0.0,0.0,0.0,0.0,0.0,0.0,0.0,0.0,0.0,0.0,0.0,0.0,0.0,0.0,0.0,0.0,0.0,0.0,0.0,0.0,0.0,0.0,0.0,0.0,0.0,0.0,0.0,0.0,0.0,0.0,0.0,0.0,0.0,0.0,0.0,0.0,0.0,0.0,0.0,0.0,0.0,0.0,0.0,0.0,0.0,0.0,0.0,0.0,0.0,0.0,0.0,0.0,0.0,0.0,0.0,-4.3329,-4.3329,-4.3329,-4.3329,-4.3329,-4.3329,-4.3329,-4.3329,-4.3329,-4.3329,0.0,0.0,0.0,0.0,0.0,0.0,0.0,0.0,0.0,0.0,0.0,0.0,0.0,0.0,0.0,0.0,0.0,0.0,0.0,0.0,0.0,0.0,0.0,0.0,0.0,0.0,0.0,0.0,0.0,0.0,0.0,0.0,0.0,0.0,0.0,0.0,0.0,0.0,0.0,0.0,0.0,0.0,0.0,0.0,0.0,0.0,0.0,0.0,0.0,0.0,0.0,0.0,0.0,0.0,0.0,0.0,0.0,0.0,0.0,0.0,-3.324,0.0,0.0,0.0,0.0,0.0,0.0,0.0,0.0,0.0,0.0,0.0,0.0,0.0,0.0,0.0,0.0,0.0,0.0,0.0,0.0,0.0,0.0,0.0,0.0,0.0,0.0,0.0,0.0,0.0,0.0,0.0,0.0,0.0,0.0,0.0,0.0,0.0,0.0,0.0,0.0,0.0,-4.3329,-4.3329,-4.3329,-4.3329,-4.3329,-4.3329,-4.3329,-4.3329,-4.3329,-4.3329,-4.3329,0.0,0.0,0.0,0.0,0.0,0.0,0.0,0.0,0.0,0.0,0.0,0.0,0.0,0.0,0.0,0.0,0.0,0.0,0.0,0.0,0.0,0.0,0.0,0.0,0.0,0.0,0.0,0.0,0.0,0.0,0.0,0.0,0.0,0.0,0.0,0.0,0.0,0.0,0.0,0.0,0.0,0.0,0.0,0.0,0.0,0.0,0.0,0.0,0.0,0.0,0.0,0.0,0.0,0.0,0.0,0.0,0.0,0.0,0.0,0.0,-3.3154,0.0,0.0,0.0,0.0,0.0,0.0,0.0,0.0,0.0,0.0,0.0,0.0,0.0,0.0,0.0,0.0,0.0,0.0,0.0,0.0,0.0,0.0,0.0,0.0,0.0,0.0,0.0,0.0,0.0,0.0,0.0,0.0,0.0,0.0,0.0,0.0,0.0,0.0,0.0,0.0,-4.3329,-4.3329,-4.3329,-4.3329,-4.3329,-4.3329,-4.3329,-4.3329,-4.3344,-4.3503,-4.3503,0.0,0.0,0.0,0.0,0.0,0.0,0.0,0.0,0.0,0.0,0.0,0.0,0.0,0.0,0.0,0.0,0.0,0.0,0.0,0.0,0.0,0.0,0.0,0.0,0.0,0.0,0.0,0.0,0.0,0.0,0.0,0.0,0.0,0.0,0.0,0.0,0.0,0.0,0.0,0.0,0.0,0.0,0.0,0.0,0.0,0.0,0.0,0.0,0.0,0.0,0.0,0.0,0.0,-3.3081,-3.3081,-3.3081,-3.3081,-3.3081,-3.3081,-3.3081,-3.3081,-3.3081,-3.3081,0.0,0.0,0.0,0.0,0.0,0.0,0.0,0.0,0.0,0.0,0.0,0.0,0.0,0.0,0.0,0.0,0.0,0.0,0.0,0.0,0.0,0.0,0.0,0.0,-4.3329,-4.3329,0.0,0.0,0.0,0.0,0.0,0.0,0.0,0.0,0.0,0.0,0.0,0.0,-4.3329,-4.3329,-4.3329,-4.3329,-4.3329,-4.3329,-4.3329,-4.3329,-4.3423,-4.369,-4.3769,-4.3847,0.0,0.0,0.0,0.0,0.0,0.0,0.0,0.0,0.0,0.0,0.0,0.0,0.0,0.0,0.0,0.0,0.0,0.0,0.0,0.0,0.0,0.0,0.0,0.0,0.0,0.0,0.0,0.0,0.0,0.0,0.0,0.0,-3.2345,-3.0786,0.0,0.0,0.0,0.0,0.0,0.0,0.0,0.0,0.0,0.0,0.0,0.0,0.0,-2.8612,-3.0797,-3.1039,-3.1798,-3.3081,-3.3081,-3.3081,-3.3081,-3.3081,-3.3081,-3.3081,-3.3081,0.0,-3.3081,-3.3081,0.0,0.0,0.0,0.0,0.0,0.0,0.0,0.0,0.0,0.0,0.0,0.0,0.0,0.0,0.0,0.0,0.0,0.0,0.0,0.0,0.0,0.0,-4.3329,-4.3329,-4.3329,-4.3329,0.0,-4.3329,-4.3329,-4.3329,-4.3329,0.0,0.0,0.0,0.0,0.0,0.0,0.0,-4.3329,-4.3329,-4.3329,-4.3329,-4.3329,-4.3329,-4.3329,-4.3518,-4.369,-4.369,-4.3832,-4.3988,-4.3988,-4.4143,0.0,0.0,0.0,0.0,0.0,0.0,0.0,0.0,0.0,0.0,0.0,0.0,0.0,0.0,0.0,0.0,0.0,0.0,0.0,0.0,0.0,0.0,0.0,0.0,0.0,0.0,0.0,0.0,0.0,-3.2662,-3.1442,-3.033,-3.0023,-2.9702,0.0,0.0,0.0,0.0,0.0,0.0,0.0,0.0,0.0,-2.6966,-2.7435,-2.8666,-3.0831,-3.1132,-3.1583,-3.2251,-3.281,-3.2797,-3.2264,-3.281,-3.3081,-3.3093,-3.3407,-3.3533,-3.352,-3.3206,-3.3257,-3.3533,0.0,0.0,0.0,0.0,-3.4983,-3.5399,-3.8155,-3.9117,0.0,-4.2104,0.0,0.0,0.0,0.0,0.0,0.0,0.0,0.0,0.0,0.0,-4.3329,-4.3329,-4.3329,-4.3329,-4.3329,-4.3329,-4.3329,0.0,-4.3329,-4.3329,-4.3329,0.0,0.0,0.0,0.0,-4.3329,-4.3329,-4.3329,-4.3329,-4.3329,-4.3329,-4.3344,-4.3518,-4.3596,-4.3769,-4.3988,-4.4127,-4.4205,-4.4358,-4.4435,-4.4435,0.0,0.0,0.0,0.0,0.0,0.0,0.0,0.0,0.0,0.0,0.0,0.0,0.0,0.0,0.0,0.0,0.0,0.0,0.0,0.0,0.0,0.0,0.0,0.0,0.0,0.0,0.0,0.0,-3.1783,-3.082,-2.9985,-2.9856,-2.9443,0.0,0.0,0.0,0.0,0.0,0.0,-2.531,-2.5733,-2.6494,-2.7635,-2.7746,-2.8802,-3.0949,-3.1156,-3.1347,-3.1625,-3.2624,-3.2711,-3.1989,-3.286,-3.3282,-3.3319,-3.3872,-3.411,-3.4073,-3.3671,-3.3746,-3.411,-3.411,-3.4361,-3.4738,-3.516,-3.5301,-3.5814,-3.8673,-3.9648,-4.0069,-4.2497,0.0,-4.3329,-4.3329,0.0,0.0,0.0,0.0,-4.3329,-4.3329,-4.3329,-4.3329,-4.3329,-4.3329,-4.3329,-4.3329,-4.3329,-4.3329,0.0,-4.3329,-4.3329,-4.3329,0.0,0.0,0.0,0.0,-4.3329,-4.3329,-4.3329,-4.3329,-4.3423,-4.3423,-4.3503,-4.3769,-4.3832,-4.3988,-4.4281,-4.4358,-4.4435,-4.4572,-4.4572,-4.4572,-4.4572,0.0,0.0,0.0,0.0,0.0,0.0,0.0,0.0,0.0,0.0,0.0,0.0,0.0,0.0,0.0,0.0,0.0,0.0,0.0,0.0,0.0,0.0,0.0,0.0,0.0,0.0,0.0,0.0,0.0,-2.9561,-2.9689,0.0,0.0,0.0,0.0,-2.7386,-2.6443,-2.582,-2.5482,-2.5941,-2.707,-2.8924,-2.7886,-2.8588,-3.1223,-3.0609,-3.0711,-3.1625,-3.2624,-3.3068,-3.3007,-3.3621,-3.3859,-3.3884,-3.4449,-3.4675,-3.4675,-3.465,-3.4663,-3.4675,-3.4675,-3.47,-3.4788,-3.5565,-3.6029,-3.6651,-3.9262,-4.0348,-4.0802,-4.2725,-4.3329,-4.3329,-4.3329,-4.3329,0.0,0.0,-4.3329,-4.3329,-4.3329,-4.3329,-4.3329,-4.3329,-4.3329,-4.3329,-4.3329,-4.3329,-4.3329,0.0,-4.3329,-4.3329,-4.3329,0.0,-4.3329,-4.3329,-4.3329,-4.3329,-4.3329,-4.3329,-4.3423,-4.369,-4.369,-4.3754,-4.3988,-4.4127,-4.4281,-4.4281,-4.4511,-4.4572,-4.4572,-4.4572,-4.4572,-4.4572,-4.5274,0.0,0.0,0.0,0.0,0.0,0.0,0.0,0.0,0.0,0.0,0.0,0.0,0.0,0.0,0.0,0.0,0.0,0.0,0.0,0.0,0.0,0.0,0.0,0.0,0.0,0.0,0.0,0.0,-2.9689,-2.9702,0.0,-2.845,-2.9003,-2.8527,-2.6357,-2.702,-2.7008,-2.5766,-2.6118,-2.673,-2.7441,-2.6968,-2.7872,-3.0056,-3.0377,-3.0916,-3.195,-3.3402,-3.3844,-3.3293,-3.4055,-3.4424,-3.4462,-3.5014,-3.5253,-3.5278,-3.5629,-3.5567,-3.5253,-3.5253,-3.5466,-3.5805,-3.6087,-3.6243,-3.6641,-3.8505,-3.9536,-4.0504,-4.2644,-4.3329,-4.3329,-4.3329,-4.3329,-4.3329,-4.3329,-4.3329,-4.3329,-4.3329,-4.3329,-4.3329,-4.3329,-4.3329,-4.3329,-4.3329,-4.3329,-4.3329,-4.3329,-4.3329,-4.3329,-4.3329,-4.3329,-4.3329,-4.3329,-4.3329,-4.3329,-4.3329,-4.3423,-4.3596,-4.369,-4.3847,-4.3988,-4.422,-4.4281,-4.4358,-4.4496,-4.4572,-4.4572,-4.4572,-4.4572,-4.4572,-4.4572,-4.4858,-4.5348,0.0,0.0,0.0,0.0,0.0,0.0,0.0,0.0,0.0,0.0,0.0,0.0,0.0,0.0,0.0,0.0,0.0,0.0,0.0,0.0,0.0,0.0,0.0,0.0,0.0,0.0,-2.9792,-2.9702,-2.9852,-2.9559,-2.8566,-2.9545,-2.9332,-2.7108,-2.7788,-2.7763,-2.6494,-2.6421,-2.6739,-2.765,-2.7383,-2.8095,-2.9724,-3.0717,-3.1356,-3.1751,-3.3607,-3.4247,-3.3674,-3.4537,-3.5002,-3.5027,-3.5579,-3.5818,-3.5843,-3.6219,-3.6144,-3.5818,-3.5818,-3.6044,-3.6358,-3.6358,-3.6452,-3.6722,-3.816,-3.9475,-4.0859,-4.24,-4.3076,-4.3329,-4.3329,-4.3329,-4.3329,-4.3329,-4.3329,-4.3329,-4.3329,-4.3329,-4.3329,-4.3329,-4.3329,-4.3329,-4.3329,-4.3329,-4.3329,-4.3329,-4.3329,-4.3329,-4.3329,-4.3329,-4.3329,-4.3423,-4.3423,-4.3423,-4.3503,-4.3675,-4.3847,-4.391,-4.3988,-4.4205,-4.4358,-4.4435,-4.4435,-4.4572,-4.4572,-4.4572,-4.4572,-4.4572,-4.4572,-4.4572,-4.5067,-4.5697,-4.6448,0.0,0.0,0.0,0.0,0.0,0.0,0.0,0.0,0.0,0.0,0.0,0.0,0.0,0.0,0.0,0.0,0.0,0.0,0.0,0.0,0.0,0.0,0.0,-3.2074,-3.0722,-2.9689,-2.9419,-2.9891,-3.0078,-2.993,-3.0211,-3.0229,-2.9653,-2.8623,-2.7856,-2.7589,-2.6688,-2.7277,-2.9719,-2.918,-2.93,-3.0511,-3.1803,-3.2028,-3.1049,-3.3248,-3.4309,-3.4413,-3.5132,-3.5487,-3.5604,-3.6132,-3.6358,-3.6358,-3.6358,-3.6358,-3.6358,-3.6358,-3.6358,-3.6358,-3.6358,-3.6534,-3.6896,-3.8355,-4.0273,-4.199,-4.199,-4.2578,-4.3329,-4.3329,-4.3329,-4.3329,-4.3329,-4.3329,-4.3329,-4.3329,-4.3329,-4.3329,-4.3329,-4.3329,-4.3329,-4.3329,-4.3329,-4.3329,-4.3329,-4.3329,-4.3329,-4.3329,-4.3329,-4.3423,-4.369,-4.369,0.0,-4.3988,-4.3988,-4.405,-4.4281,-4.4281,-4.4358,-4.4572,-4.4572,-4.4572,-4.4572,-4.4572,-4.4572,-4.4572,-4.4572,-4.4572,-4.4648,-4.6056,-4.7153,-4.7885,0.0,0.0,0.0,0.0,0.0,0.0,0.0,0.0,0.0,0.0,0.0,0.0,0.0,0.0,0.0,0.0,0.0,0.0,0.0,0.0,0.0,0.0,-3.1928,-3.1328,-3.0241,-2.9521,-2.9702,-2.9849,-2.993,-2.9942,-3.0553,-3.0268,-2.85,-2.8718,-2.8232,-2.6773,-2.6784,-2.7102,-2.7803,-2.839,-2.9133,-3.023,-3.1945,-3.3017,-3.3434,-3.4686,-3.5355,-3.5556,-3.5799,-3.5968,-3.6144,-3.6295,-3.6358,-3.6358,-3.6358,-3.6358,-3.6358,-3.6358,-3.6358,-3.6358,-3.6358,-3.664,-3.7188,-3.8459,-3.9839,-4.1113,-4.1811,-4.2578,-4.3329,-4.3329,-4.3329,-4.3329,-4.3329,-4.3329,-4.3329,-4.3329,-4.3329,-4.3329,-4.3329,-4.3329,-4.3329,-4.3329,-4.3329,-4.3329,-4.3329,-4.3329,-4.3329,-4.3329,-4.3329,-4.3423,-4.369,-4.369,0.0,-4.3988,-4.4143,-4.4205,-4.4281,-4.4435,-4.4511,-4.4587,-4.4572,-4.4572,-4.4572,-4.4572,-4.4572,-4.4572,-4.4572,-4.4858,-4.5421,-4.6324,-4.7153,0.0,0.0,0.0,0.0,0.0,0.0,0.0,0.0,0.0,0.0,0.0,0.0,0.0,0.0,0.0,0.0,0.0,0.0,0.0,0.0,0.0,0.0,-3.3171,-3.2023,-3.1673,-3.0509,-2.9766,-2.9949,-3.0232,-3.0453,-3.0453,-3.1065,-3.0749,-2.9204,-2.9669,-2.9234,-2.7412,-2.7563,-2.7976,-2.8654,-2.8755,-2.9442,-3.0734,-3.2309,-3.3059,-3.3266,-3.4872,-3.5716,-3.5812,-3.6098,-3.6275,0.0,-3.6358,-3.6358,-3.6358,-3.6358,-3.6358,0.0,0.0,0.0,0.0,0.0,-3.6734,-3.7201,-3.7913,-3.9224,-4.0689,-4.1212,-4.2237,-4.3329,-4.3329,-4.3329,-4.3329,-4.3329,-4.3329,-4.3329,-4.3329,-4.3329,-4.3329,-4.3329,-4.3329,-4.3329,-4.3329,-4.3329,-4.3329,-4.3329,-4.3554,0.0,-4.3843,-4.3683,-4.3518,-4.3754,-4.391,-4.3988,-4.4205,-4.4358,-4.4435,-4.4435,-4.4496,-4.4572,-4.4572,-4.4572,0.0,0.0,0.0,-4.4572,-4.4572,-4.4933,0.0,0.0,0.0,-4.7489,-4.7885,0.0,0.0,0.0,-4.9001,-4.9001,0.0,0.0,0.0,0.0,0.0,0.0,0.0,0.0,0.0,0.0,0.0,0.0,0.0,0.0,0.0,0.0,-3.3101,-3.2218,-3.2514,-3.1279,-3.0245,-3.0245,-3.0758,-3.1174,-3.132,-3.1632,-3.1513,-3.0996,-3.1088,-3.0454,-2.8828,0.0,0.0,0.0,0.0,-3.044,-3.1779,-3.2789,-3.2889,-3.1982,-3.4409,-3.562,-3.562,-3.6086,-3.6358,-3.6358,-3.6358,-3.6358,-3.6358,-3.6358,-3.6358,-3.6358,-3.6358,-3.6358,-3.6358,-3.6452,-3.6734,-3.7108,-3.7108,0.0,0.0,-4.0603,-4.1796,-4.3329,-4.3329,-4.3329,-4.3329,-4.3329,-4.3329,-4.3344,-4.3419,-4.3449,-4.3464,-4.3539,-4.3554,-4.3554,-4.3554,-4.3554,-4.3554,-4.3554,-4.4032,-4.4518,-4.479,-4.4308,-4.398,-4.4215,-4.4372,-4.4465,-4.4695,-4.4633,-4.4603,-4.4679,0.0,0.0,-4.4803,-4.4803,-4.4772,-4.4695,-4.4618,-4.4572,-4.4572,-4.5216,-4.5624,-4.5697,-4.7069,-4.7819,-4.7885,-4.8656,-4.9035,-4.912,-4.9035,-4.9001,0.0,0.0,0.0,0.0,0.0,0.0,0.0,0.0,0.0,0.0,0.0,0.0,0.0,0.0,0.0,-3.4467,-3.3101,-3.2218,-3.2514,-3.1468,-3.0581,-3.0581,-3.0822,-3.1221,-3.1743,-3.2111,-3.2174,-3.1631,-3.1938,-3.1608,-3.0513,-3.0781,-3.1142,-3.1433,-3.2141,-3.2598,-3.2901,-3.3918,-3.4421,-3.4213,0.0,0.0,-3.562,-3.5908,-3.6193,-3.6358,-3.6358,-3.6358,-3.6358,-3.6358,-3.6358,-3.6358,-3.6358,-3.6358,-3.6452,-3.6534,-3.6828,-3.7108,-3.7307,-3.8792,-4.0603,-4.0603,-4.1796,-4.3329,-4.3329,-4.3329,0.0,-4.3329,-4.3329,-4.3449,-4.3988,-4.4122,-4.4257,-4.4781,-4.4915,-4.4915,-4.4915,-4.4915,-4.4915,-4.4915,-4.502,-4.5192,-4.5468,-4.5363,-4.5435,-4.5822,-4.5443,-4.517,-4.5387,-4.491,-4.4787,-4.5341,-4.5403,-4.5618,-4.6157,-4.6203,-4.5972,-4.5418,-4.488,-4.4572,-4.4572,-4.4723,-4.5067,-4.5697,-4.6534,-4.7288,-4.7885,-4.8656,-4.9306,-4.9864,-4.9272,-4.9001,0.0,0.0,0.0,0.0,0.0,0.0,0.0,0.0,0.0,0.0,0.0,-3.5703,0.0,0.0,-3.4802,-3.4467,-3.3282,-3.2428,-3.2791,-3.1737,-3.0906,-3.0906,-3.1366,-3.1882,-3.2236,-3.2666,-3.2721,-3.2149,-3.28,-3.2655,-3.1304,-3.195,-3.2387,-3.2387,-3.2387,-3.2689,-3.3201,-3.3709,-3.4017,-3.4017,-3.492,-3.5428,-3.562,-3.6003,-3.6275,-3.6358,-3.6358,-3.6358,-3.6383,-3.6659,-3.6772,-3.6797,-3.7073,-3.6847,-3.6452,-3.6546,-3.6828,-3.7108,-3.7214,-3.8778,-4.0603,-4.0603,-4.1796,-4.3329,-4.3329,-4.3569,-4.3823,-4.3823,-4.4062,-4.4392,-4.4721,-4.4811,-4.4885,-4.5214,-4.5289,-4.5289,-4.5289,-4.5289,-4.5289,-4.5289,-4.5574,-4.5897,-4.6312,-4.6584,-4.675,-4.6391,-4.6073,-4.6017,-4.6095,-4.5803,-4.5711,-4.6049,-4.6095,-4.6234,-4.6573,-4.6603,-4.6449,-4.6111,-4.5772,-4.5434,-4.5095,-4.543,-4.579,-4.6218,-4.6924,-4.7871,-4.8978,-4.9342,-4.9886,-5.0642,-5.027,-5.0118,0.0,0.0,0.0,0.0,0.0,0.0,0.0,0.0,-3.6515,-3.5929,-3.5657,-3.5359,-3.5001,-3.4935,-3.4846,-3.4641,-3.3617,-3.2987,-3.3196,-3.2307,-3.159,-3.1452,-3.2063,-3.2575,-3.2779,-3.3188,-3.3256,-3.2862,-3.3695,-3.3582,-3.2264,-3.3001,-3.3511,-3.3511,-3.2689,-3.26,-3.3511,-3.3511,-3.3511,-3.3511,-3.492,-3.562,-3.562,-3.6181,-3.642,-3.6521,-3.6634,-3.6684,-3.6709,-3.7161,-3.7349,-3.7387,-3.7839,-3.7462,-3.6684,-3.6684,-3.7064,-3.7429,-3.7603,-3.9114,-4.0969,-4.1212,-4.2324,-4.3718,-4.3718,-4.4092,-4.4511,-4.4511,-4.4885,-4.5334,-4.5454,-4.5484,-4.5529,-4.5663,-4.5678,-4.5678,-4.5678,-4.5678,-4.5678,-4.5678,-4.6127,-4.6671,-4.7076,-4.76,-4.7684,-4.6834,-4.68,-4.6788,-4.6788,-4.668,-4.665,-4.6773,-4.6788,-4.685,-4.6973,-4.6865,-4.6788,-4.6788,-4.6665,-4.6357,-4.5803,-4.6358,-4.6646,-4.6646,-4.7574,-4.8562,-4.978,-5.0071,-5.0643,-5.142,-5.142,-5.1352,-3.6742,-3.6938,-3.7134,-3.6983,-3.7439,-3.779,0.0,0.0,-3.6657,-3.6353,-3.5849,-3.5359,-3.5001,-3.4935,-3.4993,-3.5238,-3.4583,-3.3974,-3.3899,-3.3615,-3.3106,-3.243,-3.243,-3.2863,-3.3777,-3.3921,-3.4078,-3.4497,-3.4642,-3.4666,-3.4421,-3.4531,-3.4628,-3.4628,-3.4519,-3.4519,-3.4628,-3.4628,-3.4628,-3.4628,-3.532,-3.562,-3.562,-3.6181,-3.6621,-3.7123,-3.7613,-3.7826,-3.7826,-3.7889,-3.7914,-3.7927,-3.799,-3.7939,-3.7826,-3.7826,-3.8108,-3.8788,-3.9596,-4.0968,-4.2439,-4.3286,-4.4255,-4.508,-4.508,-4.5125,-4.5185,-4.5185,-4.5229,-4.5439,-4.6052,-4.6217,-4.6352,-4.6935,-4.7085,-4.7085,-4.7085,-4.7085,-4.7085,-4.7085,-4.7145,-4.7362,-4.7773,-4.7919,-4.8088,-4.8337,-4.7881,-4.7496,-4.7496,-4.6973,-4.6819,-4.7419,-4.7496,-4.7727,-4.8343,-4.7835,-4.7496,-4.7496,-4.6927,-4.6557,-4.648,-4.6559,-4.6623,-4.6623,-4.7999,-4.8835,-4.906,-5.0426,-5.1474,-5.2181,-5.2181,-5.1843,-3.7141,-3.7292,-3.7463,0.0,-3.8018,-3.817,-3.7735,-3.7183,-3.6711,-3.6492,-3.591,-3.5359,-3.5001,-3.4935,-3.5007,0.0,-3.4911,-3.4375,-3.4033,-3.3978,-3.3684,-3.3071,-3.3224,-3.3561,-3.4006,-3.4318,-3.4595,-3.4811,-3.4823,-3.4823,-3.4823,-3.4823,-3.4823,-3.4823,-3.4823,-3.4823,-3.4823,-3.4823,-3.4932,-3.503,-3.5734,-3.6172,-3.6366,-3.698,-3.745,-3.7676,-3.7902,-3.8002,-3.804,-3.8366,-3.8504,-3.8542,-3.8868,-3.8981,-3.8906,-3.8253,-3.8298,-3.8968,-3.997,-4.1264,-4.265,-4.3575,-4.456,-4.5289,-4.5289,-4.5574,-4.5888,-4.5888,-4.6172,-4.6531,-4.6815,-4.689,-4.6965,-4.7234,-4.7309,-4.7309,-4.7309,-4.7309,-4.7309,-4.7309,-4.7381,-4.7553,-4.7964,-4.8133,-4.8286,-4.8537,-4.8373,-4.8189,-4.8189,-4.7942,-4.7881,-4.8158,-4.8189,-4.8312,-4.8589,-4.8358,-4.8189,-4.8189,-4.7927,-4.7588,-4.7204,-4.7188,-4.7188,-4.7188,-4.784,-4.8787,-5.0163,-5.0834,-5.1808,-5.301,-5.301,-5.2841,-3.7404,0.0,0.0,-3.8244,-3.8438,-3.8463,-3.806,-3.7552,-3.7011,-3.6538,-3.6085,-3.5604,-3.5001,-3.5082,-3.5272,-3.5587,-3.5467,-3.5121,-3.4527,-3.4582,-3.4414,-3.3603,-3.3945,-3.4258,-3.4258,-3.4607,-3.4823,-3.4823,-3.4823,-3.4823,-3.4823,-3.4823,-3.4823,-3.4823,-3.4823,-3.4823,-3.4823,-3.4968,-3.515,-3.5454,-3.6284,-3.6739,-3.7022,-3.7878,-3.8253,-3.8253,-3.8404,-3.8467,-3.8504,-3.8931,-3.9094,-3.9132,-3.9534,-3.9697,-3.9597,-3.8869,-3.8865,-3.9445,-4.072,-4.1942,-4.3158,-4.4487,-4.5291,-4.5843,-4.5843,-4.6202,-4.6591,-4.6591,-4.6935,-4.7309,-4.7309,-4.7309,-4.7309,-4.7309,-4.7309,-4.7309,-4.7309,-4.7309,-4.7309,-4.7309,-4.7381,-4.7639,-4.7964,-4.8133,-4.8286,-4.8537,-4.862,-4.862,-4.862,-4.862,-4.862,-4.862,-4.862,-4.862,-4.862,-4.862,-4.862,-4.862,-4.862,-4.8389,-4.7912,-4.7881,-4.7881,-4.7881,-4.8335,-4.9409,-5.107,-5.1533,-5.2362,-5.3501,-5.3501,-5.3501,0.0,0.0,-3.8804,-3.8706,-3.8747,-3.881,-3.8941,-3.8318,-3.7589,-3.6845,-3.6554,-3.6054,-3.5052,-3.5451,-3.5947,-3.6241,-3.6606,-3.666,-3.5758,-3.5943,-3.5583,-3.4123,-3.4487,-3.4811,0.0,-3.4823,-3.4823,-3.4823,-3.4823,-3.4823,-3.4823,-3.4823,-3.4823,-3.4823,-3.4823,-3.4823,-3.4823,-3.534,-3.5692,-3.6001,-3.6748,-3.7294,-3.7593,-3.8479,-3.8843,-3.8881,-3.9408,-3.9647,-3.9647,-3.9659,-3.9672,-3.9672,-3.9685,-3.9697,-3.9685,-3.9943,-4.0236,-4.073,-4.2697,-4.3746,-4.4535,-4.6579,-4.7249,-4.7249,-4.7249,-4.7249,-4.7279,-4.7279,-4.7294,-4.7309,-4.7309,-4.7309,-4.7309,-4.7309,-4.7309,-4.7309,-4.7309,-4.7309,-4.7309,-4.7309,-4.7294,-4.7467,-4.788,-4.8049,-4.8133,-4.8537,-4.862,-4.862,-4.862,-4.862,-4.862,-4.862,-4.862,-4.862,-4.862,-4.862,-4.862,-4.862,-4.862,-4.8604,-4.8589,-4.8589,-4.8589,-4.8589,-5.0197,-5.1054,-5.107,-5.2677,-5.3433,-5.3501,-5.3501,-5.3501,-3.8885,0.0,-3.8555,-3.9613,-3.9218,-3.8574,-3.8374,-3.7806,-3.7055,-3.6228,-3.5991,-3.5737,-3.5052,-3.5465,-3.5977,-3.627,-3.6794,-3.7096,-3.6769,-3.6494,-3.6038,-3.5151,-3.487,0.0,0.0,0.0,0.0,-3.4823,-3.4823,-3.4823,-3.4823,-3.4823,-3.4823,-3.4823,-3.5172,-3.5352,-3.5352,-3.6081,-3.6548,-3.6761,-3.7816,-3.8566,-3.9018,-3.932,-3.9421,-3.9433,-3.9609,-3.9697,-3.9697,-3.9697,-3.9697,-3.9697,-3.9697,-3.9697,-3.9697,-3.9981,-4.0287,-4.0694,-4.2208,-4.345,-4.4499,-4.5883,-4.6741,-4.7309,-4.7309,-4.7309,-4.7309,-4.7309,-4.7309,-4.7309,-4.7309,-4.7309,-4.7309,-4.7309,-4.7309,-4.7309,-4.7309,-4.7309,-4.7309,-4.7309,-4.7381,-4.7639,-4.7964,-4.8133,-4.8286,-4.8537,-4.862,-4.862,-4.862,-4.862,-4.862,-4.862,-4.862,-4.862,-4.862,-4.862,-4.862,-4.862,-4.862,-4.862,-4.862,-4.862,-4.862,-4.862,-4.971,-5.0554,-5.107,-5.2148,-5.2989,-5.3501,-5.3501,-5.3501,-3.9221,-3.8874,-3.8609,-3.9493,-3.8887,-3.8067,-3.7806,-3.7648,-3.7131,-3.607,-3.6102,-3.6102,-3.5198,-3.5657,-3.6241,-3.6385,-3.7171,-3.7696,-3.7548,-3.7253,-3.6806,-3.5903,-3.5553,-3.5199,0.0,0.0,0.0,-3.4823,-3.4823,-3.4823,-3.4823,-3.4823,-3.4919,-3.51,-3.5437,-3.5713,-3.5893,-3.6727,-3.7409,-3.791,-3.8791,-3.9346,-3.9697,-3.9697,-3.9697,-3.9697,-3.9697,-3.9697,-3.9697,-3.9697,-3.9697,-3.9697,-3.9697,-3.9788,-3.989,-4.0185,-4.0681,-4.1358,-4.2488,-4.3545,-4.4485,-4.5883,-4.6741,-4.7309,-4.7309,-4.7309,-4.7309,-4.7309,-4.7309,-4.7309,-4.7309,-4.7309,-4.7309,-4.7309,-4.7309,-4.7309,-4.7309,-4.7309,-4.7309,-4.7309,-4.7467,-4.7709,-4.7964,-4.8218,-4.8453,-4.862,-4.862,-4.862,-4.862,-4.862,-4.862,-4.862,-4.862,-4.862,-4.862,-4.862,-4.862,-4.862,-4.862,-4.862,-4.862,-4.862,-4.862,-4.862,-4.9694,-5.0554,-5.107,-5.2219,-5.2972,-5.3501,-5.3501,-5.3501,-3.8573,-3.8623,-3.886,-3.8439,-3.787,-3.7476,-3.7417,-3.7812,-3.7754,-3.6274,-3.6845,-3.7071,0.0,0.0,-3.6796,-3.6643,-3.7717,-3.8436,-3.8104,-3.8205,-3.783,0.0,0.0,0.0,0.0,0.0,0.0,-3.4823,0.0,-3.4823,-3.4823,-3.4859,-3.51,-3.5605,-3.5665,-3.5942,-3.6435,-3.7285,-3.8221,-3.9362,-3.9581,-3.9697,-3.9697,-3.9697,-3.9697,-3.9697,-3.9697,-3.9697,-3.9697,-3.9697,-3.9697,-3.9697,-3.9697,-3.989,-4.0185,-4.0389,-4.1272,-4.2501,-4.3612,-4.4083,-4.4684,-4.655,-4.7294,-4.7309,-4.7309,-4.7309,-4.7309,-4.7309,-4.7309,-4.7309,-4.7309,-4.7309,-4.7309,-4.7309,-4.7309,-4.7309,-4.7309,-4.7309,-4.7309,-4.7309,-4.7467,-4.7709,-4.7964,-4.8286,-4.862,-4.862,-4.862,-4.862,-4.862,-4.862,-4.862,-4.862,-4.862,-4.862,-4.862,-4.862,-4.862,-4.862,-4.862,-4.862,-4.862,-4.862,-4.862,-4.8702,-5.0306,-5.1145,-5.1145,-5.2747,-5.3501,-5.3501,-5.3501,-5.3501,-3.9362,-3.8863,-3.827,-3.8701,-3.8606,-3.8286,-3.7578,-3.8197,-3.8351,-3.6383,-3.6554,-3.6862,0.0,0.0,0.0,-3.7315,-3.8321,0.0,-3.9088,-3.8908,0.0,-3.7547,0.0,-3.5941,-3.492,-3.4823,0.0,0.0,-3.4823,-3.4823,-3.4823,-3.5196,-3.5473,-3.5617,-3.6386,-3.6855,-3.6988,-3.7947,-3.8914,-3.9594,-3.9697,-3.9697,-3.9697,-3.9697,-3.9697,-3.9697,-3.9697,-3.9697,-3.9697,-3.9697,-3.9697,-3.9697,-3.9697,-3.989,-4.0185,-4.0389,-4.1272,-4.2598,-4.3829,-4.4762,-4.5508,-4.5973,-4.6726,-4.7309,-4.7309,-4.7309,-4.7309,-4.7309,-4.7309,-4.7309,-4.7309,-4.7309,-4.7309,-4.7309,-4.7309,-4.7309,-4.7309,-4.7309,-4.7309,-4.7309,-4.7639,-4.788,-4.7964,-4.8286,-4.862,-4.862,-4.862,-4.862,-4.862,-4.862,-4.862,-4.862,-4.862,-4.862,-4.862,-4.862,-4.862,-4.862,-4.862,-4.862,-4.862,-4.862,-4.8934,-4.9566,-5.0615,-5.1385,-5.2004,-5.2989,-5.3501,-5.3501,-5.3501,-5.3501,-3.8987,-3.8518,-3.7943,-3.8116,-3.8059,-3.7844,-3.7134,-3.7738,-3.8049,-3.672,-3.6955,0.0,-3.6798,0.0,0.0,0.0,0.0,0.0,-3.9482,-3.9758,-3.954,0.0,-3.7507,0.0,-3.5571,-3.5017,-3.4823,0.0,-3.4823,-3.4931,-3.516,-3.5461,-3.5833,-3.629,-3.6892,-3.7416,-3.7855,-3.8693,-3.927,-3.9697,-3.9697,-3.9697,-3.9697,-3.9697,-3.9823,-4.0061,0.0,-4.0187,-4.0413,-4.0413,-4.0413,-4.0413,-4.0413,-4.061,-4.1014,-4.1234,-4.2409,-4.4152,-4.4827,-4.6067,-4.7197,-4.6624,-4.6829,-4.7309,-4.7309,-4.7309,-4.7309,-4.7309,-4.7309,-4.7309,-4.7309,-4.7309,-4.7309,-4.7309,-4.7309,-4.7309,-4.7309,-4.7309,-4.7309,-4.7381,-4.7624,-4.788,-4.8133,-4.8286,-4.8537,-4.862,-4.862,-4.862,-4.862,-4.862,-4.862,-4.862,-4.862,-4.862,-4.862,-4.862,-4.862,-4.862,-4.862,-4.862,-4.862,-4.862,-4.8852,-4.9325,-5.0461,-5.1294,-5.1769,-5.2972,-5.3501,-5.3501,-5.3501,-5.3501,-3.8084,-3.7812,-3.7711,-3.7121,-3.706,-3.6984,-3.6616,-3.7076,-3.7537,-3.7079,0.0,-3.7946,-3.7609,-3.7653,-3.7853,-3.7927,0.0,-3.9736,-3.9524,-4.0416,-4.0546,-3.9387,-3.8328,-3.7428,-3.6414,-3.5453,-3.4931,-3.4931,-3.5004,-3.5208,-3.5593,-3.5749,-3.6278,-3.7264,-3.73,-3.783,-3.8841,-3.9154,-3.9478,-3.9697,-3.9697,-3.9697,-3.9697,-3.9772,-4.0061,-4.0513,-4.0588,0.0,-4.1342,-4.1342,-4.1342,-4.1342,-4.1342,-4.1651,-4.2182,-4.2368,-4.3921,-4.5943,-4.6222,-4.763,-4.9209,-4.7938,-4.7563,-4.7563,-4.7563,-4.7504,-4.7429,-4.7429,-4.7369,-4.7309,-4.7309,-4.7309,-4.7309,-4.7309,-4.7309,-4.7309,-4.7309,-4.7309,-4.7381,-4.7553,-4.7538,-4.7709,-4.8202,-4.8286,-4.837,-4.8537,-4.862,-4.862,-4.862,-4.862,-4.862,-4.862,-4.862,-4.862,-4.862,-4.862,-4.862,-4.862,-4.862,-4.862,-4.862,-4.862,-4.8687,-4.8918,-5.0384,-5.122,-5.1443,-5.2817,-5.3501,-5.3501,-5.3501,-5.3501,-3.7519,-3.7476,-3.7417,-3.706,-3.7389,-3.7551,-3.6662,-3.7783,0.0,0.0,-3.7908,-3.8657,-3.8301,-3.7949,-3.8001,-3.8531,0.0,0.0,0.0,0.0,-4.0845,0.0,0.0,0.0,0.0,0.0,0.0,0.0,0.0,-3.5978,-3.5629,-3.6447,-3.7204,-3.7829,-3.8065,-3.8428,-3.8841,-3.9154,-3.9478,-3.9697,-3.9697,-3.9697,-3.971,-4.0162,-4.0425,-4.0538,-4.1003,0.0,-4.1342,-4.1342,-4.1342,-4.1342,-4.1342,-4.1651,-4.2275,-4.3243,-4.4043,-4.5011,-4.6862,-4.8507,-4.9674,-4.9149,-4.8925,-4.8925,-4.8925,-4.8551,-4.8117,-4.8117,-4.7728,-4.7309,-4.7309,-4.7309,-4.7309,-4.7309,-4.7309,-4.7309,-4.7309,-4.7309,-4.7309,-4.7396,-4.7467,-4.7709,-4.7964,-4.8218,-4.837,-4.8537,-4.862,-4.862,-4.862,-4.862,-4.862,-4.862,-4.862,-4.862,-4.862,-4.862,-4.862,-4.862,-4.862,-4.862,-4.862,-4.862,-4.9228,-5.0615,-5.0919,-5.1753,-5.3041,-5.3348,-5.3501,-5.3501,-5.3501,-5.3501,-3.721,-3.721,-3.7183,-3.7251,-3.7498,-3.7638,-3.7573,0.0,0.0,0.0,-3.8467,-3.8796,-3.8938,0.0,0.0,0.0,0.0,0.0,0.0,0.0,0.0,0.0,0.0,0.0,0.0,0.0,0.0,0.0,0.0,-3.6699,-3.6459,-3.718,-3.7826,-3.8198,-3.8526,-3.8736,-3.905,-3.9374,-3.9581,-3.9697,-3.9697,-3.9848,-4.0136,-4.0388,-4.0827,-4.1392,-4.1656,0.0,-4.2195,-4.2195,-4.2195,-4.2183,-4.2292,-4.3028,-4.3952,-4.4649,-4.5742,-4.6993,-4.8278,-4.9557,-5.0513,-5.0316,-4.9823,-4.9269,-4.9269,-4.9045,-4.873,-4.8386,-4.8057,-4.7743,-4.7399,-4.7309,-4.7309,-4.7309,-4.7309,-4.7309,-4.7309,-4.7309,-4.7309,-4.7309,-4.7467,-4.7709,-4.7964,-4.8133,-4.837,-4.8537,-4.862,-4.862,-4.862,-4.862,-4.862,-4.862,-4.862,-4.862,-4.862,-4.862,-4.862,-4.862,-4.862,-4.862,-4.862,-4.862,-4.9,-4.9757,-5.0691,-5.1459,-5.2274,-5.3127,-5.3501,-5.3501,-5.3501,-5.3501,-3.6923,-3.6986,-3.7157,-3.7432,-3.7615,-3.7846,-3.8319,-3.8402,0.0,0.0,-3.8892,-3.8993,-3.932,0.0,0.0,0.0,0.0,0.0,0.0,0.0,0.0,0.0,0.0,0.0,0.0,0.0,0.0,0.0,0.0,0.0,-3.736,-3.7757,-3.8092,-3.8409,-3.8631,-3.8945,-3.9258,-3.9581,-3.9697,-3.9697,-3.9697,-3.9986,-4.0513,-4.0639,-4.1229,-4.2158,-4.2283,0.0,0.0,-4.2974,-4.2974,-4.2974,-4.3283,-4.4235,-4.5608,-4.6123,-4.7462,-4.9184,-4.9761,-5.0522,-5.1214,-5.1214,-5.0526,-4.9688,-4.9688,-4.9583,-4.9344,-4.8686,-4.8401,-4.8132,-4.7474,-4.7309,-4.7309,-4.7309,-4.7309,-4.7309,-4.7309,-4.7309,-4.7309,-4.7309,-4.7467,-4.7709,-4.7964,-4.8133,-4.837,-4.8537,-4.862,-4.862,-4.862,-4.862,-4.862,-4.862,-4.862,-4.862,-4.862,-4.862,-4.862,-4.862,-4.862,-4.862,-4.862,-4.862,-4.8769,-4.9147,-5.0461,-5.1294,-5.1606,-5.2886,-5.3501,-5.3501,-5.3501,-5.3501,-3.6554,-3.7001,-3.7479,-3.7492,-3.7969,-3.8365,-3.8264,0.0,0.0,-3.8756,-3.9184,-3.955,-3.9409,0.0,0.0,0.0,0.0,-4.0242,0.0,0.0,0.0,0.0,0.0,0.0,0.0,0.0,0.0,0.0,0.0,0.0,-3.7914,-3.795,-3.8092,-3.8409,-3.8631,-3.8945,-3.9258,-3.9581,-3.9697,-3.9697,-3.9697,-3.9986,-4.0538,-4.1028,-4.1593,-4.2183,-4.2685,0.0,0.0,-4.2974,-4.2974,-4.2974,-4.3283,-4.4235,-4.5714,-4.6943,-4.8168,-4.9281,-5.0558,-5.112,-5.1214,-5.1214,-5.1139,-5.1035,-5.1035,-5.0616,-5.0017,-4.9359,-4.8745,-4.8132,-4.7474,-4.7309,-4.7309,-4.7309,-4.7309,-4.7309,-4.7309,-4.7309,-4.7309,-4.7309,-4.7467,-4.7709,-4.7964,-4.8133,-4.837,-4.8537,-4.862,-4.862,-4.862,-4.862,-4.862,-4.862,-4.862,-4.862,-4.862,-4.862,-4.862,-4.862,-4.862,-4.862,-4.862,-4.862,-4.9309,-5.0843,-5.0995,-5.1826,-5.328,-5.3433,-5.3501,-5.3501,-5.3501,-5.3501,-3.7218,-3.752,-3.8054,-3.8534,-3.8723,-3.891,-3.936,0.0,0.0,-3.936,-3.9444,-3.9481,-3.9409,0.0,0.0,0.0,0.0,0.0,0.0,0.0,0.0,0.0,0.0,0.0,0.0,0.0,0.0,0.0,0.0,0.0,-3.9,-3.8384,-3.8198,-3.8631,-3.8736,-3.905,-3.9581,-3.9697,-3.9697,-3.9697,-4.0036,-4.0475,-4.1028,-4.158,-4.2133,-4.266,-4.2886,0.0,0.0,-4.2974,-4.2974,-4.3085,-4.4248,-4.5369,-4.6605,-4.8282,-4.9455,-5.0419,-5.0996,-5.1214,-5.1214,-5.1214,-5.1214,-5.1214,-5.1214,-5.1035,-5.0616,-4.9553,-4.9075,-4.8626,-4.7578,-4.7309,-4.7309,-4.7309,-4.7309,-4.7309,-4.7309,-4.7309,-4.7309,-4.7309,-4.7321,-4.7533,-4.7949,-4.8133,-4.837,-4.8537,-4.862,-4.862,-4.862,-4.862,-4.862,-4.862,-4.862,-4.862,-4.862,-4.862,-4.862,-4.862,-4.862,-4.862,-4.862,-4.862,-4.9163,-5.0322,-5.0843,-5.168,-5.2764,-5.328,-5.3501,-5.3501,-5.3501,-5.3501,-3.7769,-3.8014,-3.8574,-3.9198,-3.9352,-3.9419,0.0,0.0,0.0,-3.961,-3.9481,-3.9484,-3.9679,0.0,0.0,0.0,0.0,-4.1082,0.0,0.0,0.0,0.0,0.0,0.0,0.0,0.0,0.0,0.0,0.0,0.0,0.0,-3.9494,-3.9,-3.8841,-3.8945,-3.9154,-3.9697,-3.9697,-3.9697,-3.9697,-4.0249,-4.0802,-4.1354,-4.1907,-4.2459,-4.2974,-4.2974,0.0,0.0,-4.2974,-4.3184,-4.3615,-4.498,-4.6306,-4.7735,-4.9106,-5.0316,-5.1214,-5.1214,-5.1214,-5.1214,-5.1214,-5.1214,-5.1184,-5.099,-5.093,-5.069,-4.9583,-4.8985,-4.8476,-4.7549,-4.7309,-4.7309,-4.7309,-4.7309,-4.7309,-4.7309,-4.7309,-4.7309,-4.7309,-4.7306,-4.7533,-4.7779,-4.8118,-4.837,-4.8453,-4.8537,-4.862,-4.862,-4.862,-4.862,-4.862,-4.862,-4.862,-4.862,-4.862,-4.862,-4.862,-4.862,-4.862,-4.862,-4.862,-4.9163,-5.0245,-5.0843,-5.1606,-5.2677,-5.3195,-5.3501,-5.3501,-5.3501,-5.3501,-3.8132,-3.8463,-3.8994,-3.9009,-3.951,-3.991,0.0,0.0,-3.9625,-3.9409,-3.9424,-3.9619,-4.0277,-4.0099,0.0,0.0,0.0,0.0,0.0,0.0,0.0,0.0,0.0,0.0,0.0,0.0,0.0,0.0,0.0,0.0,0.0,-4.1604,-4.0718,-3.8841,-3.9154,-3.9478,-3.9697,-3.9697,-3.9697,-3.9697,-4.0249,-4.0802,-4.1354,-4.1907,-4.2459,0.0,0.0,0.0,0.0,-4.2974,-4.3615,-4.4778,-4.5302,-4.684,-4.8894,-4.9415,-5.0316,-5.1214,-5.1214,-5.1214,-5.1214,-5.1214,-5.1214,-5.1094,-5.0451,-5.0242,-5.0107,-4.9449,-4.8327,-4.7324,-4.7309,-4.7309,-4.7309,-4.7309,-4.7309,-4.7309,-4.7309,-4.7309,-4.7309,-4.7309,-4.7467,-4.7624,-4.7624,-4.7964,-4.8286,-4.8286,-4.8453,-4.862,-4.862,-4.862,-4.862,-4.862,-4.862,-4.862,-4.862,-4.862,-4.862,-4.862,-4.862,-4.862,-4.862,-4.862,-4.9374,-5.107,-5.107,-5.1898,-5.3501,-5.3518,-5.3501,-5.3501,-5.3501,-5.3501,-3.8984,-3.9092,-3.9536,-3.9622,-3.9632,-3.964,-3.9696,0.0,-3.9616,-3.9993,-4.0083,-4.0218,-4.0815,-4.0985,0.0,0.0,0.0,0.0,0.0,0.0,0.0,0.0,0.0,0.0,0.0,0.0,0.0,0.0,0.0,0.0,0.0,-4.2461,-4.1874,-4.1293,-4.1392,-4.1505,-4.1828,-4.1828,-4.1828,-4.1828,-4.2809,-4.2981,-4.2394,-4.3454,-4.3559,0.0,0.0,0.0,0.0,-4.2974,-4.3615,-4.4778,-4.6096,-4.7545,-4.8993,-5.022,-5.0917,-5.1214,-5.1214,-5.1214,-5.1214,-5.1214,-5.0915,-5.0511,-5.0301,-5.0242,-5.0017,-4.891,-4.7967,-4.7309,-4.7309,-4.7309,-4.7309,-4.7309,-4.7309,-4.7309,-4.7309,-4.7309,-4.7309,-4.7309,-4.7381,-4.7351,-4.7347,-4.7819,-4.8133,-4.8286,-4.8453,-4.862,-4.862,-4.862,-4.862,-4.862,-4.862,-4.862,-4.862,-4.862,-4.862,-4.862,-4.862,-4.862,-4.862,-4.862,-4.9163,-5.0245,-5.0843,-5.1606,-5.2677,-5.3212,-5.3501,-5.3501,-5.3501,-5.3501,0.0,-3.938,-3.9625,-3.9711,-3.9568,0.0,0.0,0.0,-3.9978,-4.0636,-4.0771,-4.098,-4.1486,-4.1622,0.0,0.0,0.0,0.0,0.0,0.0,0.0,0.0,0.0,0.0,0.0,0.0,0.0,0.0,0.0,0.0,0.0,-4.3829,-4.364,-4.3735,-4.2958,-4.2682,-4.2792,-4.2792,-4.2792,-4.2806,-4.3986,-4.3961,-4.2906,-4.416,-4.4357,0.0,0.0,0.0,0.0,-4.4235,-4.4872,-4.6032,-4.7238,-4.8482,-4.9625,-5.0728,-5.1214,-5.1214,-5.1214,-5.1214,-5.1214,-5.1214,-5.0601,-4.9823,-4.9583,-4.9494,-4.9284,-4.8207,-4.7623,-4.7309,-4.7309,-4.7309,-4.7309,-4.7309,-4.7309,-4.7309,-4.7309,-4.7309,-4.7309,-4.7309,-4.7309,-4.7279,-4.7291,-4.7664,-4.8049,-4.8133,-4.8453,-4.862,-4.862,-4.862,-4.862,-4.862,-4.862,-4.862,-4.862,-4.862,-4.862,-4.862,-4.862,-4.862,-4.862,-4.862,-4.9,-4.9868,-5.0691,-5.1533,-5.2307,-5.3127,-5.3501,-5.3501,-5.3501,-5.3501,0.0,-3.9424,0.0,0.0,0.0,0.0,0.0,0.0,0.0,-4.1309,-4.1444,-4.1654,-4.2312,-4.2041,0.0,0.0,0.0,0.0,0.0,0.0,0.0,0.0,0.0,0.0,0.0,0.0,0.0,0.0,0.0,0.0,0.0,-4.5504,-4.5595,-4.588,-4.4045,-4.2985,-4.2985,-4.2985,-4.2985,-4.2999,-4.4242,-4.4199,-4.3152,-4.4255,-4.4781,0.0,0.0,0.0,0.0,-4.6333,-4.6971,-4.8021,-4.861,-4.9542,-5.0596,-5.1041,-5.1214,-5.1214,-5.1214,-5.1214,-5.1214,-5.1109,-5.0227,-4.9075,-4.8416,-4.8222,-4.8087,-4.7474,-4.7309,-4.7309,-4.7309,-4.7309,-4.7309,-4.7309,-4.7309,-4.7309,-4.7309,-4.7309,-4.7309,-4.7309,-4.7309,-4.7309,-4.7309,-4.7724,-4.7964,-4.8049,-4.837,-4.862,-4.862,-4.862,-4.862,-4.862,-4.862,-4.862,-4.862,-4.862,-4.862,-4.862,-4.862,-4.862,-4.862,-4.862,-4.9,-4.9868,-5.0783,-5.1606,-5.2378,-5.3144,-5.3501,-5.3501,-5.3501,-5.3501,-4.0478,0.0,-3.9544,-4.0053,-4.0172,-4.0337,0.0,0.0,-4.1339,-4.1998,0.0,-4.2249,-4.2589,0.0,0.0,0.0,0.0,0.0,0.0,0.0,0.0,0.0,0.0,0.0,0.0,0.0,0.0,0.0,0.0,0.0,0.0,-4.579,-4.579,-4.588,-4.5398,-4.5201,-4.5201,-4.5201,-4.5201,-4.5216,-4.5895,-4.567,-4.4719,-4.5451,-4.5627,0.0,0.0,0.0,-4.6333,-4.6333,-4.6971,-4.8021,-4.861,-4.9542,-5.0596,-5.1041,-5.1214,-5.1214,-5.1214,-5.1214,-5.105,-5.0047,-4.9179,-4.8401,-4.7743,-4.7534,-4.7504,-4.7354,-4.7309,-4.7309,-4.7309,-4.7309,-4.7309,-4.7309,-4.7309,-4.7309,-4.7309,-4.7309,-4.7309,-4.7309,-4.7309,-4.7396,-4.7583,-4.7825,-4.8049,-4.8202,-4.8453,-4.862,-4.862,-4.862,-4.862,-4.862,-4.862,-4.862,-4.862,-4.862,-4.862,-4.862,-4.862,-4.862,-4.862,-4.862,-4.9,-4.9868,-5.1311,-5.2449,-5.3212,-5.3433,-5.3501,-5.3501,-5.3501,-5.3501,-4.1186,-4.039,-3.9963,-4.0307,-4.0621,-4.1025,-4.1683,0.0,0.0,0.0,0.0,0.0,0.0,0.0,0.0,0.0,0.0,0.0,0.0,0.0,0.0,0.0,0.0,0.0,0.0,0.0,0.0,0.0,0.0,0.0,0.0,-4.588,-4.588,-4.588,-4.588,-4.588,-4.588,-4.588,-4.588,-4.5895,-4.6519,-4.6254,-4.52,-4.5775,-4.5929,0.0,0.0,0.0,-4.7371,-4.7558,-4.8155,-4.905,-4.9513,-5.0124,-5.0662,-5.1026,-5.1214,-5.1214,-5.1214,-5.102,-5.0556,-4.9239,-4.8581,-4.8162,-4.7504,-4.7309,-4.7309,-4.7309,-4.7309,-4.7309,-4.7309,-4.7309,-4.7309,-4.7309,-4.7309,-4.7309,-4.7309,-4.7309,-4.7309,-4.7309,-4.7309,-4.7396,-4.7684,-4.791,-4.8049,-4.8286,-4.8453,-4.862,-4.862,-4.862,-4.862,-4.862,-4.862,-4.862,-4.862,-4.862,-4.862,-4.862,-4.862,-4.862,-4.862,-4.862,-4.9147,-5.04,-5.1311,-5.2291,-5.3501,-5.3501,-5.3501,-5.3501,-5.3501,-5.3501,-4.2077,-4.1207,-4.0696,-4.0696,-4.1115,-4.1713,-4.2357,0.0,0.0,0.0,0.0,0.0,0.0,0.0,0.0,0.0,0.0,0.0,0.0,0.0,0.0,0.0,0.0,0.0,0.0,0.0,0.0,0.0,0.0,0.0,0.0,-4.588,-4.588,-4.588,-4.588,-4.588,-4.588,-4.588,-4.588,-4.5895,-4.6432,-4.6203,-4.5345,-4.5839,-4.6121,-4.6206,0.0,0.0,-4.858,-4.8851,-4.9326,-5.0022,-5.0484,-5.0718,-5.0807,-5.112,-5.1154,-5.105,-5.096,-5.0496,-4.9748,-4.8641,-4.8222,-4.8027,-4.7474,-4.7309,-4.7309,-4.7309,-4.7309,-4.7309,-4.7309,-4.7309,-4.7309,-4.7309,-4.7309,-4.7309,-4.7309,-4.7309,-4.7309,-4.7309,-4.7309,-4.7396,-4.7684,-4.781,-4.8034,-4.8317,-4.8469,-4.862,-4.862,-4.862,-4.862,-4.862,-4.862,-4.862,-4.862,-4.862,-4.862,-4.862,-4.862,-4.862,-4.862,-4.8852,-4.9614,-5.107,-5.1369,-5.2131,-5.3501,-5.3501,-5.3501,-5.3501,-5.3501,-5.3501,-4.3299,-4.2683,-4.2058,-4.2058,-4.2132,-4.2387,0.0,0.0,0.0,0.0,0.0,0.0,0.0,0.0,0.0,0.0,0.0,0.0,0.0,0.0,0.0,0.0,0.0,0.0,0.0,0.0,0.0,0.0,0.0,0.0,0.0,-4.588,-4.588,-4.588,-4.588,-4.588,-4.588,-4.588,-4.588,-4.588,-4.5982,-4.5935,-4.5844,-4.5931,-4.6172,-4.6677,0.0,-4.7145,-4.7927,-4.8194,-4.8653,-4.9333,-4.9833,-5.0347,-5.0807,-5.112,-5.087,-5.0316,-4.9763,-4.9134,-4.8551,-4.8356,-4.7908,-4.7429,-4.7339,-4.7309,-4.7309,-4.7309,-4.7309,-4.7309,-4.7309,-4.7309,-4.7309,-4.7309,-4.7309,-4.7309,-4.7309,-4.7309,-4.7309,-4.7309,-4.7309,-4.7396,-4.7684,-4.7734,-4.7958,-4.8492,-4.8598,-4.862,-4.862,-4.862,-4.862,-4.862,-4.862,-4.862,-4.862,-4.862,-4.862,-4.862,-4.862,-4.862,-4.862,-4.9994,-5.0843,-5.107,-5.2433,-5.3264,-5.3501,-5.3501,-5.3501,-5.3501,-5.3501,-5.3501,-4.4234,-4.382,-4.3395,-4.2959,-4.2895,-4.297,0.0,0.0,0.0,0.0,0.0,0.0,0.0,0.0,0.0,0.0,0.0,0.0,0.0,0.0,0.0,0.0,0.0,0.0,0.0,0.0,0.0,0.0,0.0,0.0,0.0,0.0,-4.588,-4.588,-4.588,-4.588,-4.588,-4.588,-4.588,-4.588,-4.588,-4.588,-4.588,-4.588,-4.604,-4.6316,0.0,-4.6679,-4.7259,-4.7721,-4.8179,-4.886,-4.9352,-4.9714,-5.0075,-5.0393,-5.0259,-4.9884,-4.9164,-4.873,-4.84,-4.7893,-4.7549,-4.7309,-4.7309,-4.7309,-4.7309,-4.7309,-4.7309,-4.7309,-4.7309,-4.7309,-4.7309,-4.7309,-4.7309,-4.7309,-4.7309,-4.7309,-4.7309,-4.7309,-4.7309,-4.7396,-4.7568,-4.7764,-4.8003,-4.8363,-4.8567,-4.862,-4.862,-4.862,-4.862,-4.862,-4.862,-4.862,-4.862,-4.862,-4.862,-4.862,-4.862,-4.8769,-4.9325,-5.001,-5.0859,-5.1769,-5.2449,-5.3058,-5.3501,-5.3501,-5.3501,-5.3501,-5.3501,-5.3501,-4.5033,-4.4557,-4.4066,-4.3472,0.0,0.0,0.0,0.0,0.0,0.0,0.0,0.0,0.0,0.0,0.0,0.0,0.0,0.0,0.0,0.0,0.0,0.0,0.0,0.0,0.0,0.0,0.0,0.0,0.0,0.0,0.0,0.0,-4.588,-4.588,-4.588,-4.588,-4.588,-4.588,-4.588,-4.588,-4.588,-4.588,-4.588,-4.588,-4.588,-4.588,-4.588,-4.6156,-4.6606,-4.7151,-4.7715,-4.829,-4.885,-4.9134,-4.9374,-4.9674,-4.9674,-4.9509,-4.8638,-4.828,-4.8175,-4.7504,-4.7309,-4.7309,-4.7309,-4.7309,-4.7309,-4.7309,-4.7309,-4.7309,-4.7309,-4.7309,-4.7309,-4.7309,-4.7309,-4.7309,-4.7309,-4.7309,-4.7309,-4.7309,-4.7309,-4.7381,-4.7467,-4.7779,-4.8019,-4.8233,-4.8469,-4.862,-4.862,-4.862,-4.862,-4.862,-4.862,-4.862,-4.862,-4.862,-4.862,-4.862,-4.862,-4.9015,-4.9868,-5.0104,-5.0859,-5.2307,-5.2466,-5.2903,-5.3501,-5.3501,-5.3501,-5.3501,-5.3501,-5.3501,-4.5634,-4.4555,-4.3409,-4.3329,-4.3329,0.0,-4.3329,-4.3329,0.0,-4.3329,0.0,0.0,0.0,0.0,0.0,0.0,0.0,0.0,0.0,0.0,0.0,0.0,0.0,0.0,0.0,0.0,0.0,0.0,0.0,0.0,0.0,0.0,0.0,-4.588,-4.588,-4.588,-4.588,-4.588,-4.588,-4.588,-4.588,-4.588,-4.588,-4.588,-4.588,-4.588,-4.588,-4.5909,-4.6043,-4.6491,-4.7051,-4.7716,-4.8179,-4.873,-4.9329,-4.9372,-4.9042,-4.8608,-4.7653,-4.7384,-4.7384,-4.7324,-4.7309,-4.7309,-4.7309,-4.7309,-4.7309,-4.7309,-4.7309,-4.7309,-4.7309,-4.7309,-4.7309,-4.7309,-4.7309,-4.7309,-4.7309,-4.7309,-4.7309,-4.7309,-4.7309,-4.7294,-4.7309,-4.7533,-4.7858,-4.814,-4.8416,-4.862,-4.862,-4.862,-4.862,-4.862,-4.862,-4.862,-4.862,-4.862,-4.862,-4.862,-4.862,-4.9015,-4.9868,-5.0615,-5.1459,-5.2307,-5.3058,-5.3433,-5.3501,-5.3501,-5.3501,-5.3501,-5.3501,-5.3501,-4.5841,-4.4887,-4.3927,-4.3394,-4.3329,0.0,0.0,-4.3329,-4.3329,-4.3329,-4.3329,0.0,0.0,0.0,0.0,0.0,0.0,0.0,0.0,0.0,0.0,0.0,0.0,0.0,0.0,0.0,0.0,0.0,0.0,0.0,0.0,0.0,0.0,-4.588,-4.588,-4.588,-4.588,-4.588,-4.588,-4.588,-4.588,-4.588,-4.588,-4.588,-4.588,-4.588,-4.588,-4.597,-4.6135,-4.6506,-4.6816,-4.7214,-4.7581,-4.7833,-4.8042,-4.8025,-4.792,-4.7698,-4.7399,-4.7309,-4.7309,-4.7309,-4.7309,-4.7309,-4.7309,-4.7309,-4.7309,-4.7309,-4.7309,-4.7309,-4.7309,-4.7309,-4.7309,-4.7309,-4.7309,-4.7309,-4.7309,-4.7309,-4.7309,-4.7309,-4.7309,-4.7309,-4.7467,-4.7679,-4.8003,-4.8248,-4.8469,-4.862,-4.862,-4.862,-4.862,-4.862,-4.862,-4.862,-4.862,-4.862,-4.862,-4.862,-4.9081,-4.9789,-5.0615,-5.1385,-5.2219,-5.3058,-5.3365,-5.3501,-5.3501,-5.3501,-5.3501,-5.3501,-5.3501,-5.3501,-4.6182,-4.5316,-4.4373,0.0,0.0,0.0,-4.3329,-4.3329,-4.3329,-4.3329,-4.3329,0.0,0.0,0.0,0.0,0.0,0.0,0.0,0.0,0.0,0.0,0.0,0.0,0.0,0.0,0.0,0.0,0.0,0.0,0.0,0.0,0.0,0.0,0.0,-4.588,-4.588,-4.588,-4.588,-4.588,-4.588,-4.588,-4.588,-4.588,-4.588,-4.588,-4.588,-4.597,-4.6046,-4.621,-4.658,-4.6858,-4.7019,-4.7207,-4.7309,-4.7309,-4.7309,-4.7309,-4.7309,-4.7309,-4.7309,-4.7309,-4.7309,-4.7309,-4.7309,-4.7309,-4.7309,-4.7309,-4.7309,-4.7309,-4.7309,-4.7309,-4.7309,-4.7309,-4.7309,-4.7309,-4.7309,-4.7309,-4.7309,-4.7309,-4.7309,-4.7381,-4.7467,-4.7553,-4.788,-4.8133,-4.8286,-4.8453,-4.862,-4.862,-4.862,-4.862,-4.862,-4.862,-4.862,-4.862,-4.862,-4.862,-4.862,-4.9405,-5.0245,-5.107,-5.1842,-5.2677,-5.3501,-5.3501,-5.3501,-5.3501,-5.3501,-5.3501,-5.3501,-5.3501,-5.3501,-4.6811,-4.5665,-4.451,0.0,0.0,0.0,0.0,0.0,0.0,0.0,0.0,0.0,0.0,0.0,0.0,0.0,0.0,0.0,0.0,0.0,0.0,0.0,0.0,0.0,0.0,0.0,0.0,0.0,0.0,0.0,0.0,0.0,0.0,0.0,-4.588,-4.588,-4.588,-4.588,-4.588,-4.588,-4.588,-4.588,-4.588,-4.588,-4.588,-4.588,-4.6135,-4.621,-4.621,-4.6741,-4.7019,-4.7309,-4.7309,-4.7309,-4.7309,-4.7309,-4.7309,-4.7309,-4.7309,-4.7309,-4.7309,-4.7309,-4.7309,-4.7309,-4.7309,-4.7309,-4.7309,-4.7309,-4.7309,-4.7309,-4.7309,-4.7309,-4.7309,-4.7309,-4.7309,-4.7309,-4.7309,-4.7309,-4.7309,-4.7309,-4.7467,-4.7624,-4.7639,-4.7964,-4.8286,-4.8286,-4.8453,-4.862,-4.862,-4.862,-4.862,-4.862,-4.862,-4.862,-4.862,-4.862,-4.862,-4.862,-4.9405,-5.0245,-5.107,-5.1842,-5.2677,-5.3501,-5.3501,-5.3501,-5.3501,-5.3501,-5.3501,-5.3501,-5.3501,-5.3501,-4.6182,-4.5243,0.0,0.0,0.0,0.0,0.0,0.0,0.0,0.0,0.0,0.0,0.0,0.0,0.0,0.0,0.0,0.0,0.0,0.0,0.0,0.0,0.0,0.0,0.0,0.0,0.0,0.0,0.0,0.0,0.0,0.0,0.0,0.0,-4.6417,-4.6417,-4.6417,-4.6417,-4.6328,-4.6135,-4.6135,-4.606,-4.588,-4.588,-4.588,-4.588,-4.6135,-4.6314,-4.6506,-4.7033,-4.7207,-4.7309,-4.7309,-4.7309,-4.7309,-4.7309,-4.7309,-4.7309,-4.7309,-4.7309,-4.7309,-4.7309,-4.7309,-4.7309,-4.7309,-4.7309,-4.7309,-4.7309,-4.7309,-4.7309,-4.7309,-4.7309,-4.7309,-4.7309,-4.7309,-4.7309,-4.7309,-4.7309,-4.7294,-4.7467,-4.7538,-4.7709,-4.8049,-4.8202,-4.837,-4.8453,-4.8537,-4.862,-4.862,-4.862,-4.862,-4.862,-4.862,-4.862,-4.862,-4.862,-4.862,-4.862,-4.9405,-5.0245,-5.107,-5.1842,-5.2677,-5.3501,-5.3501,-5.3501,-5.3501,-5.3501,-5.3501,-5.3501,-5.3501,-5.3501,-4.6324,0.0,0.0,0.0,0.0,0.0,0.0,0.0,0.0,0.0,0.0,0.0,0.0,0.0,0.0,0.0,0.0,0.0,0.0,0.0,0.0,0.0,0.0,0.0,0.0,0.0,0.0,0.0,0.0,0.0,0.0,0.0,0.0,0.0,-4.6594,-4.6594,-4.6594,-4.6594,-4.6506,-4.6403,-4.6403,-4.6328,-4.615,-4.597,-4.597,-4.606,-4.6299,-4.6668,-4.6858,-4.7207,-4.7309,-4.7309,-4.7309,-4.7309,-4.7309,-4.7309,-4.7309,-4.7309,-4.7309,-4.7309,-4.7309,-4.7309,-4.7309,-4.7309,-4.7309,-4.7309,-4.7309,-4.7309,-4.7309,-4.7309,-4.7309,-4.7309,-4.7309,-4.7309,-4.7309,-4.7309,-4.7309,-4.7381,-4.7467,-4.7553,-4.7709,-4.7964,-4.8286,-4.837,-4.8453,-4.8604,-4.862,-4.862,-4.862,-4.862,-4.862,-4.862,-4.862,-4.862,-4.862,-4.862,-4.862,-4.862,-4.9405,-5.0245,-5.107,-5.1842,-5.2677,-5.3501,-5.3501,-5.3501,-5.3501,-5.3501,-5.3501,-5.3501,-5.3501,-5.3501,-4.6896,0.0,0.0,0.0,0.0,0.0,0.0,0.0,0.0,0.0,0.0,0.0,0.0,0.0,0.0,0.0,0.0,0.0,0.0,0.0,0.0,0.0,0.0,0.0,0.0,0.0,0.0,0.0,0.0,0.0,0.0,0.0,0.0,-4.6683,-4.6683,-4.6683,-4.6683,-4.6683,-4.6683,-4.6594,-4.6594,-4.6594,-4.6594,-4.615,-4.6046,-4.6299,-4.6741,-4.7019,-4.7309,-4.7309,-4.7309,-4.7309,-4.7309,-4.7309,-4.7309,-4.7309,-4.7309,-4.7309,-4.7309,-4.7309,-4.7309,-4.7309,-4.7309,-4.7309,-4.7309,-4.7309,-4.7309,-4.7309,-4.7309,-4.7309,-4.7309,-4.7309,-4.7309,-4.7309,-4.7309,-4.7309,-4.7309,-4.7467,-4.7639,-4.7624,-4.7964,-4.8286,-4.8286,-4.8453,-4.862,-4.862,-4.862,-4.862,-4.862,-4.862,-4.862,-4.862,-4.862,-4.862,-4.862,-4.862,-4.8604,-4.8687,-4.9486,-5.0322,-5.1145,-5.1915,-5.2677,-5.3501,-5.3501,-5.3501,-5.3501,-5.3501,-5.3501,-5.3501,-5.3501,-5.3601,0.0,-4.539,0.0,0.0,0.0,0.0,0.0,0.0,0.0,0.0,0.0,0.0,0.0,0.0,0.0,0.0,0.0,0.0,0.0,0.0,0.0,0.0,0.0,0.0,0.0,0.0,0.0,0.0,0.0,0.0,0.0,0.0,0.0,-4.7121,-4.7121,-4.7121,-4.7121,-4.7121,-4.7033,0.0,-4.6844,-4.6756,-4.6594,-4.6506,-4.6594,-4.6756,-4.6829,-4.7019,-4.7309,-4.7309,-4.7309,-4.7309,-4.7309,-4.7309,-4.7309,-4.7309,-4.7309,-4.7309,-4.7309,-4.7309,-4.7309,-4.7309,-4.7309,-4.7309,-4.7309,-4.7309,-4.7309,-4.7309,-4.7309,-4.7309,-4.7309,-4.7309,-4.7309,-4.7309,-4.7309,-4.7309,-4.7309,-4.7467,-4.7624,-4.788,-4.8118,-4.837,-4.8537,-4.8537,-4.862,-4.862,-4.862,-4.862,-4.862,-4.862,-4.862,-4.862,-4.862,-4.862,-4.862,-4.862,-4.8852,-4.9566,-4.9789,-5.0554,-5.2004,-5.2236,-5.2677,-5.3501,-5.3501,-5.3501,-5.3501,-5.3501,-5.3501,-5.3501,-5.3601,-5.3651,0.0,0.0,0.0,0.0,0.0,0.0,0.0,0.0,0.0,0.0,0.0,0.0,0.0,0.0,0.0,0.0,0.0,0.0,0.0,0.0,0.0,0.0,0.0,0.0,0.0,0.0,0.0,0.0,0.0,0.0,0.0,-4.7309,-4.7309,-4.7309,-4.7309,-4.7309,-4.7309,-4.7309,-4.7207,-4.7106,-4.7106,-4.7033,-4.6946,-4.6756,-4.6844,-4.6916,-4.7019,-4.7207,-4.7309,-4.7309,-4.7309,-4.7309,-4.7309,-4.7309,-4.7309,-4.7309,-4.7309,-4.7309,-4.7309,-4.7309,-4.7309,-4.7309,-4.7309,-4.7309,-4.7309,-4.7309,-4.7309,-4.7309,-4.7309,-4.7309,-4.7309,-4.7309,-4.7309,-4.7309,-4.7309,-4.7309,-4.7309,-4.7553,-4.7794,-4.7964,-4.8202,-4.8453,-4.8604,-4.862,-4.862,-4.862,-4.862,-4.862,-4.862,-4.862,-4.862,-4.862,-4.862,-4.862,-4.862,-4.9,-4.9405,-4.9868,-5.0631,-5.1401,-5.2236,-5.2677,-5.3058,-5.3501,-5.3501,-5.3501,-5.3501,-5.3501,-5.3501,-5.3501,-5.3551,-5.3668,0.0,0.0,0.0,0.0,0.0,0.0,0.0,0.0,0.0,0.0,0.0,0.0,0.0,0.0,0.0,0.0,0.0,0.0,0.0,0.0,0.0,0.0,0.0,0.0,0.0,0.0,0.0,0.0,0.0,0.0,-4.6935,-4.695,-4.695,-4.695,-4.695,-4.695,-4.695,-4.695,-4.695,-4.6965,-4.707,-4.713,-4.713,-4.7061,-4.6931,-4.7019,-4.7207,-4.7309,-4.7309,-4.7309,-4.7309,-4.7309,-4.7309,-4.7309,-4.7309,-4.7309,-4.7309,-4.7309,-4.7309,-4.7309,-4.7309,-4.7309,-4.7309,-4.7309,-4.7309,-4.7309,-4.7309,-4.7309,-4.7309,-4.7309,-4.7309,-4.7309,-4.7309,-4.7309,-4.7309,-4.7309,-4.7309,-4.7639,-4.7964,-4.7934,-4.8271,-4.862,-4.862,-4.862,-4.862,-4.862,-4.862,-4.862,-4.862,-4.862,-4.862,-4.862,-4.862,-4.862,-4.862,-4.9405,-4.9947,-5.0104,-5.1475,-5.2378,-5.2537,-5.3127,-5.3501,-5.3501,-5.3501,-5.3501,-5.3501,-5.3501,-5.3501,-5.3501,-5.3501,-5.3601,0.0,0.0,0.0,0.0,0.0,0.0,0.0,0.0,0.0,0.0,0.0,0.0,0.0,0.0,0.0,0.0,0.0,0.0,0.0,0.0,0.0,0.0,0.0,0.0,0.0,0.0,0.0,0.0,0.0,0.0,-4.5559,-4.5559,-4.5559,-4.5559,-4.5559,-4.5559,-4.5559,-4.5559,-4.5559,-4.5559,-4.6172,-4.6456,-4.6471,-4.6954,-4.7207,-4.7207,-4.7309,-4.7309,-4.7309,-4.7309,-4.7309,-4.7309,-4.7309,-4.7309,-4.7309,-4.7309,-4.7309,-4.7309,-4.7309,-4.7309,-4.7309,-4.7309,-4.7309,-4.7309,-4.7309,-4.7309,-4.7309,-4.7309,-4.7309,-4.7309,-4.7309,-4.7309,-4.7309,-4.7309,-4.7309,-4.7309,-4.7309,-4.7639,-4.7934,-4.7743,-4.8225,-4.862,-4.862,-4.862,-4.862,-4.862,-4.862,-4.862,-4.862,-4.862,-4.862,-4.862,-4.862,-4.862,-4.862,-4.9405,-5.0167,-5.0919,-5.1769,-5.2607,-5.328,-5.3433,-5.3501,-5.3501,-5.3501,-5.3501,-5.3501,-5.3501,-5.3501,-5.3501,-5.3601,-5.3717,0.0,0.0,0.0,0.0,0.0,0.0,0.0,0.0,0.0,0.0,0.0,0.0,0.0,0.0,0.0,0.0,0.0,0.0,0.0,0.0,0.0,0.0,0.0,0.0,0.0,0.0,0.0,0.0,0.0,-4.49,-4.5274,-4.5289,-4.5289,-4.5289,-4.5289,-4.5289,-4.5289,-4.5289,-4.5289,-4.5289,-4.5603,-4.5753,-4.5753,-4.6037,-4.6591,-4.7309,-4.7309,-4.7309,-4.7309,-4.7309,-4.7309,-4.7309,-4.7309,-4.7309,-4.7309,-4.7309,-4.7309,-4.7309,-4.7309,-4.7309,-4.7309,-4.7309,-4.7309,-4.7309,-4.7309,-4.7309,-4.7309,-4.7309,-4.7309,-4.7309,-4.7309,-4.7309,-4.7309,-4.7309,-4.7309,-4.7309,-4.7309,-4.7639,-4.8034,-4.8225,-4.8407,-4.862,-4.862,-4.862,-4.862,-4.862,-4.862,-4.862,-4.862,-4.862,-4.8769,-4.9244,-4.9325,-4.947,-4.9994,-5.0783,-5.1401,-5.1769,-5.252,-5.3127,-5.3501,-5.3501,-5.3501,-5.3501,-5.3501,-5.3501,-5.3501,-5.3501,-5.3501,-5.3501,-5.3551,-5.3601,0.0,0.0,0.0,0.0,0.0,0.0,0.0,0.0,0.0,0.0,0.0,0.0,0.0,0.0,0.0,0.0,0.0,0.0,0.0,0.0,0.0,0.0,0.0,0.0,0.0,0.0,0.0,0.0,0.0,-4.4272,-4.4766,-4.5026,-4.5107,-4.5107,-4.5107,-4.5107,-4.5107,-4.4862,-4.4796,-4.4796,-4.496,-4.505,-4.505,-4.5214,-4.5843,-4.68,-4.698,-4.7145,-4.7309,-4.7309,-4.7309,-4.7309,-4.7309,-4.7309,-4.7309,-4.7309,-4.7309,-4.7309,-4.7309,-4.7189,-4.7055,-4.7055,-4.6935,-4.68,-4.68,-4.68,-4.68,-4.68,-4.68,-4.68,-4.68,-4.68,-4.68,-4.68,-4.68,-4.689,-4.7306,-4.7739,-4.8149,-4.8453,-4.8537,-4.862,-4.862,-4.862,-4.862,-4.862,-4.862,-4.862,-4.862,-4.8769,-4.9163,-4.9789,-5.0104,-5.0477,-5.107,-5.1842,-5.2307,-5.2307,-5.3058,-5.3501,-5.3501,-5.3501,-5.3501,-5.3501,-5.3501,-5.3501,-5.3501,-5.3501,-5.3501,-5.3501,-5.3551,-5.3601,0.0,0.0,0.0,0.0,0.0,0.0,0.0,0.0,0.0,0.0,0.0,0.0,0.0,0.0,0.0,0.0,0.0,0.0,0.0,0.0,0.0,0.0,0.0,0.0,0.0,0.0,0.0,0.0,0.0,-4.3404,-4.3434,-4.4096,-4.4542,-4.4542,-4.4542,-4.4542,-4.4542,-4.3814,-4.3434,-4.3449,-4.4062,-4.4362,-4.4392,-4.5005,-4.5334,-4.5439,-4.6097,-4.6726,-4.7309,-4.7309,-4.7309,-4.7309,-4.7309,-4.7309,-4.7309,-4.7309,-4.7309,-4.7309,-4.7309,-4.689,-4.6367,-4.6367,-4.5933,-4.5394,-4.5394,-4.5394,-4.5394,-4.5394,-4.5394,-4.5394,-4.5394,-4.5394,-4.5394,-4.5394,-4.5394,-4.5822,-4.7267,-4.7855,-4.8225,-4.8301,-4.8453,-4.862,-4.862,-4.862,-4.862,-4.862,-4.862,-4.862,-4.862,-4.9325,-4.9868,-4.9884,-5.0554,-5.107,-5.107,-5.1842,-5.2307,-5.2307,-5.3058,-5.3501,-5.3501,-5.3501,-5.3501,-5.3501,-5.3501,-5.3501,-5.3501,-5.3501,-5.3501,-5.3501,-5.3668,-5.37,0.0,0.0,0.0,0.0,0.0,0.0,0.0,0.0,0.0,0.0,0.0,0.0,0.0,0.0,0.0,0.0,0.0,0.0,0.0,0.0,0.0,0.0,0.0,0.0,0.0,0.0,0.0,0.0,0.0,0.0,-4.4812,-4.5227,-4.5374,-4.5258,-4.5258,-4.5258,-4.5258,-4.4434,-4.4066,-4.4082,-4.3792,-4.3688,-4.3688,-4.3928,-4.4272,-4.4676,-4.493,-4.5409,-4.6022,-4.6022,-4.6022,-4.6022,-4.6022,-4.6022,-4.6022,-4.6022,-4.6022,-4.6022,-4.6022,-4.5858,-4.5663,-4.5663,-4.5499,-4.5289,-4.5289,-4.5289,-4.5289,-4.5289,-4.5289,-4.5289,-4.5289,-4.5289,-4.5289,-4.5289,-4.5289,-4.5507,-4.6139,-4.6872,-4.7646,-4.8377,-4.8537,-4.862,-4.862,-4.862,-4.862,-4.862,-4.862,-4.8769,-4.9405,-4.9725,-5.0338,-5.1311,-5.1696,-5.2076,-5.259,-5.2903,-5.3058,-5.3058,-5.3348,-5.3501,-5.3501,-5.3501,-5.3501,-5.3501,-5.3501,-5.3501,-5.3501,-5.3618,-5.3601,-5.3668,-5.3783,-5.3915,0.0,0.0,0.0,0.0,0.0,0.0,0.0,0.0,0.0,0.0,0.0,0.0,0.0,0.0,0.0,0.0,0.0,0.0,0.0,0.0,0.0,0.0,0.0,0.0,0.0,0.0,0.0,0.0,0.0,0.0,-4.5809,-4.6205,-4.6292,-4.6182,-4.6198,-4.6056,-4.5697,-4.5184,-4.4737,-4.451,-4.3927,-4.3551,-4.3329,-4.3329,-4.3569,-4.3988,-4.3988,-4.4481,-4.5289,-4.5289,-4.5289,-4.5289,-4.5289,-4.5289,-4.5289,-4.5289,-4.5289,-4.5289,-4.5289,-4.5155,-4.496,-4.496,-4.4811,-4.4631,-4.4631,-4.4631,-4.4631,-4.4631,-4.4631,-4.4631,-4.4631,-4.4631,-4.4631,-4.4631,-4.4728,-4.4869,-4.5324,-4.6243,-4.7265,-4.8024,-4.8383,-4.862,-4.862,-4.862,-4.862,-4.862,-4.8852,-4.9244,-4.9789,-5.04,-5.1102,-5.2164,-5.2537,-5.2903,-5.3433,-5.3501,-5.3501,-5.3501,-5.3501,-5.3501,-5.3501,-5.3501,-5.3501,-5.3501,-5.3501,-5.3501,-5.3551,-5.3651,-5.37,-5.3717,-5.398,-5.4175,0.0,0.0,0.0,0.0,0.0,0.0,0.0,0.0,0.0,0.0,0.0,0.0,0.0,0.0,0.0,0.0,0.0,0.0,0.0,0.0,0.0,0.0,0.0,0.0,0.0,0.0,0.0,0.0,0.0,-4.6064,-4.6244,-4.6952,-4.7255,-4.7186,-4.7118,-4.6689,-4.5769,-4.5769,-4.5332,-4.451,-4.451,-4.4066,-4.3329,-4.3329,-4.3329,-4.3329,-4.3329,-4.4062,-4.5229,-4.5229,-4.5229,-4.5229,-4.5229,-4.5229,-4.5229,-4.5229,-4.5229,-4.5229,-4.5229,-4.4811,-4.4287,-4.4287,-4.3853,-4.3329,-4.3329,-4.3329,-4.3329,-4.3329,-4.3329,-4.3329,-4.3329,-4.3329,-4.3329,-4.3329,-4.3518,-4.3935,-4.4822,-4.5976,-4.7,-4.7262,-4.7963,-4.8589,-4.8589,-4.8604,-4.862,-4.862,-4.9405,-4.9947,-4.9947,-5.1311,-5.2307,-5.2307,-5.3058,-5.3501,-5.3501,-5.3501,-5.3501,-5.3501,-5.3501,-5.3501,-5.3501,-5.3501,-5.3501,-5.3501,-5.3501,-5.3551,-5.37,-5.37,-5.37,-5.37,-5.4028,-5.4303,-4.8001,0.0,0.0,0.0,0.0,0.0,0.0,0.0,0.0,0.0,0.0,0.0,0.0,0.0,0.0,0.0,0.0,0.0,0.0,0.0,0.0,0.0,0.0,0.0,0.0,0.0,0.0,0.0,-4.6848,-4.7172,-4.7836,-4.8048,-4.8129,-4.8129,-4.7951,-4.7737,-4.7522,-4.6811,-4.6111,-4.5332,-4.4812,-4.4066,-4.3329,-4.3329,-4.3329,-4.3329,-4.3329,-4.3539,-4.3868,-4.3868,-4.3868,-4.3868,-4.3868,-4.3868,-4.3868,-4.3868,-4.3868,-4.3868,-4.3868,-4.3763,-4.3599,-4.3599,-4.3479,-4.3329,-4.3329,-4.3329,-4.3329,-4.3329,-4.3329,-4.3329,-4.3329,-4.3423,-4.3596,-4.3596,-4.3754,-4.4033,-4.4449,-4.5166,-4.5978,-4.6628,-4.7338,-4.7881,-4.7881,-4.8836,-4.9566,-4.9566,-5.0245,-5.1011,-5.1549,-5.2004,-5.2537,-5.3127,-5.3365,-5.3501,-5.3501,-5.3501,-5.3501,-5.3501,-5.3501,-5.3501,-5.3501,-5.3501,-5.3501,-5.3501,-5.3501,-5.3501,-5.3551,-5.38,-5.398,-5.411,-5.4303,-5.4448,0.0,0.0,0.0,0.0,0.0,0.0,-4.7337,-4.7337,0.0,0.0,0.0,0.0,0.0,0.0,0.0,0.0,0.0,0.0,0.0,0.0,0.0,0.0,0.0,0.0,0.0,0.0,0.0,-4.7737,-4.7901,-4.8161,-4.8673,-4.8673,-4.8673,-4.8627,-4.842,-4.8292,-4.8227,-4.7605,-4.6759,-4.5697,-4.5243,-4.4358,-4.3329,-4.3329,-4.3329,-4.3329,-4.3329,-4.3329,-4.3329,-4.3329,-4.3329,-4.3329,-4.3329,-4.3329,-4.3329,-4.3329,-4.3329,-4.3329,-4.3329,-4.3329,-4.3329,-4.3329,-4.3329,-4.3329,-4.3329,-4.3329,-4.3329,-4.3329,-4.3329,-4.3329,-4.3329,-4.3518,-4.369,-4.369,-4.391,-4.4127,-4.4281,-4.4664,-4.5217,-4.6049,-4.6933,-4.762,-4.762,-4.8637,-4.9445,-4.9445,-5.0422,-5.1277,-5.174,-5.2407,-5.2989,-5.3433,-5.3501,-5.3501,-5.3501,-5.3501,-5.3501,-5.3501,-5.3501,-5.3501,-5.3501,-5.3501,-5.3501,-5.3501,-5.3501,-5.3501,-5.3601,-5.3866,-5.411,-5.4303,-5.4448,-5.4512,0.0,0.0,0.0,0.0,0.0,0.0,-4.8001,-4.8001,-4.8001,0.0,0.0,0.0,0.0,0.0,0.0,0.0,0.0,0.0,0.0,0.0,0.0,0.0,0.0,0.0,0.0,-4.782,-4.8373,-4.8786,-4.8832,-4.8894,-4.9001,-4.9001,-4.8956,-4.8849,-4.8627,-4.842,-4.8227,-4.8066,-4.7218,-4.5697,-4.5697,-4.4887,-4.3329,-4.3329,-4.3329,-4.3329,-4.3329,-4.3329,-4.3329,-4.3329,-4.3329,-4.3329,-4.3329,-4.3329,-4.3329,-4.3329,-4.3329,-4.3329,-4.3329,-4.3329,-4.3329,-4.3329,-4.3329,-4.3329,-4.3329,-4.3329,-4.3329,-4.3329,-4.3329,-4.3329,-4.3329,-4.3518,-4.3769,-4.3769,-4.4065,-4.4358,-4.4358,-4.4572,-4.4893,-4.5511,-4.6669,-4.764,-4.7731,-4.8375,-4.8933,-4.8933,-5.0183,-5.1085,-5.1085,-5.237,-5.3247,-5.3247,-5.3247,-5.3281,-5.3365,-5.3365,-5.3399,-5.3501,-5.3501,-5.3501,-5.3501,-5.3501,-5.3501,-5.3501,-5.3416,-5.3415,-5.3581,-5.3881,-5.4192,-5.4448,-5.4425,-5.4391,0.0,0.0,0.0,0.0,0.0,0.0,-4.8001,-4.8001,-4.8001,0.0,0.0,0.0,0.0,0.0,0.0,0.0,0.0,0.0,0.0,0.0,0.0,0.0,0.0,0.0,0.0,-4.8098,-4.8373,-4.8786,-4.8894,-4.894,-4.9001,-4.9001,-4.9001,-4.894,-4.8673,-4.8483,-4.842,-4.8115,-4.7218,-4.5697,-4.5697,-4.4887,-4.3329,-4.3329,-4.3329,-4.3329,-4.3329,-4.3329,-4.3329,-4.3329,-4.3329,-4.3329,-4.3329,-4.3329,-4.3329,-4.3329,-4.3329,-4.3329,-4.3329,-4.3329,-4.3329,-4.3329,-4.3329,-4.3329,-4.3329,-4.3329,-4.3329,-4.3329,-4.3329,-4.3329,-4.3329,-4.3581,-4.391,-4.391,-4.4281,-4.4511,-4.4511,-4.5067,-4.5526,-4.5667,-4.6323,-4.7078,-4.7646,-4.8898,-4.9796,-4.9796,-5.0543,-5.1208,-5.1208,-5.1425,-5.1657,-5.1657,-5.1657,-5.1894,-5.2486,-5.2536,-5.2807,-5.3467,-5.3501,-5.3501,-5.3501,-5.3501,-5.3501,-5.3501,-5.2858,-5.2619,-5.2833,-5.3755,-5.4158,-5.4222,-5.3828,-5.3615,0.0,0.0,0.0,-4.8001,0.0,0.0,0.0,-4.8001,-4.8001,0.0,0.0,0.0,0.0,0.0,0.0,0.0,0.0,0.0,0.0,0.0,0.0,0.0,0.0,0.0,0.0,-4.8436,-4.8627,-4.8894,-4.894,-4.9001,-4.9001,-4.9001,-4.9001,-4.9001,-4.8753,-4.8627,-4.8483,-4.8244,-4.7253,-4.5697,-4.5697,-4.4887,-4.3329,-4.3329,-4.3329,-4.3329,-4.3329,-4.3329,-4.3329,-4.3329,-4.3329,-4.3329,-4.3329,-4.3329,-4.3329,-4.3329,-4.3329,-4.3329,-4.3329,-4.3329,-4.3329,-4.3329,-4.3329,-4.3329,-4.3329,-4.3329,-4.3329,-4.3329,-4.3329,-4.3329,-4.3423,-4.3754,-4.4065,-4.4143,-4.4358,-4.4572,-4.4572,-4.5216,-4.5841,-4.6198,-4.6808,-4.7399,-4.7828,-4.8746,-4.949,-4.949,-5.0149,-5.0659,-5.0659,-5.098,-5.1217,-5.1217,-5.1217,-5.1369,-5.1725,-5.1758,-5.1928,-5.2334,-5.2367,-5.2367,-5.2367,-5.2367,-5.2367,-5.2367,-5.1961,-5.184,-5.2051,-5.2665,-5.298,-5.3107,-5.2932,-5.2804,0.0,0.0,0.0,0.0,0.0,-4.8001,0.0,0.0,0.0,0.0,0.0,0.0,0.0,0.0,0.0,0.0,0.0,0.0,0.0,0.0,0.0,0.0,0.0,0.0,0.0,-4.8707,-4.8894,-4.9001,-4.9001,-4.9001,-4.9001,-4.9001,-4.9001,-4.9001,-4.8894,-4.8707,-4.8483,-4.8292,-4.7388,-4.5697,-4.5697,-4.4887,-4.3329,-4.3329,-4.3329,-4.3329,-4.3329,-4.3329,-4.3329,-4.3329,-4.3329,-4.3329,-4.3329,-4.3329,-4.3329,-4.3329,-4.3329,-4.3329,-4.3329,-4.3329,-4.3329,-4.3329,-4.3329,-4.3329,-4.3329,-4.3329,-4.3329,-4.3329,-4.3329,-4.3344,-4.3596,-4.3832,-4.4065,-4.4281,-4.4572,-4.4783,-4.4783,-4.5478,-4.6324,-4.688,-4.7622,-4.8096,-4.8096,-4.8593,-4.9001,-4.9001,-4.9509,-4.9881,-4.9881,-5.0422,-5.0794,-5.0794,-5.0794,-5.0845,-5.0997,-5.0997,-5.1065,-5.12,-5.1217,-5.1217,-5.1217,-5.1217,-5.1217,-5.1282,-5.1146,-5.1142,-5.1332,-5.1304,-5.1559,-5.1974,-5.2019,-5.2011,0.0,0.0,0.0,0.0,-4.8001,0.0,0.0,0.0,0.0,0.0,0.0,0.0,0.0,0.0,0.0,0.0,0.0,0.0,0.0,0.0,0.0,0.0,0.0,0.0,0.0,0.0,-4.9001,-4.9001,-4.9001,-4.9001,-4.9001,-4.9001,-4.9001,-4.9001,-4.8894,-4.8707,-4.8483,-4.8292,-4.7388,-4.5697,-4.5697,-4.4887,-4.3329,-4.3329,-4.3329,-4.3329,-4.3329,-4.3329,-4.3329,-4.3329,-4.3329,-4.3329,-4.3329,-4.3329,-4.3329,-4.3329,-4.3329,-4.3329,-4.3329,-4.3329,-4.3329,-4.3329,-4.3329,-4.3329,-4.3329,-4.3329,-4.3329,-4.3329,-4.3329,-4.3344,-4.3596,-4.3832,-4.4065,-4.4281,-4.4918,-4.5567,-4.5567,-4.6657,-4.7671,-4.7754,-4.837,-4.8861,-4.8861,-4.894,-4.9001,-4.9001,-4.9069,-4.912,-4.912,-4.9204,-4.9255,-4.9255,-4.9255,-4.9509,-5.0168,-5.0219,-5.0507,-5.1166,-5.1217,-5.1217,-5.1217,-5.1217,-5.1282,-5.1473,-5.0844,-5.0567,-5.069,-5.0172,-5.0652,-5.1974,-5.1485,-5.1235,0.0,0.0,0.0,0.0,0.0,0.0,-4.8001,0.0,-4.8001,0.0,0.0,0.0,0.0,0.0,0.0,0.0,0.0,0.0,0.0,0.0,0.0,0.0,0.0,0.0,0.0,0.0,0.0,0.0,-4.9001,-4.9001,-4.9001,-4.9001,-4.9001,-4.9001,-4.8956,-4.8753,-4.8483,-4.842,-4.7655,-4.6324,-4.5897,-4.511,-4.3989,-4.3472,-4.3329,-4.3329,-4.3329,-4.3329,-4.3329,-4.3329,-4.3329,-4.3329,-4.3329,-4.3329,-4.3329,-4.3329,-4.3329,-4.3329,-4.3329,-4.3329,-4.3329,-4.3329,-4.3329,-4.3329,-4.3329,-4.3329,-4.3329,-4.3329,-4.3423,-4.366,-4.4312,-4.4692,-4.4977,-4.5624,-4.604,-4.6324,-4.6324,-4.7137,-4.7885,-4.7885,-4.8513,-4.9001,-4.9001,-4.9001,-4.9001,-4.9001,-4.9001,-4.9001,-4.9001,-4.9001,-4.9001,-4.9001,-4.9001,-4.9137,-4.9441,-4.9458,-4.9593,-4.9915,-4.9932,-4.9932,-4.9932,-4.9994,-5.0102,-5.0181,-4.9998,-4.9966,-5.0069,-4.9803,-5.011,-5.0806,-5.0555,-5.0476,-4.8001,0.0,0.0,0.0,0.0,0.0,0.0,0.0,0.0,0.0,0.0,0.0,0.0,0.0,0.0,0.0,0.0,0.0,0.0,0.0,0.0,0.0,0.0,0.0,0.0,0.0,0.0,-4.9001,-4.9001,-4.9001,-4.9001,-4.9001,-4.9001,-4.9001,-4.9001,-4.8815,-4.8483,-4.8483,-4.7918,-4.6811,-4.604,-4.5258,-4.4434,-4.3708,-4.3329,-4.3329,-4.3329,-4.3329,-4.3329,-4.3329,-4.3329,-4.3329,-4.3329,-4.3329,-4.3329,-4.3329,-4.3329,-4.3329,-4.3329,-4.3329,-4.3329,-4.3329,-4.3329,-4.3329,-4.3329,-4.3329,-4.3329,-4.3423,-4.3518,-4.3895,-4.4887,-4.5258,-4.5608,-4.6604,-4.6949,-4.7085,-4.7085,-4.7688,-4.8225,-4.8225,-4.8656,-4.9001,-4.9001,-4.9001,-4.9001,-4.9001,-4.9001,-4.9001,-4.9001,-4.9001,-4.9001,-4.9001,-4.9001,-4.9001,-4.9001,-4.9001,-4.9001,-4.9001,-4.9001,-4.9001,-4.9001,-4.9107,-4.9229,-4.929,-4.9471,-4.9607,-4.9784,-4.9784,-4.986,-5.0011,-5.0011,-5.0011,0.0,0.0,0.0,-4.8001,0.0,0.0,0.0,0.0,-4.8483,0.0,0.0,0.0,0.0,0.0,0.0,0.0,0.0,0.0,0.0,0.0,0.0,0.0,0.0,0.0,0.0,0.0,0.0,-4.9001,-4.9001,-4.9001,-4.9001,-4.9001,-4.9001,-4.9001,-4.9001,-4.8815,-4.8483,-4.8483,-4.7918,-4.6811,-4.604,-4.5258,-4.4434,-4.3708,-4.3329,-4.3329,-4.3329,-4.3329,-4.3329,-4.3329,-4.3329,-4.3329,-4.3329,-4.3329,-4.3329,-4.3329,-4.3329,-4.3329,-4.3329,-4.3329,-4.3329,-4.3329,-4.3329,-4.3329,-4.3329,-4.3329,-4.3344,-4.3596,-4.369,-4.3972,-4.5126,-4.5405,-4.5608,-4.6604,-4.7355,-4.7885,-4.7885,-4.845,-4.894,-4.894,-4.9001,-4.9001,-4.9001,-4.9001,-4.9001,-4.9001,-4.9001,-4.9001,-4.9001,-4.9001,-4.9001,-4.9001,-4.9001,-4.9001,-4.9001,-4.9001,-4.9001,-4.9001,-4.9001,-4.9001,-4.9001,-4.9107,-4.929,-4.9488,-4.9649,-4.9784,-5.0011,-5.0011,-5.0011,-5.0011,-5.0011,-5.0011,0.0,0.0,-4.8163,-4.8308,0.0,0.0,0.0,0.0,0.0,0.0,0.0,0.0,0.0,0.0,0.0,0.0,0.0,0.0,0.0,0.0,0.0,0.0,0.0,0.0,0.0,0.0,0.0,-4.9001,-4.9001,-4.9001,-4.9001,-4.9001,-4.9001,-4.9001,-4.9001,-4.8815,-4.8483,-4.8483,-4.8227,-4.7555,-4.6828,-4.604,-4.5258,-4.4434,-4.3771,-4.3329,-4.3329,-4.3329,-4.3329,-4.3329,-4.3329,-4.3329,-4.3329,-4.3329,-4.3329,-4.3329,-4.3329,-4.3329,-4.3329,-4.3329,-4.3329,-4.3329,-4.3329,-4.3329,-4.3518,-4.3879,-4.4373,-4.4526,-4.5036,-4.5737,-4.6625,-4.6968,-4.7272,-4.8032,-4.845,-4.8656,-4.8656,-4.8798,-4.9001,-4.9001,-4.9001,-4.9001,-4.9001,-4.9001,-4.9001,-4.9001,-4.9001,-4.9001,-4.9001,-4.9001,-4.9001,-4.9001,-4.9001,-4.9001,-4.9001,-4.9001,-4.9001,-4.9001,-4.9046,-4.9107,-4.9107,-4.9411,-4.959,-4.9649,-4.9801,-4.9935,-5.0011,-5.0011,-5.0011,-5.0011,-5.0011,-5.0011,-4.8292,-4.8292,0.0,-4.8483,-4.8547,0.0,-4.8627,0.0,0.0,0.0,0.0,0.0,0.0,0.0,0.0,0.0,0.0,0.0,0.0,-4.9001,0.0,0.0,0.0,0.0,0.0,0.0,-4.9001,-4.9001,-4.9001,-4.9001,0.0,0.0,-4.9001,-4.9001,-4.9001,-4.8877,-4.8627,-4.8547,-4.8373,-4.8049,-4.7186,-4.6534,-4.6056,-4.4962,-4.422,-4.3693,-4.3394,-4.3329,-4.3329,-4.3329,-4.3329,-4.3329,-4.3329,-4.3329,-4.3329,-4.3329,-4.3329,-4.3329,-4.3329,-4.3329,-4.3329,-4.3423,-4.3645,-4.3849,-4.4097,-4.4737,-4.5358,-4.552,-4.6024,-4.6657,-4.7473,-4.7803,-4.8096,-4.8798,-4.9001,-4.9001,-4.9001,-4.9001,-4.9001,-4.9001,-4.9001,-4.9001,-4.9001,-4.9001,-4.9001,-4.9001,-4.9001,-4.9001,-4.9001,-4.9001,-4.9001,-4.9001,-4.9001,-4.9001,-4.9001,-4.9001,-4.9001,-4.9063,-4.9168,-4.9229,-4.929,-4.953,-4.9708,-4.9708,-4.9935,-5.0011,-5.0011,-5.0011,-5.0011,-5.0011,-5.0011,-5.0011]}]]